     2.11           OBSERVATION DATA    G (GPS)             RINEX VERSION / TYPE
teqc 2010Oct21 OPUS Account 20111030 16:35:50UTC            PGM / RUN BY / DATE
A 1524                                                      MARKER NAME
1205                                                        MARKER NUMBER
CSMIDDLETON NGS                                             OBSERVER / AGENCY
0440103897 TRIMBLE 5700 1.04                                REC # / TYPE / VERS
12299603 TRM41249.00 NONE                                   ANT # / TYPE
  -753958.2556 -5523446.8649  3088774.0295                  APPROX POSITION XYZ
        2.0000        0.0000        0.0000                  ANTENNA: DELTA H/E/N
     1     1                                                WAVELENGTH FACT L1/2
     5    L1    L2    C1    P1    P2                        # / TYPES OF OBSERV
    15                                                      LEAP SECONDS
  2011     9    28     0     0   30.0000000     GPS         TIME OF FIRST OBS
                                                            END OF HEADER
 11  9 28  0  0 30.0000000  0  8G25G29G12G02G15G05G30G26
 -38394128.91758 -29905176.64256  21825838.1094                   21825840.4844
 -27015762.32257 -21039286.68056  21993232.1484                   21993231.5904
 -48324383.91257 -37643452.13755  22285926.4224                   22285926.5744
 -62115523.38657 -48390469.95755  22130047.4064                   22130045.5004
  -7693600.26457  -5984795.71954  23888262.7424                   23888264.2584
 -51432097.34658 -40065766.94856  20769305.7344                   20769304.4734
 -19439194.59257 -15137320.44054  22854102.6804                   22854104.1134
 -17748147.42757 -13821291.15054  23009029.6484                   23009031.4414
 11  9 28  0  1  0.0000000  0  9G25G29G12G02G15G05G30G21G26
 -38431521.05248 -29934313.39946  21818722.9774                   21818724.9304
 -27160988.05047 -21152449.51946  21965596.2974                   21965596.4224
 -48312349.19448 -37634074.48145  22288216.9064                   22288216.2154
 -62140794.46547 -48410161.70745  22125238.3054                   22125235.4694
  -7859681.79547  -6114209.65044  23856657.9694                   23856660.5314
 -51455671.82448 -40084136.67946  20764819.5554                   20764818.0394
 -19522639.42647 -15202342.39744  22838224.3364                   22838225.5824
   -203962.16656   -148852.71553  25269394.1954                   25269397.7584
 -17905539.14547 -13943933.92944  22979078.9144                   22979080.3984
 11  9 28  0  1 30.0000000  0  9G25G29G12G02G15G05G30G21G26
 -38468396.46848 -29963047.52346  21811705.6334                   21811707.1564
 -27306035.86547 -21265473.71746  21937994.7344                   21937995.0944
 -48300025.54247 -37624471.69045  22290561.5944                   22290561.3134
 -62165975.23647 -48429783.07345  22120447.0944                   22120444.2304
  -8025763.60247  -6243623.82044  23825053.2344                   23825055.4694
 -51478811.00348 -40102167.22746  20760416.1024                   20760415.1484
 -19605505.24747 -15266913.18144  22822455.5314                   22822456.3594
   -330535.46146   -247481.17642  25245309.6334                   25245311.2274
 -18062693.95647 -14066392.13344  22949173.0944                   22949174.5274
 11  9 28  0  2  0.0000000  0  9G25G29G12G02G15G05G30G21G26
 -38504764.98548 -29991386.65646  21804785.0314                   21804786.5004
 -27450911.07948 -21378363.42146  21910425.9064                   21910426.3164
 -48287424.42647 -37614652.68245  22292959.7344                   22292959.2814
 -62191073.51447 -48449340.17045  22115670.5394                   22115668.2774
  -8191851.13847  -6373042.46744  23793447.7584                   23793450.3364
 -51501525.39048 -40119866.75846  20756094.0084                   20756092.3914
 -19687800.30247 -15331039.22145  22806795.4384                   22806796.5984
   -457109.20045   -346109.87243  25221221.3754                   25221225.6994
 -18219616.68347 -14188669.45844  22919311.9924                   22919312.5864
 11  9 28  0  2 30.0000000  0  9G25G29G12G02G15G05G30G21G26
 -38540626.59548 -30019330.79446  21797960.3984                   21797963.1994
 -27595609.92248 -21491115.67946  21882890.8834                   21882891.4024
 -48274546.92047 -37604618.31745  22295410.0234                   22295410.0004
 -62216087.46847 -48468831.56745  22110910.5084                   22110907.9144
  -8357939.55747  -6502461.76444  23761842.1414                   23761843.8754
 -51523815.17348 -40137235.42846  20751852.5634                   20751851.1294
 -19769522.82047 -15394719.11144  22791244.2584                   22791245.2934
   -583682.00146   -444737.95342  25197136.0004                   25197137.9064
 -18376301.56247 -14310761.45444  22889495.6174                   22889496.6884
 11  9 28  0  3  0.0000000  0  9G25G29G12G02G15G05G30G21G26
 -38575982.20548 -30046880.64646  21791232.7894                   21791234.6334
 -27740129.01048 -21603727.89546  21855389.6414                   21855389.6054
 -48261394.58747 -37594369.79445  22297913.1564                   22297912.6524
 -62241016.01047 -48488256.40345  22106166.6334                   22106164.4774
  -8524025.08346  -6631878.82444  23730236.5164                   23730238.8324
 -51545681.44048 -40154274.09146  20747691.3524                   20747690.2384
 -19850672.12147 -15457952.35844  22775801.4064                   22775802.4694
   -710253.30846   -543364.81743  25173050.3524                   25173052.5434
 -18532744.27747 -14432664.78444  22859725.1254                   22859726.2114
 11  9 28  0  3 30.0000000  0  9G25G29G12G02G15G05G30G21G26
 -38610828.07148 -30074033.30846  21784601.7734                   21784604.1294
 -27884460.57248 -21716193.96846  21827924.2034                   21827924.1524
 -48247965.20547 -37583905.38245  22300468.8674                   22300468.1484
 -62265853.56147 -48507610.33745  22101440.2664                   22101438.4104
  -8690099.07947  -6761286.92344  23698633.1954                   23698635.6134
 -51567121.15848 -40170980.38246  20743611.5394                   20743610.5434
 -19931242.82347 -15520734.75444  22760469.7034                   22760470.3794
   -836818.37446   -641986.76843  25148966.1334                   25148969.1254
 -18688935.21247 -14554371.88144  22830002.7814                   22830004.5434
 11  9 28  0  4  0.0000000  0  9G25G29G12G02G15G05G30G21G26
 -38645168.62748 -30100792.20746  21778067.1564                   21778069.6054
 -28028604.92948 -21828514.18346  21800494.3834                   21800494.4344
 -48234264.60848 -37573229.64045  22303076.0004                   22303075.6214
 -62290602.16747 -48526894.96145  22096731.0004                   22096728.0824
  -8856160.99846  -6890685.65144  23667032.9144                   23667034.7974
 -51588138.99848 -40187357.92646  20739612.2194                   20739610.0354
 -20011237.64047 -15583068.37744  22745247.1484                   22745248.2154
   -963380.52746   -740606.57042  25124880.9694                   25124884.1604
 -18844873.49147 -14675882.12944  22800328.9924                   22800330.1294
 11  9 28  0  4 30.0000000  0  9G25G29G12G02G15G05G30G21G26
 -38679005.58748 -30127158.69546  21771628.0394                   21771630.2544
 -28172559.54048 -21940686.52846  21773100.4304                   21773099.9024
 -48220295.17847 -37562344.42845  22305734.1174                   22305733.5084
 -62315261.76747 -48546110.24345  22092038.3914                   22092035.6684
  -9022208.35847  -7020073.00844  23635435.2194                   23635437.4454
 -51608736.96948 -40203408.31146  20735692.3754                   20735691.2504
 -20090656.68247 -15644953.37144  22730134.2344                   22730134.8834
  -1089939.30546   -839223.65642  25100797.8754                   25100800.7304
 -19000555.13347 -14797192.40045  22770704.0084                   22770704.9654
 11  9 28  0  5  0.0000000  0  9G25G29G12G02G15G05G30G21G26
 -38712340.70448 -30153134.14146  21765284.3054                   21765287.1724
 -28316322.00247 -22052709.17646  21745743.1564                   21745743.1954
 -48206059.77247 -37551251.95745  22308442.9694                   22308443.5234
 -62339831.84747 -48565255.76445  22087362.9844                   22087360.8984
  -9188237.55447  -7149446.26144  23603840.4614                   23603842.6174
 -51628917.05048 -40219133.05746  20731852.3134                   20731850.9104
 -20169500.06147 -15706389.79244  22715130.3444                   22715132.4024
  -1216495.71446   -937838.86643  25076714.7584                   25076718.1214
 -19155976.20147 -14918299.60945  22741127.9774                   22741129.3404
 11  9 28  0  5 30.0000000  0  9G25G29G12G02G15G05G30G21G26
 -38745172.23348 -30178717.18246  21759037.1644                   21759039.8204
 -28459886.59247 -22164577.61546  21718423.9694                   21718423.6564
 -48191557.74947 -37539951.73945  22311202.3524                   22311203.1724
 -62364308.49347 -48584328.47045  22082705.2974                   22082702.7074
  -9354241.99247  -7278800.17044  23572251.0314                   23572252.9574
 -51648677.85348 -40234531.10046  20728091.6644                   20728090.6414
 -20247764.39147 -15767374.99644  22700237.4844                   22700238.8714
  -1343046.36846  -1036449.62043  25052633.1954                   25052636.2704
 -19311129.20447 -15039197.97145  22711603.2504                   22711604.2234
 11  9 28  0  6  0.0000000  0  9G25G29G12G02G15G05G30G21G26
 -38777505.03548 -30203911.60246  21752884.5164                   21752886.5554
 -28603253.66648 -22276292.17046  21691142.0084                   21691142.3524
 -48176795.38547 -37528448.65145  22314011.7664                   22314011.8874
 -62388694.36847 -48603330.45645  22078064.8984                   22078062.6414
  -9520221.80046  -7408134.95744  23540665.2194                   23540666.7074
 -51668024.26248 -40249606.22446  20724410.2814                   20724409.5204
 -20325453.03547 -15827911.63544  22685454.1484                   22685455.1524
  -1469595.08146  -1135058.97343  25028551.1884                   25028554.1214
 -19466013.44347 -15159886.87945  22682130.2274                   22682130.8444
 11  9 28  0  6 30.0000000  0  9G25G29G12G02G15G05G30G21G26
 -38809340.26748 -30228718.30446  21746826.1094                   21746828.4804
 -28746420.25148 -22387850.48146  21663898.2814                   21663897.3954
 -48161774.56547 -37516744.17145  22316870.3594                   22316870.6764
 -62412988.50347 -48622260.97345  22073441.4924                   22073439.6134
  -9686173.07047  -7537447.47144  23509085.9774                   23509087.5664
 -51686958.02148 -40264359.82346  20720807.6484                   20720805.9884
 -20402565.49147 -15887999.28944  22670780.7664                   22670781.0514
  -1596140.86246  -1233665.96143  25004470.8674                   25004473.8914
 -19620624.34347 -15280362.81544  22652708.1094                   22652708.8444
 11  9 28  0  7  0.0000000  0  9G25G29G12G02G15G05G30G21G26
 -38840683.55148 -30253141.66946  21740862.1094                   21740864.3524
 -28889387.58348 -22499253.57046  21636692.3674                   21636692.1914
 -48146502.02547 -37504843.55145  22319776.6564                   22319776.4964
 -62437194.26947 -48641122.61045  22068835.1024                   22068832.8284
  -9852096.28247  -7666738.15944  23477512.3674                   23477513.0944
 -51705484.99048 -40278796.42446  20717281.6484                   20717280.2894
 -20479105.68047 -15947641.01144  22656214.9384                   22656216.2894
  -1722688.05246  -1332273.93543  24980389.7664                   24980393.3054
 -19774961.78647 -15400625.66745  22623338.5704                   22623339.4064
 11  9 28  0  7 30.0000000  0  9G25G29G12G02G15G05G30G21G26
 -38871534.26348 -30277181.20846  21734991.2034                   21734993.0044
 -29032150.85248 -22610497.62446  21609525.4924                   21609525.3364
 -48130978.10447 -37492747.04445  22322730.6564                   22322731.0434
 -62461308.81847 -48659913.18045  22064246.8914                   22064244.6684
 -10017985.82146  -7796002.56044  23445943.8914                   23445946.2854
 -51723604.78348 -40292915.75146  20713833.8674                   20713832.6884
 -20555071.43347 -16006835.14144  22641758.9774                   22641760.6524
  -1849234.80046  -1430881.67243  24956308.4614                   24956311.4534
 -19929019.63247 -15520670.64845  22594022.7664                   22594023.5434
 11  9 28  0  8  0.0000000  0  9G25G29G12G02G15G05G30G21G26
 -38901893.11648 -30300837.48546  21729214.1174                   21729215.9144
 -29174706.41848 -22721579.84346  21582398.0004                   21582398.1134
 -48115204.16147 -37480455.71945  22325732.3524                   22325732.6414
 -62485330.85747 -48678631.66545  22059675.5164                   22059673.3014
 -10183837.55046  -7925237.51244  23414383.3364                   23414385.5744
 -51741318.18048 -40306718.40046  20710462.9384                   20710462.1454
 -20630461.83147 -16065580.93344  22627412.3914                   22627414.0314
  -1975780.20646  -1529488.38043  24932228.3364                   24932230.4614
 -20082792.65347 -15640493.68144  22564760.1954                   22564761.0044
 11  9 28  0  8 30.0000000  0  9G25G29G12G02G15G05G30G21G26
 -38931765.19048 -30324114.45246  21723529.8984                   21723531.8444
 -29317054.93148 -22832500.70746  21555309.8284                   21555309.7854
 -48099186.68547 -37467974.62945  22328779.9844                   22328780.6644
 -62509262.87247 -48697280.00745  22055120.9844                   22055118.6454
 -10349651.43346  -8054442.94744  23382829.2274                   23382832.0554
 -51758630.16748 -40320208.25146  20707168.2424                   20707167.2934
 -20705280.23847 -16123880.98044  22613174.8834                   22613176.6564
  -2102327.81546  -1628096.78843  24908146.5314                   24908149.7384
 -20236280.19747 -15760094.25944  22535552.6954                   22535553.4804
 11  9 28  0  9  0.0000000  0  9G25G29G12G02G15G05G30G21G26
 -38961150.17348 -30347011.87346  21717938.1174                   21717940.8244
 -29459191.83648 -22943256.70046  21528262.4304                   21528262.1954
 -48082926.35947 -37455304.30545  22331875.0394                   22331874.8164
 -62533102.35447 -48715856.22545  22050585.0944                   22050581.9804
 -10515422.42446  -8183614.97844  23351284.7974                   23351286.9414
 -51775541.29548 -40333385.77346  20703950.5084                   20703949.1684
 -20779525.10047 -16181734.12244  22599047.4454                   22599048.4454
  -2228875.83346  -1726705.53943  24884064.4304                   24884067.2424
 -20389476.55147 -15879467.96545  22506400.0004                   22506400.8284
 11  9 28  0  9 30.0000000  0  9G25G29G12G02G15G05G30G21G26
 -38990052.47648 -30369533.17646  21712438.1884                   21712440.4104
 -29601116.87248 -23053847.58946  21501255.0634                   21501254.9344
 -48066428.32247 -37442448.75945  22335014.3594                   22335014.2344
 -62556851.59347 -48734362.13345  22046065.8524                   22046063.0824
 -10681149.44346  -8312752.72744  23319747.7034                   23319749.8794
 -51792056.05248 -40346254.41946  20700807.8834                   20700806.8984
 -20853199.13047 -16239142.44044  22585027.2734                   22585029.3794
  -2355426.89646  -1825316.60743  24859982.2734                   24859985.6804
 -20542379.86147 -15998613.30845  22477303.9534                   22477303.9104
 11  9 28  0 10  0.0000000  0  9G25G29G12G02G15G05G30G21G26
 -39018472.67148 -30391678.80646  21707029.9534                   21707032.0554
 -29742826.26948 -23164270.44146  21474288.0234                   21474288.2624
 -48049693.86947 -37429408.98545  22338198.4694                   22338199.2384
 -62580508.60847 -48752796.18945  22041563.5634                   22041561.5124
 -10846827.94947  -8441852.69544  23288219.9384                   23288221.8524
 -51808175.04748 -40358814.66646  20697740.4224                   20697739.5984
 -20926301.35747 -16296105.20344  22571116.3834                   22571117.5984
  -2481979.86546  -1923929.16543  24835900.6334                   24835904.1334
 -20694985.00647 -16117526.32245  22448263.9144                   22448264.0434
 11  9 28  0 10 30.0000000  0  9G25G29G12G02G15G05G30G21G26
 -37470992.91948 -29185850.46546  22001505.5784                   22001508.0634
 -28308894.03948 -22046920.60446  21747156.7274                   21747156.2734
 -46457307.87847 -36188588.78745  22641219.9844                   22641220.3134
 -61028653.22847 -47543558.23945  22336872.1644                   22336870.2424
  -9437030.52147  -7343309.04545  23556495.8984                   23556497.2584
 -50248480.69548 -39143468.41946  20994540.2814                   20994539.4574
 -19423410.84647 -15125021.66844  22857106.5394                   22857107.8014
  -1033112.22946   -794941.34443  25111610.8834                   25111613.9964
 -19271864.23647 -15008600.95645  22719074.5704                   22719075.1884
 11  9 28  0 11  0.0000000  0  9G25G29G12G02G15G05G30G21G26
 -37498460.24948 -29207253.61846  21996278.4694                   21996281.8284
 -28450170.20848 -22157005.88746  21720272.2424                   21720272.0784
 -46440115.33347 -36175192.04045  22644491.9614                   22644491.7154
 -61052129.75647 -47561851.63645  22332404.7194                   22332401.9384
  -9602608.16247  -7472330.42044  23524986.9774                   23524989.1644
 -50263820.03848 -39155421.16146  20991621.3134                   20991620.6214
 -19495376.11947 -15181098.50244  22843412.9694                   22843413.3484
  -1159675.99246   -893562.29643  25087527.4844                   25087529.0944
 -19423866.95247 -15127044.53345  22690148.7894                   22690150.0704
 11  9 28  0 11 30.0000000  0  9G25G29G12G02G15G05G30G21G26
 -37525450.75948 -29228285.21846  21991142.2734                   21991144.6414
 -28591222.66748 -22266916.82846  21693431.0944                   21693431.3484
 -46422694.47947 -36161617.41545  22647806.7664                   22647807.2194
 -61075512.65547 -47580072.10045  22327955.1334                   22327953.2464
  -9768127.19347  -7601306.13145  23493489.7274                   23493491.1524
 -50278769.42548 -39167070.02346  20988776.4384                   20988775.6484
 -19566770.23347 -15236730.23045  22829826.3674                   22829827.6684
  -1286242.18446   -992185.23843  25063442.3204                   25063443.8874
 -19575559.33747 -15245246.30645  22661282.7734                   22661283.7624
 11  9 28  0 12  0.0000000  0  9G25G29G12G02G15G05G30G21G26
 -37551971.24448 -29248950.57246  21986096.2664                   21986098.5904
 -28732053.69648 -22376655.24446  21666631.6024                   21666631.1684
 -46405053.02447 -36147870.88645  22651163.5864                   22651163.8524
 -61098805.51948 -47598222.40045  22323522.3364                   22323519.6804
  -9933589.20747  -7730237.40344  23462003.2584                   23462004.6604
 -50293335.85048 -39178420.47646  20986004.6644                   20986003.6134
 -19637598.49147 -15291921.07344  22816348.0004                   22816349.7544
  -1412815.92546  -1090814.01043  25039354.9614                   25039357.3054
 -19726942.37047 -15363207.00645  22632475.9064                   22632476.5704
 11  9 28  0 12 30.0000000  0  9G25G29G12G02G15G05G30G21G26
 -37578022.98148 -29269250.65346  21981138.5084                   21981141.1134
 -28872660.12048 -22486218.62446  21639875.2974                   21639874.6604
 -46387193.09847 -36133954.13045  22654562.5164                   22654562.6454
 -61122007.50847 -47616301.86745  22319107.0474                   22319105.1914
 -10098990.23547  -7859121.16445  23430528.0234                   23430529.6374
 -50307520.54948 -39189473.47846  20983305.6484                   20983303.9964
 -19707860.60147 -15346670.76445  22802977.8204                   22802979.3674
  -1539397.01846  -1189448.46943  25015267.8284                   25015270.3954
 -19878011.33147 -15480922.99145  22603728.3674                   22603728.8014
 11  9 28  0 13  0.0000000  0  9G25G29G12G02G15G05G30G21G26
 -37603607.90848 -29289186.99746  21976269.5394                   21976271.8674
 -29013039.04748 -22595604.73546  21613162.0004                   21613161.5634
 -46369117.47947 -36119869.30045  22658002.0164                   22658002.3204
 -61145117.87647 -47634309.94245  22314709.7504                   22314707.0234
 -10264326.97447  -7987954.82844  23399065.5004                   23399066.7344
 -50321325.51048 -39200230.58346  20980678.5554                   20980677.3204
 -19777557.00947 -15400979.64244  22789715.3204                   22789716.3164
  -1665985.31946  -1288088.57143  24991178.7504                   24991180.7664
 -20028762.30547 -15598391.18145  22575041.0164                   22575041.5864
 11  9 28  0 13 30.0000000  0  9G25G29G12G02G15G05G30G21G26
 -37628728.63848 -29308761.61946  21971489.7504                   21971491.5554
 -29153188.72748 -22704812.22946  21586492.1564                   21586492.2624
 -46350829.62047 -36105619.09645  22661482.1724                   22661482.6374
 -61168136.80247 -47652246.76945  22310329.2114                   22310326.8404
 -10429596.55047  -8116736.15144  23367615.6414                   23367616.8364
 -50334753.58848 -39210694.01146  20978123.2734                   20978122.2704
 -19846688.82347 -15454848.60044  22776559.7424                   22776561.1684
  -1792582.01946  -1386735.26643  24967087.6024                   24967090.0594
 -20179191.92847 -15715608.92945  22546415.5944                   22546415.9844
 11  9 28  0 14  0.0000000  0  9G25G29G12G02G15G05G30G21G26
 -37653384.70048 -29327974.17446  21966797.8284                   21966800.2774
 -29293103.92548 -22813836.99946  21559867.3834                   21559867.1374
 -46332329.82447 -36091203.72245  22665002.7734                   22665002.7664
 -61191061.51947 -47670110.18445  22305966.5944                   22305964.2304
 -10594793.36647  -8245460.79844  23336179.2894                   23336179.8164
 -50347804.44148 -39220863.50646  20975639.4844                   20975638.0664
 -19915254.10447 -15508276.11444  22763512.1884                   22763513.2704
  -1919184.70946  -1485386.66043  24942996.3754                   24942999.2664
 -20329293.89247 -15832571.38645  22517851.5864                   22517852.4654
 11  9 28  0 14 30.0000000  0  9G25G29G12G02G15G05G30G21G26
 -37677577.68448 -29346825.87846  21962194.0784                   21962196.7584
 -29432781.70648 -22922676.77146  21533287.4144                   21533287.2704
 -46313620.34147 -36076624.96745  22668563.5394                   22668563.6914
 -61213890.62647 -47687899.10545  22301622.9304                   22301619.9804
 -10759913.90547  -8374126.01444  23304757.3674                   23304758.4654
 -50360479.83048 -39230740.41746  20973227.3594                   20973226.1214
 -19983252.92746 -15561262.20845  22750572.4304                   22750573.6844
  -2045793.08746  -1584042.39543  24918903.1414                   24918905.2504
 -20479063.69147 -15949275.04045  22489351.0084                   22489351.8914
 11  9 28  0 15  0.0000000  0  9G25G29G12G02G15G05G30G21G26
 -37701313.69048 -29365321.49946  21957676.7734                   21957679.1684
 -29572223.27748 -23031332.48346  21506752.5634                   21506751.7774
 -46294708.24047 -36061888.33345  22672162.3674                   22672162.4344
 -61236627.97548 -47705616.52345  22297295.9694                   22297293.4344
 -10924958.53147  -8502732.03344  23273350.6484                   23273351.5164
 -50372785.75148 -39240329.44646  20970886.3594                   20970884.8134
 -20050689.93547 -15613810.55144  22737739.5474                   22737741.1334
  -2172411.70146  -1682706.09043  24894808.3594                   24894811.0514
 -20628501.74447 -16065720.14945  22460914.0634                   22460914.6884
 11  9 28  0 15 30.0000000  0  9G25G29G12G02G15G05G30G21G26
 -37724593.78548 -29383461.86346  21953246.9694                   21953249.5354
 -29711425.19148 -23139801.45046  21480263.6334                   21480262.9534
 -46275595.27847 -36046995.18245  22675799.3284                   22675799.7344
 -61259272.12148 -47723261.29445  22292986.5784                   22292984.3014
 -11089923.10347  -8631275.70444  23241959.0474                   23241960.2894
 -50384723.05847 -39249631.24046  20968614.5084                   20968613.3984
 -20117564.75247 -15665920.81545  22725014.1484                   22725015.1524
  -2299039.65746  -1781377.15243  24870712.1094                   24870714.2584
 -20777603.02747 -16181902.85545  22432541.2114                   22432541.1724
 11  9 28  0 16  0.0000000  0  9G25G29G12G02G15G05G30G21G26
 -37747422.07648 -29401250.16946  21948902.9064                   21948905.2624
 -29850387.00148 -23248083.32146  21453819.6094                   21453819.4494
 -46256286.28047 -36031949.27745  22679473.7034                   22679474.2274
 -61281824.11747 -47740834.29145  22288695.6564                   22288692.6684
 -11254806.40347  -8759755.99244  23210582.5084                   23210583.8914
 -50396296.32748 -39258649.36946  20966412.2194                   20966411.1764
 -20183879.98847 -15717595.04344  22712394.4694                   22712396.0594
  -2425679.29246  -1880057.28043  24846614.0394                   24846615.0234
 -20926365.51447 -16297821.54745  22404232.1414                   22404233.1054
 11  9 28  0 16 30.0000000  0  9G25G29G12G02G15G05G30G21G26
 -37769797.10148 -29418685.26946  21944645.3284                   21944647.6604
 -29989102.65348 -23356173.38946  21427422.8674                   21427422.0634
 -46236780.48047 -36016750.01845  22683185.3524                   22683185.7034
 -61304280.21547 -47758332.54445  22284421.9304                   22284419.5554
 -11419601.49447  -8888167.61845  23179223.4384                   23179224.1844
 -50407503.99048 -39267382.61846  20964279.5004                   20964278.2464
 -20249632.79547 -15768830.98744  22699881.7344                   22699883.5554
  -2552327.15646  -1978743.70443  24822512.6484                   24822514.8164
 -21074782.03647 -16413470.68245  22375989.7894                   22375990.1804
 11  9 28  0 17  0.0000000  0  9G25G29G12G02G15G05G30G21G26
 -37791725.35748 -29435772.25346  21940472.5704                   21940474.9694
 -30127573.62348 -23464072.78146  21401072.7734                   21401072.2584
 -46217084.86847 -36001402.84745  22686933.4144                   22686934.0664
 -61326644.19247 -47775759.02545  22280166.1804                   22280163.6174
 -11584309.24847  -9016511.16945  23147880.8754                   23147881.5164
 -50418352.63848 -39275836.11146  20962214.9454                   20962213.7934
 -20314828.07447 -15819632.52645  22687475.7114                   22687477.2034
  -2678988.05346  -2077440.38143  24798409.7734                   24798412.2544
 -21222852.79847 -16528850.38845  22347812.9534                   22347812.9184
 11  9 28  0 17 30.0000000  0  9G25G29G12G02G15G05G30G21G26
 -37813205.55248 -29452510.08546  21936384.9924                   21936387.2584
 -30265794.12048 -23571777.00746  21374770.3674                   21374769.7274
 -46197199.00547 -35985907.43145  22690717.7814                   22690718.1454
 -61348911.98647 -47793110.56245  22275929.0004                   22275926.3444
 -11748923.28047  -9144781.66145  23116555.3204                   23116556.2774
 -50428840.84448 -39284008.73946  20960219.0634                   20960217.5634
 -20379463.24447 -15869997.58845  22675176.3284                   22675178.1524
  -2805658.62046  -2176144.62443  24774305.6174                   24774307.2464
 -21370570.70647 -16643955.15745  22319702.6644                   22319703.2504
 11  9 28  0 18  0.0000000  0  9G25G29G12G02G15G05G30G21G26
 -37834242.95948 -29468902.89346  21932381.7034                   21932384.0784
 -30403764.39248 -23679286.25446  21348515.4064                   21348514.8094
 -46177128.69747 -35970268.28145  22694536.7664                   22694537.5744
 -61371086.14047 -47810389.11945  22271708.8134                   22271706.8164
 -11913443.16247  -9272978.81645  23085248.2974                   23085249.1954
 -50438973.85948 -39291904.60946  20958290.4454                   20958289.3014
 -20443542.09447 -15919929.16545  22662982.5394                   22662983.8674
  -2932342.33946  -2274859.03143  24750197.9454                   24750200.7154
 -21517934.85747 -16758784.27245  22291660.4774                   22291660.3244
 11  9 28  0 18 30.0000000  0  9G25G29G12G02G15G05G30G21G26
 -37854839.49047 -29484952.17246  21928462.0634                   21928464.6524
 -30541481.68348 -23786598.38446  21322308.5864                   21322308.2194
 -46156876.90947 -35954487.74245  22698391.0314                   22698391.1884
 -61393165.87746 -47827594.10945  22267507.5864                   22267505.4614
 -12077865.36947  -9401099.84745  23053959.7194                   23053960.8674
 -50448753.74948 -39299525.31146  20956429.8444                   20956428.8404
 -20507065.20547 -15969427.70545  22650893.6334                   22650895.7894
  -3059039.40147  -2373583.90043  24726088.7114                   24726091.2114
 -21664941.21447 -16873334.59945  22263685.7034                   22263685.8914
 11  9 28  0 19  0.0000000  0  9G25G29G12G02G15G05G30G21G26
 -37874996.79748 -29500659.17146  21924626.3834                   21924629.0274
 -30678942.69248 -23893710.81246  21296150.6094                   21296149.9304
 -46136445.59047 -35938567.28845  22702278.5314                   22702279.2814
 -61415150.24947 -47844724.78545  22263324.3284                   22263321.7934
 -12242185.93447  -9529141.69645  23022690.4924                   23022691.3634
 -50458181.80247 -39306871.85546  20954635.6564                   20954634.3954
 -20570032.71147 -16018493.27445  22638911.6564                   22638913.3324
  -3185749.26046  -2472318.72043  24701976.2894                   24701978.5474
 -21811585.43447 -16987602.74345  22235780.2974                   22235780.4924
 11  9 28  0 19 30.0000000  0  9G25G29G12G02G15G05G30G21G26
 -37894717.88448 -29516026.28046  21920873.7734                   21920875.6844
 -30816145.81848 -24000622.28846  21270041.3444                   21270041.2774
 -46115838.38247 -35922509.77245  22706200.3364                   22706200.4804
 -61437039.37347 -47861781.24345  22259158.6884                   22259156.6094
 -12406402.48947  -9657102.47845  22991440.9774                   22991441.1994
 -50467261.28047 -39313946.78346  20952908.0784                   20952906.5274
 -20632446.31847 -16067127.24045  22627035.0944                   22627036.7664
  -3312472.96546  -2571064.29143  24677861.1484                   24677863.8714
 -21957864.39547 -17101586.25745  22207944.1724                   22207944.2034
 11  9 28  0 20  0.0000000  0 10G25G29G12G02G15G05G30G21G26G18
 -37914007.43648 -29531057.11846  21917203.2424                   21917205.3204
 -30953090.94648 -24107332.72346  21243981.8444                   21243981.3284
 -46095060.48147 -35906319.25545  22710154.0784                   22710154.6214
 -61458835.24947 -47878765.03145  22255010.6954                   22255009.0124
 -12570514.21647  -9784981.56144  22960211.2344                   22960212.4844
 -50475996.87847 -39320753.76146  20951245.5474                   20951244.4224
 -20694309.31247 -16115332.17245  22615262.6564                   22615264.5004
  -3439213.21746  -2669822.80443  24653743.3054                   24653745.2774
 -22103776.67347 -17215284.07045  22180178.0164                   22180178.4844
   1344590.80555   1061982.02752  24566524.5474                   24566527.6334
 11  9 28  0 20 30.0000000  0 10G25G29G12G02G15G05G30G21G26G18
 -37932873.31848 -29545757.82846  21913613.2194                   21913615.1954
 -31089780.95548 -24213844.37646  21217970.0164                   21217970.0204
 -46074120.33447 -35890002.31945  22714138.8984                   22714139.8134
 -61480542.97847 -47895680.17745  22250880.4224                   22250878.3244
 -12734523.15547  -9912780.58445  22929000.8364                   22929002.0744
 -50484396.27747 -39327298.76346  20949647.0234                   20949646.0004
 -20755628.18147 -16163113.12245  22603594.1724                   22603595.8054
  -3565976.07456  -2768598.94853  24629620.9534                   24629623.0984
 -22249324.15347 -17328697.61445  22152481.2274                   22152481.0554
   1185087.40245    937693.89142  24536172.0004                   24536175.5044
 11  9 28  0 21  0.0000000  0 10G25G29G12G02G15G05G30G21G26G18
 -37951322.73848 -29560134.02246  21910102.4064                   21910104.3554
 -31226218.34648 -24320159.17746  21192007.4534                   21192006.6254
 -46053026.22047 -35873565.38545  22718153.1174                   22718153.9964
 -61502166.59147 -47912529.72245  22246765.5394                   22246762.7974
 -12898430.61347 -10040500.50444  22897810.5394                   22897811.1484
 -50492466.29448 -39333587.10346  20948111.6024                   20948110.4414
 -20816408.83747 -16210474.67745  22592028.3444                   22592030.3554
  -3692766.35146  -2867396.42643  24605494.5394                   24605496.7304
 -22394508.05347 -17441827.85745  22124853.3754                   22124852.8674
   1025730.28955    813519.70752  24505846.8284                   24505849.6254
 11  9 28  0 21 30.0000000  0 10G25G29G12G02G15G05G30G21G26G18
 -37969354.53448 -29574184.79846  21906671.2424                   21906673.6214
 -31362396.76647 -24426272.19346  21166093.2274                   21166093.2544
 -46031777.17946 -35857007.75445  22722196.9844                   22722196.6134
 -61523702.39347 -47929310.86545  22242667.5784                   22242664.7344
 -13062230.79147 -10168136.87644  22866640.3914                   22866641.0394
 -50500205.90047 -39339617.98846  20946638.8594                   20946637.4964
 -20876648.68747 -16257414.83045  22580564.9694                   22580565.9804
  -3819581.00946  -2966212.91243  24581361.7814                   24581363.0474
 -22539320.91047 -17554668.95945  22097296.5004                   22097296.6564
    866524.53255    689463.50852  24475550.0704                   24475554.4694
 11  9 28  0 22  0.0000000  0 10G25G29G12G02G15G05G30G21G26G18
 -36411544.94348 -28360307.20646  22203112.1484                   22203114.6684
 -29922883.71948 -23304573.66746  21440023.5314                   21440023.0704
 -44434951.14947 -34612727.79445  23026062.5704                   23026063.3714
 -59969723.25747 -46718418.02545  22538379.4454                   22538377.5204
 -11650488.76147  -9068078.01344  23135284.7734                   23135286.4774
 -48932191.48947 -38117788.60046  21245022.1334                   21245020.7774
 -19360921.24447 -15076328.49944  22868998.1484                   22868998.9024
  -2370990.36446  -1837440.83343  24857018.4694                   24857020.8364
 -21108328.68447 -16439610.00745  22369605.1174                   22369605.7304
   2282902.65645   1793135.02342  24745077.4384                   24745081.8954
 11  9 28  0 22 30.0000000  0 10G25G29G12G02G15G05G30G21G26G18
 -36428736.77647 -28373703.47746  22199840.7344                   22199842.5594
 -30058525.00147 -23410268.13346  21414211.6954                   21414211.6294
 -44413388.88947 -34595926.09945  23030166.2424                   23030166.1684
 -59991069.94147 -46735051.81745  22534317.5634                   22534315.6764
 -11814051.38647  -9195529.25844  23104160.1334                   23104160.7464
 -48939265.15048 -38123300.55246  21243675.8914                   21243674.5434
 -19420070.77547 -15122419.08645  22857742.6644                   22857743.7274
  -2497842.49346  -1936286.54543  24832879.0944                   24832882.2774
 -21252376.51247 -16551854.99945  22342193.9774                   22342194.0744
   2124015.87745   1669327.36543  24714843.2344                   24714846.4614
 11  9 28  0 23  0.0000000  0 10G25G29G12G02G15G05G30G21G26G18
 -36445511.53447 -28386774.73746  22196648.9064                   22196651.0664
 -30193893.33347 -23515749.91146  21388452.1804                   21388451.0514
 -44391673.91947 -34579005.39145  23034297.7194                   23034298.5044
 -60012320.73747 -46751610.87445  22530273.8364                   22530270.8794
 -11977489.86947  -9322883.75545  23073059.0394                   23073059.7624
 -48946008.51948 -38128555.15046  21242392.6564                   21242391.6994
 -19478676.08447 -15168085.58644  22846590.2114                   22846592.1804
  -2624713.32946  -2035146.78843  24808737.3134                   24808738.8674
 -21396035.65347 -16663797.10145  22314856.7034                   22314856.6914
   1965291.67945   1545646.41843  24684639.1724                   24684641.9654
 11  9 28  0 23 30.0000000  0 10G25G29G12G02G15G05G30G21G26G18
 -36461868.47548 -28399520.43946  22193536.2814                   22193538.5004
 -30328982.87847 -23621014.44246  21362745.6174                   21362744.9344
 -44369805.85447 -34561965.40345  23038459.2584                   23038459.8164
 -60033471.94047 -46768092.32045  22526248.1884                   22526245.7624
 -12140797.61847  -9450136.41845  23041982.3284                   23041982.4454
 -48952420.81448 -38133551.76246  21241172.5164                   21241171.3204
 -19536735.12747 -15213326.43545  22835542.5234                   22835543.9224
  -2751600.23046  -2134019.57443  24784591.5084                   24784592.5664
 -21539299.23747 -16775430.98545  22287594.1094                   22287594.1214
   1806734.45046   1422095.52043  24654466.5704                   24654468.9654
 11  9 28  0 24  0.0000000  0 10G25G29G12G02G15G05G30G21G26G18
 -36477810.17448 -28411942.56946  22190502.8524                   22190505.1254
 -30463791.32548 -23726059.93846  21337092.0004                   21337091.3874
 -44347787.64547 -34544808.44045  23042649.7974                   23042650.0474
 -60054523.16747 -46784495.87045  22522242.9224                   22522240.0864
 -12303971.79347  -9577284.96945  23010932.0394                   23010932.1764
 -48958504.41848 -38138292.24946  21240015.0234                   21240014.0314
 -19594249.19147 -15258142.61845  22824597.8284                   22824598.7384
  -2878503.66146  -2232905.21643  24760440.8204                   24760444.7154
 -21682163.70747 -16886753.83845  22260407.9774                   22260408.1254
   1648345.38446   1298675.74943  24624325.7504                   24624329.0164
 11  9 28  0 24 30.0000000  0 10G25G29G12G02G15G05G30G21G26G18
 -36493338.51447 -28424042.60846  22187547.9384                   22187550.1484
 -30598315.54347 -23830883.96346  21311493.0314                   21311492.0234
 -44325621.63647 -34527536.28645  23046867.9774                   23046869.1724
 -60075473.29747 -46800820.65645  22518256.1564                   22518253.1884
 -12467008.39547  -9704326.33245  22979906.5314                   22979907.1884
 -48964261.02748 -38142777.93046  21238919.2974                   21238918.4774
 -19651218.80347 -15302534.56444  22813756.9384                   22813757.6214
  -3005422.86046  -2331803.20043  24736290.5704                   24736291.8594
 -21824624.97047 -16997762.53645  22233298.2194                   22233298.2734
   1490126.66746   1175388.69943  24594217.3754                   24594220.8014
 11  9 28  0 25  0.0000000  0 10G25G29G12G02G15G05G30G21G26G18
 -36508456.26147 -28435822.71346  22184670.8594                   22184673.1294
 -30732553.36048 -23935484.80246  21285948.5474                   21285948.0394
 -44303311.22947 -34510151.61245  23051112.9304                   23051114.0664
 -60096322.32847 -46817066.63545  22514289.2194                   22514285.7424
 -12629904.40947  -9831258.15645  22948908.4844                   22948908.6454
 -48969693.24548 -38147010.84846  21237885.5864                   21237884.4384
 -19707645.49547 -15346503.42845  22803019.1884                   22803020.3984
  -3132358.69946  -2430714.12343  24712135.0314                   24712136.4534
 -21966679.30547 -17108454.12945  22206265.8984                   22206266.3244
   1332079.41946   1052235.19443  24564141.8594                   24564145.8954
 11  9 28  0 25 30.0000000  0 10G25G29G12G02G15G05G30G21G26G18
 -36523168.70347 -28447286.99546  22181871.5084                   22181873.5354
 -30866505.01348 -24039862.65246  21260458.0314                   21260457.2934
 -44280862.17247 -34492658.90645  23055385.2344                   23055385.5864
 -60117072.39447 -46833235.50245  22510340.1954                   22510337.8404
 -12792659.48147  -9958080.16045  22917937.5634                   22917938.0664
 -48974806.22648 -38150994.99146  21236913.1644                   21236911.8484
 -19763533.31547 -15390052.39645  22792383.8054                   22792385.6564
  -3259314.51346  -2529640.63043  24687976.1724                   24687977.3244
 -22108326.36447 -17218828.36845  22179311.7584                   22179311.3794
   1174202.42446    929214.32943  24534099.1564                   24534102.2544
 11  9 28  0 26  0.0000000  0 10G25G29G12G02G15G05G30G21G26G18
 -36537475.99748 -28458435.55846  22179148.4144                   22179151.0124
 -31000165.66748 -24144013.75346  21235023.3524                   21235022.5084
 -44258274.98247 -34475058.55145  23059683.5084                   23059683.9024
 -60137720.32847 -46849324.78645  22506410.7274                   22506408.3014
 -12955268.01747 -10084787.95745  22886993.1804                   22886993.7424
 -48979599.89148 -38154730.31346  21236000.7194                   21235999.2464
 -19818881.12647 -15433180.56945  22781852.0004                   22781852.9884
  -3386288.05946  -2628580.95843  24663813.9844                   24663815.8094
 -22249559.64347 -17328880.17845  22152435.6414                   22152435.3164
   1016499.29146    806328.98443  24504089.2504                   24504091.4184
 11  9 28  0 26 30.0000000  0 10G25G29G12G02G15G05G30G21G26G18
 -36551381.80847 -28469271.31246  22176502.2504                   22176505.0434
 -31133533.46448 -24247936.65746  21209644.2114                   21209643.6094
 -44235553.89947 -34457353.87045  23064007.2424                   23064007.9264
 -60158267.32747 -46865335.42845  22502500.8754                   22502499.3284
 -13117727.69647 -10211379.77845  22856078.3204                   22856079.1134
 -48984077.50548 -38158219.37346  21235148.7814                   21235147.3714
 -19873691.39847 -15475889.88945  22771421.6884                   22771423.1214
  -3513280.92646  -2727536.25443  24639647.2894                   24639649.4304
 -22390377.14047 -17438607.99545  22125639.1414                   22125638.4104
    858970.07146    683579.13843  24474111.2974                   24474113.8674
 11  9 28  0 27  0.0000000  0 10G25G29G12G02G15G05G30G21G26G18
 -36564890.97947 -28479797.97346  22173931.4774                   22173933.8554
 -31266609.11848 -24351631.89746  21184320.6174                   21184319.9534
 -44212703.53347 -34439548.45045  23068355.8594                   23068356.0664
 -60178715.08947 -46881268.72345  22498609.8594                   22498606.9804
 -13280037.83547 -10337855.07445  22825192.0784                   22825191.6994
 -48988243.84548 -38161465.87946  21234356.0554                   21234354.6644
 -19927967.66347 -15518183.09845  22761093.1724                   22761094.0234
  -3640295.68346  -2826508.73643  24615477.6644                   24615478.7034
 -22530777.25147 -17548010.60245  22098921.2114                   22098921.6054
    701614.11246    560964.33743  24444168.0234                   24444169.9264
 11  9 28  0 27 30.0000000  0 10G25G29G12G02G15G05G30G21G26G18
 -36578003.00548 -28490015.16246  22171436.8834                   22171438.8244
 -31399386.91048 -24455095.05046  21159053.9454                   21159053.8364
 -44189724.19247 -34421642.54145  23072728.3834                   23072729.2234
 -60199060.14947 -46897121.99345  22494738.8594                   22494736.0784
 -13442191.83147 -10464208.72645  22794334.8444                   22794335.7274
 -48992098.21848 -38164469.28446  21233622.2424                   21233621.4774
 -19981708.21047 -15560058.83844  22750866.6334                   22750868.2114
  -3767329.62846  -2925496.09043  24591303.0634                   24591304.8204
 -22670753.49847 -17657082.91145  22072284.9534                   22072284.7774
    544435.94346    438487.98842  24414257.6644                   24414259.2814
 11  9 28  0 28  0.0000000  0 10G25G29G12G02G15G05G30G21G26G18
 -36590721.50448 -28499925.72445  22169016.4534                   22169019.0354
 -31531864.80348 -24558324.51746  21133844.1644                   21133843.2854
 -44166620.03047 -34403639.35045  23077125.3054                   23077125.5554
 -60219302.76147 -46912895.45145  22490886.1334                   22490884.2424
 -13604187.79047 -10590439.22245  22763507.8284                   22763507.7774
 -48995643.86448 -38167232.12646  21232947.3364                   21232946.7034
 -20034915.49247 -15601519.06345  22740741.4774                   22740743.1914
  -3894383.48046  -3024499.04943  24567125.5704                   24567127.3914
 -22810303.25947 -17765822.88145  22045729.2424                   22045729.1484
    387435.79746    316150.35542  24384381.5634                   24384382.9344
 11  9 28  0 28 30.0000000  0 10G25G29G12G02G15G05G30G21G26G18
 -36603051.96247 -28509533.89246  22166670.0234                   22166672.5474
 -31664043.59648 -24661320.91746  21108691.4774                   21108690.9304
 -44143396.73747 -34385543.37145  23081544.4224                   23081544.8054
 -60239445.49847 -46928591.08745  22487052.7894                   22487050.8674
 -13766025.21047 -10716546.19745  22732710.7734                   22732711.5784
 -48998886.07648 -38169758.51146  21232330.7664                   21232330.0514
 -20087593.81747 -15642567.08045  22730717.4144                   22730718.5744
  -4021460.93546  -3123520.33543  24542944.2734                   24542945.5474
 -22949425.95047 -17874230.08545  22019255.0164                   22019254.7504
    230611.82746    193950.03942  24354538.4224                   24354540.1174
 11  9 28  0 29  0.0000000  0 10G25G29G12G02G15G05G30G21G26G18
 -36615000.74147 -28518844.68645  22164395.9224                   22164399.0634
 -31795924.16948 -24764084.93446  21083595.5164                   21083594.4694
 -44120060.91347 -34367359.67644  23085985.0944                   23085985.5664
 -60259491.59447 -46944211.41145  22483238.5314                   22483236.4574
 -13927704.70447 -10842530.09945  22701944.7734                   22701944.9024
 -49001830.89248 -38172053.16546  21231770.0004                   21231769.2734
 -20139748.28647 -15683206.93145  22720792.5704                   22720793.7774
  -4148566.15546  -3222563.27943  24518756.8674                   24518757.6844
 -23088121.77447 -17982304.65545  21992861.9224                   21992861.7154
     73961.74946     71885.21142  24324728.0004                   24324729.2774
 11  9 28  0 29 30.0000000  0 10G25G29G12G02G15G05G30G21G26G18
 -36626564.69448 -28527855.59246  22162195.4144                   22162197.9614
 -31927498.75648 -24866610.53146  21058556.9774                   21058557.1334
 -44096609.62347 -34349085.99545  23090447.6644                   23090448.3914
 -60279435.03447 -46959751.75345  22479443.6564                   22479441.2234
 -14089217.46347 -10968384.09345  22671210.1174                   22671209.9224
 -49004474.77148 -38174113.32846  21231267.3284                   21231266.4844
 -20191374.64147 -15723435.23544  22710968.3754                   22710969.8404
  -4275693.74346  -3321623.64343  24494565.3284                   24494566.1414
 -23226381.26447 -18090039.24845  21966552.1254                   21966552.1884
    -82507.36546    -50038.58242  24294953.3284                   24294953.9844
 11  9 28  0 30  0.0000000  0 10G25G29G12G02G15G05G30G21G26G18
 -36637748.81347 -28536570.52445  22160067.0704                   22160070.2734
 -32058767.07448 -24968897.47946  21033577.5474                   21033577.0824
 -44073048.44447 -34330726.69944  23094931.3204                   23094931.6954
 -60299277.45347 -46975213.36545  22475667.7894                   22475665.2344
 -14250562.22547 -11094107.19445  22640506.7034                   22640506.9694
 -49006822.62648 -38175942.81546  21230820.5234                   21230819.2934
 -20242476.67647 -15763254.96745  22701244.1094                   22701245.1724
  -4402846.45446  -3420703.60143  24470368.4064                   24470369.7274
 -23364203.62747 -18197433.22745  21940325.7344                   21940325.1054
   -238796.18746   -171821.91842  24265213.3054                   24265213.9344
 11  9 28  0 30 30.0000000  0 10G25G29G12G02G15G05G30G21G26G18
 -36648554.47447 -28544990.54946  22158011.6804                   22158013.7344
 -32189725.32348 -25070942.81746  21008657.2344                   21008656.6174
 -44049378.71947 -34312282.85044  23099435.2974                   23099436.5124
 -60319017.03447 -46990594.87445  22471911.4534                   22471908.8794
 -14411734.54747 -11219695.91545  22609835.9144                   22609836.7664
 -49008875.57248 -38177542.50546  21230429.3524                   21230428.4804
 -20293054.58447 -15802666.33844  22691619.2344                   22691620.7854
  -4530022.87246  -3519801.98243  24446167.6484                   24446168.5984
 -23501583.60148 -18304482.48345  21914182.7664                   21914182.4574
   -394902.57446   -293463.11943  24235506.7034                   24235508.3754
 11  9 28  0 31  0.0000000  0 10G25G29G12G02G15G05G30G21G26G18
 -36658986.50447 -28553119.44445  22156026.5164                   22156028.8954
 -32320373.16348 -25172746.28946  20983795.5864                   20983795.1414
 -44025605.73947 -34293758.54144  23103959.3754                   23103960.3794
 -60338655.51747 -47005897.57945  22468173.9924                   22468171.5354
 -14572733.41247 -11345149.47945  22579199.1484                   22579199.7114
 -49010637.58748 -38178915.47946  21230094.2344                   21230092.8674
 -20343112.10847 -15841672.17844  22682093.7664                   22682095.2274
  -4657225.63246  -3618920.89343  24421961.5004                   24421962.5044
 -23638520.29647 -18411186.34245  21888124.5084                   21888124.7544
   -550827.11946   -414962.54543  24205834.7424                   24205836.1994
 11  9 28  0 31 30.0000000  0 10G25G29G12G02G15G05G30G21G26G18
 -36669049.52247 -28560960.80945  22154111.5004                   22154113.6094
 -32450709.96848 -25274307.38346  20958993.4384                   20958992.4104
 -44001734.13547 -34275157.33644  23108502.2194                   23108502.8014
 -60358194.42047 -47021122.68745  22464456.0164                   22464453.3444
 -14733557.57147 -11470466.90545  22548595.1644                   22548595.3754
 -49012113.41948 -38180065.45646  21229813.5474                   21229812.2624
 -20392652.65847 -15880275.20645  22672666.4304                   22672667.8484
  -4784457.09146  -3718062.27243  24397749.9304                   24397750.9774
 -23775012.02047 -18517543.45445  21862151.2584                   21862151.0904
   -706570.29046   -536320.71943  24176198.2974                   24176200.0124
 11  9 28  0 32  0.0000000  0 10G25G29G12G02G15G05G30G21G26G18
 -36678745.52947 -28568516.16545  22152266.6094                   22152268.5514
 -32580732.82848 -25375623.85946  20934251.0314                   20934249.8524
 -43977766.65347 -34256481.44544  23113062.6094                   23113063.8554
 -60377632.77047 -47036269.46745  22460757.2894                   22460754.5274
 -14894202.96747 -11595645.05445  22518025.2114                   22518025.3954
 -49013304.80248 -38180993.79046  21229586.9454                   21229585.8554
 -20441677.19347 -15918476.13045  22663337.4454                   22663338.6914
  -4911716.84046  -3817225.57343  24373533.7734                   24373534.1994
 -23911054.56647 -18623550.56345  21836262.7424                   21836262.6134
   -862130.53246   -657536.33843  24146595.7974                   24146597.4884
 11  9 28  0 32 30.0000000  0 10G25G29G12G02G15G05G30G21G26G18
 -36688076.01347 -28575786.70446  22150490.6254                   22150493.4304
 -32710437.95148 -25476692.73646  20909568.8834                   20909568.1764
 -43953704.91947 -34237732.10744  23117642.3754                   23117642.3204
 -60396968.52047 -47051336.29845  22457077.6564                   22457075.0514
 -15054665.33147 -11720680.58845  22487490.2274                   22487490.6884
 -49014212.56348 -38181701.12446  21229414.0554                   21229412.9804
 -20490186.14947 -15956275.30944  22654106.6804                   22654107.6844
  -5039004.15946  -3916410.38243  24349311.2974                   24349311.2584
 -24046643.41647 -18729204.14845  21810461.4774                   21810460.8094
  -1017505.36746   -778607.43743  24117028.9224                   24117031.0864
 11  9 28  0 33  0.0000000  0 10G25G29G12G02G15G05G30G21G26G18
 -36697042.78647 -28582773.83846  22148784.5314                   22148786.6914
 -32839821.98048 -25577511.41846  20884947.7664                   20884947.1254
 -43929550.40947 -34218910.48045  23122238.4694                   23122239.0164
 -60416200.36747 -47066322.14345  22453417.2114                   22453415.0314
 -15214940.49647 -11845570.19945  22456991.0314                   22456990.8014
 -49014838.11548 -38182188.55046  21229294.6174                   21229293.9494
 -20538180.15347 -15993673.22044  22644973.6884                   22644974.4494
  -5166318.23946  -4015616.02043  24325083.5864                   24325084.4454
 -24181774.11847 -18834500.73945  21784746.8524                   21784746.5904
  -1172692.33746   -899532.21343  24087497.5314                   24087499.5784
 11  9 28  0 33 30.0000000  0 10G25G29G12G02G15G05G30G21G26G18
 -35130229.31947 -27361880.26445  22446939.2664                   22446941.9304
 -31393459.08047 -24450475.35546  21160181.5084                   21160180.2504
 -42329888.46447 -32972420.73344  23426644.3674                   23426645.3794
 -58859908.36747 -45853627.06945  22749570.8524                   22749568.3634
 -13799601.06246 -10742708.20245  22726320.8834                   22726321.1374
 -47439765.22948 -36954859.01446  21529021.4534                   21529020.3134
 -19010240.31647 -14803070.75344  22935730.8984                   22935731.5474
  -3718236.01946  -2887240.11043  24600644.6884                   24600645.3524
 -22741019.80647 -17711834.96845  22058912.9534                   22058912.6414
    247733.64946    207293.38943  24357795.3524                   24357797.4884
 11  9 28  0 34  0.0000000  0 10G25G29G12G02G15G05G30G21G26G18
 -35138479.37547 -27368308.92045  22445369.3444                   22445371.9964
 -31522196.04847 -24550789.82946  21135683.3524                   21135682.8404
 -42305560.33647 -32953463.83045  23431273.8524                   23431274.5394
 -58878933.42247 -45868451.77445  22745950.1254                   22745946.8284
 -13959494.69047 -10867300.54345  22695893.8364                   22695894.0394
 -47439836.36748 -36954914.42746  21529008.5634                   21529006.9734
 -19057211.89747 -14839671.97945  22926792.1174                   22926793.7424
  -3845606.59746  -2986489.81743  24576406.8914                   24576407.7304
 -22875226.66047 -17816411.67545  22033374.0634                   22033374.0084
     92923.24346     86662.01343  24328336.5314                   24328338.2774
 11  9 28  0 34 30.0000000  0 10G25G29G12G02G15G05G30G21G26G18
 -35146373.37647 -27374460.12145  22443867.0944                   22443869.8714
 -31650603.71448 -24650847.69346  21111248.6094                   21111247.7274
 -42281148.48847 -32934441.67045  23435919.2194                   23435920.4844
 -58897852.81647 -45883194.13345  22742349.9144                   22742347.0234
 -14119191.04247 -10991739.18345  22665504.7504                   22665504.7854
 -47439632.00248 -36954755.17246  21529046.5704                   21529045.8484
 -19103672.97547 -14875875.41844  22917950.6724                   22917952.3364
  -3973004.56846  -3085760.79043  24552163.5474                   24552165.1764
 -23008964.68647 -17920623.05545  22007924.8984                   22007924.5084
    -61695.15646    -33819.70943  24298913.1724                   24298916.1844
 11  9 28  0 35  0.0000000  0 10G25G29G12G02G15G05G30G21G26G18
 -35153917.35847 -27380338.58545  22442431.2584                   22442433.8324
 -31778683.55047 -24750650.11046  21086875.7274                   21086875.0004
 -42256658.61947 -32915358.72945  23440579.7734                   23440580.2344
 -58916668.96847 -45897856.04945  22738768.9454                   22738766.5664
 -14278689.78147 -11116023.80245  22635153.5234                   22635153.0434
 -47439157.71048 -36954385.58546  21529137.0234                   21529135.2734
 -19149628.61447 -14911684.97944  22909206.6804                   22909207.3914
  -4100433.29046  -3185055.73943  24527914.8754                   24527916.2504
 -23142233.78247 -18024469.03045  21982564.3914                   21982564.6804
   -216123.47446   -154153.39743  24269525.9224                   24269528.7234
 11  9 28  0 35 30.0000000  0 10G25G29G12G02G15G05G30G21G26G18
 -35161114.99247 -27385947.16745  22441062.1334                   22441064.1914
 -31906433.59648 -24850195.54446  21062565.7274                   21062565.1764
 -42232094.18047 -32896217.68645  23445254.1254                   23445255.3444
 -58935382.40547 -45912437.91145  22735208.2504                   22735205.8364
 -14437988.83747 -11240152.85445  22604839.5634                   22604839.7194
 -47438416.96548 -36953808.35846  21529278.2424                   21529276.6024
 -19195081.32947 -14947102.69844  22900556.5084                   22900557.6764
  -4227894.55846  -3284376.08943  24503659.7814                   24503661.1484
 -23275031.49747 -18127947.70045  21957293.8914                   21957293.4344
   -370361.50747   -274338.70643  24240176.1564                   24240177.1644
 11  9 28  0 36  0.0000000  0 10G25G29G12G02G15G05G30G21G26G18
 -35167966.70247 -27391286.19545  22439757.9144                   22439760.8674
 -32033849.05647 -24949480.26546  21038318.8674                   21038318.3054
 -42207456.47546 -32877019.55045  23449942.0634                   23449943.7304
 -58953990.30647 -45926937.52945  22731667.0784                   22731664.5704
 -14597082.50347 -11364121.82945  22574564.7344                   22574565.0514
 -47437409.25748 -36953023.11946  21529469.5944                   21529468.2774
 -19240030.54247 -14982128.04744  22892003.1334                   22892004.6454
  -4355385.54646  -3383719.51643  24479398.8054                   24479399.2114
 -23407352.03447 -18231054.53245  21932114.0474                   21932113.2194
   -524406.08646   -394373.38643  24210861.9384                   24210863.4104
 11  9 28  0 36 30.0000000  0 10G25G29G12G02G15G05G30G21G26G18
 -35174478.02447 -27396359.98146  22438519.3524                   22438521.6644
 -32160930.23048 -25048504.49946  21014136.3524                   21014135.6564
 -42182750.96346 -32857768.60245  23454643.6954                   23454645.3524
 -58972494.95847 -45941356.71845  22728145.6094                   22728143.8324
 -14755970.40247 -11487930.48845  22544329.6024                   22544329.4804
 -47436139.97648 -36952034.06346  21529711.0004                   21529709.6054
 -19284480.93147 -15016764.68544  22883544.0784                   22883545.4804
  -4482908.99746  -3483088.34244  24455131.2894                   24455132.9534
 -23539194.88147 -18333789.12845  21907025.2034                   21907024.9104
   -678258.37846   -514258.17943  24181584.2344                   24181586.1374
 11  9 28  0 37  0.0000000  0 10G25G29G12G02G15G05G30G21G26G18
 -35180649.88147 -27401169.25845  22437344.4224                   22437347.3444
 -32287672.85348 -25147264.92346  20990018.0864                   20990017.0204
 -42157978.49847 -32838465.45744  23459357.5554                   23459359.2194
 -58990893.67547 -45955693.34145  22724644.7664                   22724642.0164
 -14914647.38647 -11611574.76145  22514133.9304                   22514133.9694
 -47434609.36248 -36950841.35846  21530002.4844                   21530001.0664
 -19328432.21947 -15051012.44744  22875181.0704                   22875182.3914
  -4610463.84446  -3582481.56943  24430858.8284                   24430859.5594
 -23670554.81947 -18436147.46145  21882028.1094                   21882027.3094
   -831915.16646   -633990.58143  24152344.9384                   24152346.2274
 11  9 28  0 37 30.0000000  0 10G25G29G12G02G15G05G30G21G26G18
 -35186486.90047 -27405717.61045  22436234.1484                   22436236.4804
 -32414076.46448 -25245761.19946  20965963.9304                   20965962.8404
 -42133143.72847 -32819113.77744  23464083.9454                   23464085.2384
 -59009188.29947 -45969948.86645  22721162.8284                   22721160.7274
 -15073112.12447 -11735053.68745  22483978.9774                   22483979.1564
 -47432821.81348 -36949448.45546  21530342.7734                   21530341.4454
 -19371888.11247 -15084874.15745  22866911.9614                   22866913.0314
  -4738051.93646  -3681900.71344  24406579.3594                   24406580.4694
 -23801430.53847 -18538128.44945  21857122.8524                   21857122.5394
   -985377.21146   -753571.29543  24123141.0394                   24123142.6054
 11  9 28  0 38  0.0000000  0 10G25G29G12G02G15G05G30G21G26G18
 -35191992.60947 -27410007.79845  22435186.4844                   22435188.7584
 -32540138.90948 -25343991.61046  20941975.2114                   20941974.6804
 -42108250.11446 -32799716.22544  23468820.9614                   23468822.4654
 -59027378.78647 -45984123.23645  22717701.3364                   22717698.9614
 -15231362.21747 -11858365.33545  22453865.1254                   22453865.0474
 -47430780.31848 -36947857.65946  21530731.2584                   21530730.3634
 -19414851.20447 -15118351.86544  22858735.6644                   22858737.0204
  -4865674.35246  -3781346.56543  24382292.6564                   24382294.5274
 -23931819.45647 -18639730.11545  21832310.9844                   21832309.7974
  -1138644.16446   -872999.96043  24093975.5394                   24093976.8204
 11  9 28  0 38 30.0000000  0 10G25G29G12G02G15G05G30G21G26G18
 -35197168.75147 -27414041.20245  22434201.2274                   22434203.8714
 -32665857.31148 -25441953.95046  20918051.6254                   20918050.3834
 -42083300.04546 -32780274.68244  23473569.3524                   23473570.0554
 -59045463.77147 -45998215.39845  22714259.9144                   22714257.4694
 -15389393.26947 -11981506.29545  22423792.8204                   22423792.7704
 -47428485.99748 -36946069.85946  21531167.5864                   21531166.3594
 -19457322.19947 -15151446.14644  22850653.9614                   22850654.8014
  -4993330.32546  -3880818.66543  24358001.1484                   24358002.5354
 -24061717.18347 -18740949.04845  21807591.7584                   21807591.2974
  -1291713.81146   -992274.92343  24064847.8134                   24064849.4184
 11  9 28  0 39  0.0000000  0 10G25G29G12G02G15G05G30G21G26G18
 -35202018.79347 -27417820.50645  22433278.0944                   22433280.9184
 -32791229.42648 -25539646.46146  20894194.1024                   20894193.0984
 -42058296.88646 -32760791.78344  23478326.6724                   23478328.3914
 -59063442.80947 -46012225.02844  22710838.7114                   22710836.1604
 -15547202.33447 -12104474.29045  22393762.4694                   22393762.2584
 -47425942.02948 -36944087.53346  21531652.0864                   21531650.9064
 -19499303.63947 -15184158.93144  22842664.6334                   22842666.5944
  -5121020.68946  -3980317.43543  24333702.5634                   24333703.6454
 -24191121.00947 -18841783.11745  21782967.3524                   21782966.0314
  -1444585.51446  -1111395.61143  24035757.2894                   24035757.9144
 11  9 28  0 39 30.0000000  0 10G25G29G12G02G15G05G30G21G26G18
 -35206545.71947 -27421348.01945  22432416.9304                   22432419.7894
 -32916253.19648 -25637067.51946  20870402.8914                   20870401.7344
 -42033243.34946 -32741269.64244  23483093.7194                   23483095.5314
 -59081315.96147 -46026152.13145  22707438.0164                   22707435.0904
 -15704786.96247 -12227267.38545  22363775.2034                   22363775.2734
 -47423150.77648 -36941912.51246  21532183.2664                   21532181.3204
 -19540797.64647 -15216491.91944  22834769.0634                   22834769.8714
  -5248745.21346  -4079842.88043  24309397.2274                   24309397.1454
 -24320028.06647 -18942230.09445  21758436.6024                   21758436.1954
  -1597258.42246  -1230361.31443  24006704.2344                   24006705.2934
 11  9 28  0 40  0.0000000  0 10G25G29G12G02G15G05G30G21G26G18
 -35210752.65047 -27424626.20045  22431615.9224                   22431618.9454
 -33040926.34648 -25734215.37746  20846678.6174                   20846677.7624
 -42008142.80146 -32721710.84044  23487870.9774                   23487872.1604
 -59099082.87847 -46039996.46845  22704057.1564                   22704054.3794
 -15862144.08547 -12349883.21945  22333830.8594                   22333830.9804
 -47420114.60048 -36939546.63646  21532760.7734                   21532759.0634
 -19581806.28647 -15248446.68744  22826965.6334                   22826966.2544
  -5376505.55446  -4179396.25243  24285083.9304                   24285085.9344
 -24448435.34547 -19042287.63545  21734001.9534                   21734000.9534
  -1749731.50946  -1349171.39243  23977688.7584                   23977690.5594
 11  9 28  0 40 30.0000000  0 10G25G29G12G02G15G05G30G21G26G18
 -35214643.32947 -27427657.94645  22430875.7344                   22430878.9844
 -33165247.50548 -25831088.95846  20823020.7504                   20823019.8794
 -41982998.82346 -32702118.22344  23492655.6724                   23492657.0234
 -59116743.77247 -46053758.20145  22700695.8674                   22700693.4534
 -16019271.00547 -12472319.66845  22303931.0944                   22303930.9884
 -47416837.11148 -36936992.73046  21533384.5004                   21533383.0004
 -19622332.50047 -15280025.55945  22819253.6884                   22819254.5984
  -5504302.32146  -4278978.03744  24260765.8284                   24260767.2344
 -24576340.34147 -19141953.79145  21709662.4224                   21709661.3284
  -1902004.62846  -1467825.57343  23948712.2734                   23948713.5634
 11  9 28  0 41  0.0000000  0 10G25G29G12G02G15G05G30G21G26G18
 -35218220.20647 -27430445.15645  22430195.3364                   22430198.2304
 -33289213.64948 -25927685.90246  20799430.7814                   20799430.0634
 -41957814.12846 -32682493.84944  23497448.6564                   23497449.7704
 -59134298.09547 -46067436.88645  22697355.5394                   22697352.8284
 -16176164.29047 -12594574.06645  22274074.7034                   22274074.5274
 -47413319.99648 -36934252.10246  21534053.4694                   21534051.8754
 -19662377.80547 -15311229.70144  22811632.9224                   22811634.1024
  -5632135.31846  -4378588.02944  24236440.0234                   24236441.4494
 -24703739.75747 -19241225.98545  21685419.5634                   21685418.1414
  -2054076.25846  -1586322.72443  23919774.1724                   23919775.5514
 11  9 28  0 41 30.0000000  0 10G25G29G12G02G15G05G30G21G26G18
 -35221486.30947 -27432990.23045  22429573.9694                   22429575.7584
 -33412822.64048 -26024004.54646  20775908.5164                   20775907.4184
 -41932591.48746 -32662839.92344  23502248.1484                   23502249.1094
 -59151745.29247 -46081032.10745  22694035.6094                   22694032.7074
 -16332821.06347 -12716644.16845  22244263.9454                   22244263.3914
 -47409565.70348 -36931326.66946  21534767.7974                   21534766.9924
 -19701944.28847 -15342060.71544  22804103.7584                   22804104.7424
  -5760004.83646  -4478226.42544  24212107.5864                   24212107.8554
 -24830630.46347 -19340101.77845  21661273.0234                   21661271.3754
  -2205945.35446  -1704662.10043  23890874.1644                   23890876.5204
 11  9 28  0 42  0.0000000  0 10G25G29G12G02G15G05G30G21G26G18
 -35224445.20447 -27435295.90145  22429011.3364                   22429013.7464
 -33536072.72548 -26120043.51646  20752455.1804                   20752453.8324
 -41907334.67746 -32643159.38944  23507054.1094                   23507055.6214
 -59169085.59547 -46094544.02145  22690735.7424                   22690732.8634
 -16489238.21747 -12838527.56545  22214498.5314                   22214498.4614
 -47405577.44748 -36928218.91546  21535526.7504                   21535525.2344
 -19741034.75847 -15372520.83344  22796664.9534                   22796666.1994
  -5887912.47146  -4577894.59544  24187767.3674                   24187767.8094
 -24957009.86847 -19438579.15545  21637223.2504                   21637222.1914
  -2357611.63346  -1822843.42143  23862012.9304                   23862014.5554
 11  9 28  0 42 30.0000000  0 10G25G29G12G02G15G05G30G21G26G18
 -35227103.69447 -27437367.48245  22428505.0634                   22428507.4774
 -33658965.35648 -26215803.95846  20729069.2274                   20729067.9494
 -41882050.45547 -32623457.47944  23511865.8444                   23511867.3204
 -59186322.30647 -46107975.22244  22687455.9304                   22687453.4184
 -16645417.24447 -12960225.42745  22184778.6174                   22184778.4844
 -47401361.26148 -36924933.56846  21536329.1094                   21536327.6214
 -19779655.07247 -15402614.59644  22789316.0784                   22789316.8914
  -6015861.51946  -4677594.97843  24163418.9844                   24163419.8284
 -25082878.94847 -19536658.88345  21613271.3134                   21613270.4774
  -2509077.67946  -1940868.67843  23833189.8834                   23833190.9804
 11  9 28  0 43  0.0000000  0 10G25G29G12G02G15G05G30G21G26G18
 -35229460.39847 -27439203.92145  22428056.7344                   22428059.3714
 -33781494.24448 -26311280.95746  20705752.4924                   20705751.5824
 -41856737.20947 -32603732.95444  23516683.4614                   23516683.9184
 -59203450.78847 -46121322.09545  22684195.9694                   22684193.8754
 -16801350.41047 -13081731.68245  22155105.2034                   22155105.0634
 -47396915.11448 -36921469.00946  21537175.3284                   21537174.0434
 -19817803.00247 -15432340.26644  22782056.7034                   22782057.5704
  -6143848.22147  -4777324.73944  24139063.8914                   24139065.1764
 -25208230.39347 -19634335.25245  21589417.4774                   21589416.1294
  -2660338.38546  -2058733.99743  23804405.4064                   23804407.0634
 11  9 28  0 43 30.0000000  0 10G25G29G12G02G15G05G30G21G26G18
 -35231520.65147 -27440809.36145  22427664.2814                   22427667.3794
 -33903659.15548 -26406474.32847  20682505.5234                   20682504.7274
 -41831400.13347 -32583989.84544  23521504.4384                   23521506.0984
 -59220472.90147 -46134586.07645  22680957.3284                   22680954.6054
 -16957036.81947 -13203045.66745  22125479.1724                   22125478.7584
 -47392243.84948 -36917829.05746  21538064.0944                   21538062.8484
 -19855483.05647 -15461701.38944  22774886.8594                   22774887.6094
  -6271875.30546  -4877085.97844  24114700.9144                   24114702.0234
 -25333063.31047 -19731607.58145  21565662.5634                   21565661.0044
  -2811395.18046  -2176440.39443  23775660.0704                   23775661.4494
 11  9 28  0 44  0.0000000  0 10G25G29G12G02G15G05G30G21G26G18
 -35233289.72047 -27442187.88745  22427328.1884                   22427330.7854
 -34025460.08348 -26501384.07446  20659327.3674                   20659326.2304
 -41806044.75847 -32564232.50344  23526329.4534                   23526330.6994
 -59237390.39347 -46147768.50244  22677737.5234                   22677735.2304
 -17112475.70647 -13324166.79745  22095900.2344                   22095900.2734
 -47387352.09648 -36914017.28746  21538994.9694                   21538993.2704
 -19892699.63647 -15490701.32944  22767804.6884                   22767805.7464
  -6399945.04446  -4976880.46443  24090330.5234                   24090330.6604
 -25457377.20547 -19828475.47145  21542006.1564                   21542005.2154
  -2962249.35946  -2293988.90143  23746953.8204                   23746955.0554
 11  9 28  0 44 30.0000000  0 10G25G29G12G02G15G05G30G21G26G18
 -33659343.63047 -26215736.44745  22726840.3444                   22726842.6174
 -32571463.76348 -25368399.86446  20936013.6724                   20936012.5274
 -40205248.06846 -31316858.53144  23830950.9384                   23830952.6374
 -57678775.24347 -44933263.17545  22974332.4384                   22974330.4144
 -15692231.82147 -12217483.15045  22366163.6884                   22366163.0044
 -45806815.53548 -35682430.34646  21839761.5164                   21839759.7114
 -18354026.75547 -14291735.46144  23060604.0704                   23060604.7894
  -4952626.73446  -3849099.79044  24365745.6484                   24365745.5234
 -24005737.95047 -18697327.93945  21818243.9304                   21818242.8674
  -1537467.76846  -1183769.31443  24018080.2274                   24018081.9104
 11  9 28  0 45  0.0000000  0 10G25G29G12G02G15G05G30G21G26G18
 -33660528.75347 -26216659.95445  22726614.5944                   22726617.2464
 -32692519.31148 -25462728.80146  20912977.4064                   20912976.0124
 -40179854.22646 -31297071.24244  23835783.2344                   23835784.3674
 -57695471.43047 -44946273.17144  22971155.1094                   22971152.6954
 -15847155.70847 -12338202.97245  22336682.6484                   22336682.1374
 -45801479.38248 -35678272.28246  21840776.5314                   21840775.0274
 -18390312.39047 -14320010.00644  23053699.1334                   23053700.0664
  -5080772.58346  -3948953.56644  24341359.9694                   24341361.0904
 -24128994.25847 -18793371.73145  21794789.0084                   21794788.2894
  -1687902.45246  -1300990.95043  23989452.8984                   23989454.8954
 11  9 28  0 45 30.0000000  0 10G25G29G12G02G15G05G30G21G26G18
 -33661429.01747 -26217361.49245  22726443.3364                   22726445.9694
 -32813201.44948 -25556766.75346  20890012.2734                   20890011.4224
 -40154447.70446 -31277274.04544  23840618.0164                   23840620.2384
 -57712058.98247 -44959198.49445  22967998.6564                   22967995.8164
 -16001820.03947 -12458720.54745  22307250.8284                   22307250.8014
 -45795927.02248 -35673945.75246  21841833.2814                   21841831.5124
 -18426138.49947 -14347926.49044  23046881.9384                   23046882.4104
  -5208959.52447  -4048839.39843  24316967.4534                   24316966.8204
 -24251719.93547 -18889002.05845  21771435.3524                   21771434.3984
  -1838129.28746  -1418050.64843  23960866.0554                   23960868.1094
 11  9 28  0 46  0.0000000  0 10G25G29G12G02G15G05G30G21G26G18
 -33662045.79347 -26217842.14245  22726326.2974                   22726328.3554
 -32933505.97848 -25650510.47446  20867119.0634                   20867118.2504
 -40129030.16746 -31257468.28444  23845454.3364                   23845456.6564
 -57728535.95747 -44972037.66945  22964863.2344                   22964860.2624
 -16156220.13447 -12579032.20445  22277869.5784                   22277869.2854
 -45790159.28748 -35669451.40746  21842930.6484                   21842929.1294
 -18461505.60147 -14375485.29244  23040151.5554                   23040152.2464
  -5337185.99347  -4148755.99743  24292566.3054                   24292566.2664
 -24373910.53247 -18984215.44245  21748183.1094                   21748182.2894
  -1988145.14846  -1534945.89243  23932318.4844                   23932321.0634
 11  9 28  0 46 30.0000000  0 10G25G29G12G02G15G05G30G21G26G18
 -33662382.22147 -26218104.33245  22726262.1174                   22726264.3634
 -33053431.32948 -25743958.73546  20844298.4844                   20844297.2304
 -40103604.76446 -31237656.39844  23850293.1884                   23850294.8244
 -57744902.04147 -44984790.42345  22961748.2814                   22961746.2074
 -16310353.12047 -12699135.71645  22248538.6884                   22248538.8284
 -45784178.54048 -35664791.05846  21844068.6024                   21844066.9224
 -18496416.18047 -14402688.37744  23033508.4384                   23033508.4694
  -5465452.52247  -4248703.82443  24268157.2894                   24268157.6054
 -24495562.98647 -19079009.49745  21725032.9614                   21725032.6334
  -2137949.44646  -1651676.32443  23903811.9384                   23903812.5944
 11  9 28  0 47  0.0000000  0 10G25G29G12G02G15G05G30G21G26G18
 -33662444.99147 -26218153.28145  22726249.8914                   22726252.6994
 -33172978.66347 -25837112.42746  20821549.1644                   20821548.3594
 -40078177.70947 -31217843.16344  23855131.7974                   23855133.7734
 -57761160.59347 -44997459.41344  22958654.3914                   22958651.5204
 -16464219.30547 -12819031.33745  22219258.9694                   22219258.9184
 -45777991.32848 -35659969.84146  21845245.8674                   21845244.3834
 -18530876.09747 -14429540.27444  23026951.1804                   23026952.1564
  -5593763.03047  -4348685.91944  24243740.8834                   24243741.4654
 -24616678.32647 -19173385.00545  21701985.6024                   21701984.9264
  -2287544.76346  -1768243.95643  23875345.1254                   23875346.1414
 11  9 28  0 47 30.0000000  0 10G25G29G12G02G15G05G30G21G26G18
 -33662236.20347 -26217990.63245  22726289.7424                   22726292.7584
 -33292144.64248 -25929968.96846  20798872.6564                   20798871.1484
 -40052751.04247 -31198030.29044  23859970.0084                   23859971.6954
 -57777309.76347 -45010043.14944  22955581.7344                   22955578.7814
 -16617814.96747 -12938716.16245  22190030.5004                   22190030.1524
 -45771598.54748 -35654988.44346  21846462.5864                   21846460.9884
 -18564886.76347 -14456042.12944  23020478.5394                   23020479.9384
  -5722117.02747  -4448701.97444  24219316.4534                   24219315.8364
 -24737253.01347 -19267339.26045  21679041.2734                   21679040.5234
  -2436929.36046  -1884647.39043  23846916.6174                   23846918.9264
 11  9 28  0 48  0.0000000  0 10G25G29G12G02G15G05G30G21G26G18
 -33661760.70247 -26217620.14845  22726380.2664                   22726383.0554
 -33410928.67148 -26022527.89247  20776268.0784                   20776267.0274
 -40027329.54846 -31178221.45244  23864807.4924                   23864809.9614
 -57793351.03947 -45022542.82744  22952528.9844                   22952526.2664
 -16771138.58847 -13058189.02945  22160853.8984                   22160853.5554
 -45765004.49148 -35649850.20046  21847717.6094                   21847715.8874
 -18598452.28147 -14482197.08844  23014091.3054                   23014092.5234
  -5850516.56247  -4548753.43243  24194882.4144                   24194882.0594
 -24857285.84648 -19360871.26245  21656199.2734                   21656198.7854
  -2586104.28846  -2000887.39243  23818529.9614                   23818531.3134
 11  9 28  0 48 30.0000000  0 10G25G29G12G02G15G05G30G21G26G18
 -33661018.52647 -26217041.89145  22726521.2034                   22726524.8484
 -33529325.77748 -26114785.31846  20753738.1724                   20753737.0704
 -40001912.84546 -31158416.33344  23869645.0704                   23869646.2074
 -57809281.23747 -45034955.96044  22949497.7894                   22949494.1914
 -16924184.05247 -13177445.13945  22131730.2504                   22131729.2194
 -45758208.46948 -35644554.57946  21849010.6724                   21849009.3484
 -18631571.85847 -14508004.55644  23007789.7034                   23007789.9614
  -5978958.55747  -4648837.95743  24170440.0944                   24170440.2774
 -24976770.88148 -19453976.41845  21633462.1174                   21633461.0314
  -2735065.21646  -2116960.68543  23790184.2274                   23790185.5984
 11  9 28  0 49  0.0000000  0 10G25G29G12G02G15G05G30G21G26G18
 -33660013.52547 -26216258.79245  22726712.6414                   22726715.6054
 -33647335.02148 -26206740.50946  20731281.6414                   20731280.5904
 -39976504.94646 -31138618.06144  23874480.2664                   23874480.9344
 -57825100.57847 -45047282.69345  22946487.2664                   22946485.0044
 -17076949.42847 -13296482.98745  22102660.3674                   22102659.3134
 -45751213.77448 -35639104.16146  21850341.8204                   21850340.6024
 -18664248.75247 -14533467.07344  23001571.3284                   23001571.6294
  -6107444.06247  -4748956.42244  24145990.5634                   24145990.8524
 -25095706.11647 -19546653.16945  21610829.2424                   21610828.3014
  -2883812.39846  -2232867.39943  23761878.1024                   23761879.7544
 11  9 28  0 49 30.0000000  0 10G25G29G12G02G15G05G30G21G26G18
 -33658749.56247 -26215273.93045  22726953.6564                   22726956.5124
 -33764954.37148 -26298391.91346  20708899.1414                   20708898.5124
 -39951109.39747 -31118829.41144  23879312.9454                   23879314.1684
 -57840809.36647 -45059523.28745  22943497.5234                   22943495.7344
 -17229432.13147 -13415300.59045  22073643.5784                   22073642.6134
 -45744023.20048 -35633501.10346  21851709.6414                   21851708.6214
 -18696486.04147 -14558587.07044  22995436.4844                   22995437.4654
  -6235974.03847  -4849109.52644  24121531.8444                   24121532.1024
 -25214089.77947 -19638900.10545  21588302.1564                   21588300.9384
  -3032345.80646  -2348607.61843  23733613.4844                   23733613.8874
 11  9 28  0 50  0.0000000  0 10G25G29G12G02G15G05G30G21G26G18
 -33657231.87747 -26214091.34245  22727242.2664                   22727245.4494
 -33882183.69148 -26389739.38546  20686591.4924                   20686590.2854
 -39925731.22947 -31099054.30444  23884142.4774                   23884143.5044
 -57856409.40347 -45071679.14745  22940529.5634                   22940526.8244
 -17381631.52647 -13533897.42745  22044681.0784                   22044680.1094
 -45736641.70948 -35627749.28246  21853114.9924                   21853113.1524
 -18728288.37847 -14583368.08044  22989384.6564                   22989385.9654
  -6364551.34447  -4949299.52344  24097064.2814                   24097064.8094
 -25331921.30747 -19730716.82345  21565879.1644                   21565878.0634
  -3180666.23846  -2464181.81143  23705388.9064                   23705390.2664
 11  9 28  0 50 30.0000000  0 10G25G29G12G02G15G05G30G21G26G18
 -33655459.90147 -26212710.62045  22727579.1094                   22727582.8164
 -33999017.14948 -26480778.40146  20664358.8914                   20664357.2234
 -39900369.69047 -31079292.15844  23888968.5554                   23888969.2854
 -57871896.56447 -45083747.06745  22937581.6884                   22937579.4064
 -17533540.88648 -13652268.24845  22015773.5164                   22015772.8204
 -45729067.76248 -35621847.50046  21854556.1254                   21854554.6024
 -18759654.55247 -14607809.26144  22983415.2344                   22983415.9804
  -6493172.34147  -5049523.58144  24072589.5084                   24072589.3794
 -25449194.39847 -19822098.39345  21543562.4304                   21543561.1724
  -3328769.54046  -2579586.79043  23677205.8284                   23677205.8244
 11  9 28  0 51  0.0000000  0 10G25G29G12G02G15G05G30G21G26G18
 -33653436.01947 -26211133.59845  22727964.4614                   22727967.2464
 -34115452.18848 -26571506.96847  20642202.2034                   20642200.8714
 -39875026.78647 -31059544.51943  23893790.7894                   23893791.7584
 -57887269.74347 -45095726.16844  22934657.0314                   22934654.2814
 -17685156.05747 -13770409.84646  21986921.3914                   21986920.8284
 -45721302.67348 -35615796.78246  21856033.9064                   21856032.0354
 -18790586.18247 -14631911.84144  22977529.4454                   22977530.7544
  -6621836.29846  -5149781.04944  24048104.1804                   24048104.5004
 -25565905.37847 -19913041.94845  21521353.5784                   21521352.4144
  -3476654.20546  -2694821.48143  23649064.0704                   23649064.9614
 11  9 28  0 51 30.0000000  0 10G25G29G12G02G15G05G30G21G26G18
 -33651165.97447 -26209364.74345  22728396.5004                   22728399.4964
 -34231489.33748 -26661925.48347  20620120.2504                   20620119.7504
 -39849708.11347 -31039815.76943  23898609.0704                   23898609.9384
 -57902531.33947 -45107618.31644  22931752.4304                   22931749.5904
 -17836477.25847 -13888322.36546  21958125.7974                   21958125.6484
 -45713352.00448 -35609601.44746  21857545.9534                   21857545.1994
 -18821088.41547 -14655679.78544  22971725.4694                   22971726.2664
  -6750546.33646  -5250074.40544  24023611.1334                   24023611.1764
 -25682054.65947 -20003547.79945  21499250.3914                   21499249.1174
  -3624322.21146  -2809887.29344  23620963.7424                   23620964.6844
 11  9 28  0 52  0.0000000  0 10G25G29G12G02G15G05G30G21G26G18
 -33648652.75647 -26207406.41945  22728875.0554                   22728877.9774
 -34347126.30148 -26752032.17646  20598115.5394                   20598113.8834
 -39824416.17647 -31020107.87343  23903422.1414                   23903423.1724
 -57917680.54947 -45119422.91544  22928869.5084                   22928867.1174
 -17987501.00547 -14006003.10646  21929386.9224                   21929387.1334
 -45705217.49048 -35603262.85346  21859094.5864                   21859092.9804
 -18851163.58547 -14679114.99944  22966002.2664                   22966003.2384
  -6879302.59946  -5350403.76943  23999110.1414                   23999110.2074
 -25797639.41247 -20093613.77545  21477255.2034                   21477254.5904
  -3771772.66047  -2924783.61443  23592904.8674                   23592905.5554
 11  9 28  0 52 30.0000000  0 10G25G29G12G02G15G05G30G21G26G18
 -33645896.38147 -26205258.62645  22729399.2034                   22729402.3874
 -34462357.73048 -26841822.87846  20576187.7274                   20576186.7464
 -39799151.33547 -31000421.05943  23908230.6254                   23908230.9414
 -57932714.00347 -45131137.30244  22926008.7584                   22926006.1414
 -18138221.36847 -14123447.44945  21900706.3914                   21900705.3554
 -45696898.73548 -35596780.71146  21860677.6724                   21860676.2544
 -18880811.15447 -14702216.97644  22960360.3594                   22960361.5354
  -7008102.28446  -5450767.02943  23974599.6884                   23974600.1214
 -25912653.62448 -20183235.16745  21455368.8914                   21455367.8324
  -3919001.66147  -3039507.32243  23564888.2344                   23564888.3984
 11  9 28  0 53  0.0000000  0 10G25G29G12G02G15G05G30G21G26G18
 -33642901.98647 -26202925.35145  22729969.6484                   22729972.3094
 -34577183.55448 -26931297.50046  20554337.5234                   20554336.0354
 -39773918.41746 -30980759.12443  23913031.5554                   23913033.4964
 -57947633.29347 -45142762.69544  22923169.3134                   22923166.3554
 -18288637.53947 -14240654.74345  21872083.0944                   21872082.2854
 -45688399.89748 -35590158.23346  21862295.2114                   21862293.5314
 -18910035.65847 -14724989.31344  22954798.9924                   22954800.4304
  -7136947.69446  -5551165.84943  23950081.3834                   23950081.1254
 -26027097.16748 -20272411.88845  21433590.8834                   21433590.0234
  -4066010.12147  -3154059.23743  23536911.9534                   23536913.0234
 11  9 28  0 53 30.0000000  0 10G25G29G12G02G15G05G30G21G26G18
 -33639670.66847 -26200407.44245  22730584.0234                   22730587.5204
 -34691599.66548 -27020452.88546  20532564.4774                   20532562.8554
 -39748717.49747 -30961122.12444  23917827.0784                   23917828.5314
 -57962435.97247 -45154297.25444  22920352.8914                   22920349.8204
 -18438744.17047 -14357620.85346  21843518.0704                   21843517.5004
 -45679721.23748 -35583395.63546  21863945.9924                   21863945.6174
 -18938837.52647 -14747432.32644  22949318.5554                   22949319.6374
  -7265836.81247  -5651598.80243  23925554.4064                   23925553.7584
 -26140965.37648 -20361140.30645  21411922.3204                   21411921.3524
  -4212795.57747  -3268437.32843  23508980.3674                   23508980.6254
 11  9 28  0 54  0.0000000  0 10G25G29G12G02G15G05G30G21G26G18
 -33636206.07847 -26197707.78145  22731243.0314                   22731246.2774
 -34805604.56748 -27109287.83047  20510870.3204                   20510868.8984
 -39723552.60246 -30941513.21044  23922615.8834                   23922617.3794
 -57977122.10747 -45165740.98944  22917558.7504                   22917555.7464
 -18588538.83647 -14474343.87746  21815013.3914                   21815012.9414
 -45670865.87947 -35576495.35746  21865631.6724                   21865629.7854
 -18967219.83347 -14769548.38445  22943916.7274                   22943919.1214
  -7394770.41347  -5752066.32643  23901019.2584                   23901018.2934
 -26254256.01347 -20449418.63445  21390364.1174                   21390363.2424
  -4359357.70647  -3382641.48043  23481090.1024                   23481091.1914
 11  9 28  0 54 30.0000000  0 10G25G29G12G02G15G05G30G21G26G18
 -33632509.68247 -26194827.48445  22731946.8054                   22731949.9964
 -34919194.26348 -27197799.23747  20489254.7194                   20489253.3714
 -39698424.71446 -30921933.11843  23927397.1644                   23927399.5474
 -57991689.89347 -45177092.50844  22914786.3754                   22914783.2624
 -18738016.96548 -14590820.23845  21786568.3984                   21786567.9144
 -45661834.07847 -35569457.57846  21867349.7114                   21867349.0474
 -18995183.54347 -14791338.28945  22938596.1884                   22938597.5864
  -7523746.83046  -5852567.26644  23876475.6174                   23876475.4574
 -26366965.20747 -20537243.90345  21368916.2974                   21368915.5044
  -4505694.14247  -3496669.74244  23453243.0004                   23453243.8524
 11  9 28  0 55  0.0000000  0 10G25G29G12G02G15G05G30G21G26G18
 -33628587.25347 -26191771.04945  22732693.3754                   22732696.5944
 -35032369.42948 -27285987.63547  20467717.9304                   20467716.5944
 -39673338.86346 -30902385.76943  23932170.1024                   23932173.9184
 -58006141.26847 -45188353.32044  22912036.5084                   22912033.1254
 -18887178.41848 -14707049.84846  21758184.0394                   21758183.2734
 -45652631.02448 -35562286.37246  21869101.3444                   21869100.1254
 -19022733.82446 -14812806.03644  22933353.6174                   22933354.4454
  -7652769.19547  -5953103.98944  23851922.7584                   23851923.2774
 -26479093.05047 -20624616.18545  21347578.9144                   21347578.0944
  -4651806.69447  -3610523.56144  23425438.9534                   23425439.7464
 11  9 28  0 55 30.0000000  0 10G25G29G12G02G15G05G30G21G26G18
 -33624443.48647 -26188542.15845  22733481.9064                   22733485.0514
 -35145129.63348 -27373852.68247  20446260.5704                   20446259.0704
 -39648300.01346 -30882875.05544  23936936.0784                   23936938.5004
 -58020477.39947 -45199524.33944  22909308.4534                   22909304.7304
 -19036021.59947 -14823031.45745  21729860.2034                   21729858.7704
 -45643260.67447 -35554984.80046  21870884.2974                   21870883.4344
 -19049874.75547 -14833954.81445  22928188.6334                   22928189.9184
  -7781839.46547  -6053678.07143  23827362.2114                   23827361.1684
 -26590638.87447 -20711534.94945  21326352.1564                   21326351.1524
  -4797696.21247  -3724203.55543  23397677.2274                   23397677.3014
 11  9 28  0 56  0.0000000  0 10G25G29G12G02G15G05G30G21G26G18
 -32044662.92547 -24957544.34745  23034103.5004                   23034106.8794
 -33682050.14047 -26233790.69647  20724675.4224                   20724673.6054
 -38047893.17047 -29635804.84244  24241483.7274                   24241485.5004
 -56459278.80247 -43983005.93744  23206394.9454                   23206391.2114
 -17609119.81547 -13711159.85145  22001390.4694                   22001389.4964
 -44058306.63547 -34319955.67246  22172491.5784                   22172489.8094
 -17501189.42947 -13627187.04044  23222894.3204                   23222894.9344
  -6335534.71947  -4926687.19544  24102584.0864                   24102584.5554
 -25126177.55047 -19570396.18346  21605030.0394                   21605028.7544
  -3367938.61346  -2610106.58244  23669750.4614                   23669751.2854
 11  9 28  0 56 30.0000000  0 10G25G29G12G02G15G05G30G21G26G18
 -32040088.98247 -24953980.28545  23034974.2114                   23034977.2344
 -33793976.99548 -26321006.39147  20703376.2034                   20703374.7934
 -38022959.89546 -29616376.39244  24246228.1724                   24246230.1214
 -56473386.82047 -43993999.20644  23203710.0234                   23203707.3754
 -17757320.85548 -13826641.07646  21973188.0084                   21973187.0004
 -44048611.36847 -34312400.90946  22174336.0704                   22174333.8634
 -17527522.74347 -13647706.53344  23217883.1414                   23217883.3554
  -6464703.99447  -5027338.40044  24078003.8134                   24078003.6844
 -25236554.64048 -19656404.24745  21584025.8134                   21584025.2034
  -3513383.10447  -2723439.83444  23642073.8134                   23642074.2154
 11  9 28  0 57  0.0000000  0 10G25G29G12G02G15G05G30G21G26G18
 -32035303.17647 -24950251.10245  23035885.0234                   23035888.4304
 -33905482.80348 -26407893.99547  20682157.4694                   20682155.7274
 -37998081.85547 -29596990.97344  24250962.9534                   24250964.8674
 -56487378.28447 -44004901.62544  23201048.0704                   23201044.2274
 -17905194.85047 -13941867.46945  21945048.9614                   21945047.8324
 -44038755.50147 -34304720.99646  22176211.9454                   22176210.2274
 -17553454.64447 -13667913.20144  23212948.0634                   23212949.6454
  -6593921.51546  -5128027.21344  24053414.9144                   24053414.8204
 -25346342.39048 -19741953.09346  21563134.0944                   21563132.8554
  -3658602.70947  -2836597.81244  23614439.3674                   23614440.0744
 11  9 28  0 57 30.0000000  0 10G25G29G12G02G15G05G30G21G26G18
 -32030308.46847 -24946359.14345  23036835.6884                   23036838.5234
 -34016565.36948 -26494451.79146  20661018.8284                   20661017.4494
 -37973261.59547 -29577650.60244  24255685.8444                   24255688.1294
 -56501252.77747 -44015712.91244  23198407.0634                   23198404.3914
 -18052738.50848 -14056836.47146  21916972.1884                   21916971.0274
 -44028741.24347 -34296917.67346  22178117.2194                   22178115.8324
 -17578987.69347 -13687809.10744  23208089.3204                   23208091.1024
  -6723187.45247  -5228753.75844  24028816.2894                   24028815.8204
 -25455538.36547 -19827040.80646  21542354.7664                   21542353.8554
  -3803596.56947  -2949579.89544  23586847.3754                   23586847.8594
 11  9 28  0 58  0.0000000  0 10G25G29G12G02G15G05G30G21G26G18
 -32025107.37247 -24942306.38545  23037825.4384                   23037827.9184
 -34127221.79048 -26580677.52747  20639961.7194                   20639960.0554
 -37948501.38247 -29558356.99344  24260397.4384                   24260399.5784
 -56515009.27847 -44026432.24645  23195789.4694                   23195787.4344
 -18199948.72547 -14171545.63546  21888958.9064                   21888958.1564
 -44018569.73847 -34288991.82446  22180052.7974                   22180051.5704
 -17604123.81047 -13707395.72644  23203305.7504                   23203306.9024
  -6852501.18647  -5329517.56344  24004207.8134                   24004208.2344
 -25564139.60048 -19911665.07645  21521688.5474                   21521687.3404
  -3948363.11447  -3062384.84743  23559299.0864                   23559299.6564
 11  9 28  0 58 30.0000000  0 10G25G29G12G02G15G05G30G21G26G18
 -32019701.44747 -24938094.01145  23038854.4144                   23038856.8134
 -34237448.59848 -26666568.50847  20618986.2814                   20618984.5234
 -37923802.37747 -29539111.12644  24265097.8754                   24265099.7774
 -56528645.93547 -44037058.22345  23193194.3984                   23193191.5704
 -18346820.71848 -14285991.25346  21861010.1644                   21861009.5664
 -44008242.51047 -34280944.63745  22182018.1254                   22182016.9414
 -17628864.15847 -13726673.95344  23198597.8204                   23198598.5744
  -6981861.44547  -5430317.61944  23979592.0004                   23979590.7344
 -25672142.17447 -19995822.87445  21501136.3754                   21501135.3364
  -4092900.32547  -3175011.10944  23531794.3444                   23531794.8204
 11  9 28  0 59  0.0000000  0 10G25G29G12G02G15G05G30G21G26G18
 -32014097.86547 -24933727.61345  23039920.8284                   23039923.6294
 -34347247.70048 -26752126.21047  20598092.0084                   20598090.7584
 -37899171.41247 -29519918.23144  24269784.7424                   24269786.4614
 -56542166.30447 -44047593.59345  23190622.0554                   23190619.2464
 -18493355.53347 -14400174.14946  21833125.5784                   21833124.2234
 -43997765.45447 -34272780.69046  22184011.6094                   22184010.3324
 -17653215.34147 -13745648.93244  23193964.1254                   23193965.6374
  -7111272.02047  -5531156.90544  23954965.8524                   23954965.4494
 -25779547.80747 -20079515.51746  21480697.6644                   21480696.6174
  -4237211.51147  -3287461.25444  23504332.9144                   23504333.5044
 11  9 28  0 59 30.0000000  0 10G25G29G12G02G15G05G30G21G26G18
 -32008296.01247 -24929206.72645  23041024.7344                   23041027.4414
 -34456613.58548 -26837346.32047  20577280.5314                   20577279.0124
 -37874607.77647 -29500777.78744  24274458.9454                   24274460.8244
 -56555566.12547 -44058035.00644  23188071.2814                   23188069.5474
 -18639546.68548 -14514089.23946  21805306.0234                   21805305.1024
 -43987137.11647 -34264498.87645  22186033.8284                   22186032.4454
 -17677176.37547 -13764319.88844  23189404.3674                   23189405.9184
  -7240729.62147  -5632032.81944  23930330.7894                   23930330.2544
 -25886350.69748 -20162738.49746  21460373.8444                   21460372.6684
  -4381292.15247  -3399731.70844  23476915.0634                   23476916.0234
 11  9 28  1  0  0.0000000  0 10G25G29G12G02G15G05G30G21G26G18
 -32002299.41647 -24924534.09045  23042165.8754                   23042168.3244
 -34565544.40748 -26922227.43747  20556551.3914                   20556549.6684
 -37850114.34247 -29481692.03544  24279119.8754                   24279122.0944
 -56568845.37847 -44068382.50344  23185545.1484                   23185542.4804
 -18785391.59648 -14627734.52946  21777553.0394                   21777551.4734
 -43976359.95147 -34256101.07945  22188085.2114                   22188083.9884
 -17700750.30547 -13782689.20044  23184918.2194                   23184920.0314
  -7370234.46247  -5732945.54844  23905686.2814                   23905685.8834
 -25992548.80448 -20245490.21546  21440164.7734                   21440164.2034
  -4525141.92847  -3511822.25944  23449541.3984                   23449542.1484
 11  9 28  1  0 30.0000000  0 10G25G29G12G02G15G05G30G21G26G18
 -31996112.07847 -24919712.82945  23043343.3524                   23043346.1254
 -34674039.13248 -27006768.74547  20535905.8054                   20535904.5944
 -37825694.69447 -29462663.80143  24283767.1094                   24283769.3914
 -56582004.75747 -44078636.57144  23183040.4064                   23183038.1994
 -18930888.20148 -14741108.42446  21749865.2424                   21749864.4454
 -43965437.16047 -34247589.82945  22190163.5234                   22190162.3284
 -17723940.77846 -13800759.74044  23180505.5474                   23180506.5824
  -7499788.04747  -5833896.22844  23881033.3914                   23881032.5274
 -26098140.85748 -20327769.69345  21420070.9924                   21420070.0744
  -4668761.26347  -3623733.26344  23422211.6174                   23422211.4264
 11  9 28  1  1  0.0000000  0 10G25G29G12G02G15G05G30G21G26G18
 -31989737.12547 -24914745.38045  23044556.6954                   23044559.6134
 -34782095.76948 -27090968.66947  20515343.4454                   20515341.8054
 -37801351.49547 -29443695.10243  24288399.8134                   24288400.6524
 -56595043.55746 -44088796.66344  23180559.1804                   23180557.1094
 -19076033.84947 -14854208.84646  21722245.1174                   21722243.9344
 -43954370.86047 -34238966.74245  22192269.7974                   22192268.2854
 -17746750.41746 -13818533.51244  23176165.3834                   23176166.2734
  -7629390.20447  -5934884.84544  23856370.8524                   23856370.1134
 -26203124.79048 -20409575.29546  21400093.3674                   21400092.6054
  -4812149.39847  -3735464.11944  23394925.2734                   23394925.7344
 11  9 28  1  1 30.0000000  0 10G25G29G12G02G15G05G30G21G26G18
 -31983176.57747 -24909633.29945  23045805.2584                   23045807.4964
 -34889711.55548 -27174825.09047  20494864.7114                   20494863.3364
 -37777086.43346 -29424787.29043  24293016.5554                   24293018.3674
 -56607960.47747 -44098861.83444  23178101.7034                   23178099.3204
 -19220824.34448 -14967032.52446  21694692.0474                   21694691.1644
 -43943162.09147 -34230232.62045  22194403.0634                   22194401.4694
 -17769180.89546 -13836011.81744  23171896.4224                   23171897.7074
  -7759039.90247  -6035910.46744  23831699.5784                   23831697.9414
 -26307497.24348 -20490904.41946  21380232.3524                   21380231.2774
  -4955304.50847  -3847013.35544  23367683.7114                   23367683.6724
 11  9 28  1  2  0.0000000  0 10G25G29G12G02G15G05G30G21G26G18
 -31976433.78647 -24904379.22245  23047088.1024                   23047091.0354
 -34996884.24548 -27258336.23947  20474470.1334                   20474468.8014
 -37752902.35146 -29405942.63443  24297618.7894                   24297621.0314
 -56620755.20846 -44108831.78444  23175666.3284                   23175663.5514
 -19365256.96047 -15079577.33446  21667207.6484                   21667206.0784
 -43931813.32747 -34221389.43445  22196561.9384                   22196560.9224
 -17791235.15846 -13853197.00944  23167699.9064                   23167701.4494
  -7888737.52647  -6136973.43444  23807018.8674                   23807017.5984
 -26411256.37148 -20571755.63246  21360486.9384                   21360486.1954
  -5098226.61246  -3958381.05144  23340486.9224                   23340486.6094
 11  9 28  1  2 30.0000000  0 10G25G29G12G02G15G05G30G21G26G18
 -31969511.99347 -24898985.65545  23048405.0004                   23048408.4224
 -35103612.36448 -27341500.96547  20454160.6724                   20454159.4224
 -37728802.20346 -29387163.33043  24302204.4924                   24302207.1804
 -56633427.25746 -44118706.10144  23173255.1334                   23173252.6484
 -19509329.10047 -15191841.26246  21639791.9064                   21639790.4534
 -43920326.95647 -34212438.99545  22198748.3834                   22198746.8914
 -17812915.99746 -13870091.18744  23163573.7584                   23163576.2934
  -8018483.13047  -6238073.78744  23782329.2034                   23782328.3134
 -26514400.20148 -20652127.41145  21340859.5394                   21340858.1174
  -5240914.99547  -4069566.60044  23313333.2114                   23313333.8404
 11  9 28  1  3  0.0000000  0 10G25G29G12G02G15G05G30G21G26G18
 -31962416.20247 -24893456.50845  23049755.5554                   23049758.8554
 -35209895.77448 -27424319.17447  20433935.5314                   20433934.0784
 -37704790.45246 -29368453.00543  24306774.3204                   24306776.3874
 -56645978.22047 -44128486.09444  23170866.6954                   23170863.5824
 -19653039.60547 -15303823.40146  21612444.4064                   21612443.1024
 -43908706.84747 -34203384.36245  22200959.4924                   22200957.3914
 -17834228.08247 -13886697.98744  23159519.0784                   23159520.4454
  -8148278.88247  -6339213.22144  23757630.0314                   23757629.4064
 -26616928.41848 -20732019.48046  21321349.0864                   21321347.6954
  -5383370.57447  -4180570.76544  23286225.1254                   23286224.8444
 11  9 28  1  3 30.0000000  0 10G25G29G12G02G15G05G30G21G26G18
 -31955148.82347 -24887793.66245  23051138.9844                   23051141.6484
 -35315731.80448 -27506788.76647  20413795.8594                   20413794.2664
 -37680868.97746 -29349812.96343  24311326.0474                   24311328.6884
 -56658407.01047 -44138170.89444  23168501.8204                   23168499.0124
 -19796385.04348 -15415521.05746  21585166.4304                   21585164.9964
 -43896954.48847 -34194226.68145  22203195.7274                   22203194.1524
 -17855173.49747 -13903019.12844  23155533.3364                   23155534.3014
  -8278123.63647  -6440390.85144  23732920.6564                   23732919.2384
 -26718838.29347 -20811429.72745  21301956.1954                   21301954.8204
  -5525592.46747  -4291392.85044  23259160.6954                   23259160.1174
 11  9 28  1  4  0.0000000  0 10G25G29G12G02G15G05G30G21G26G18
 -31947714.71447 -24882000.89745  23052553.5474                   23052556.2504
 -35421120.20748 -27588909.56847  20393740.7344                   20393739.2934
 -37657042.34547 -29331246.81044  24315861.7664                   24315863.2344
 -56670714.92646 -44147761.47044  23166160.3284                   23166156.9264
 -19939364.29048 -15526933.37546  21557958.3524                   21557956.8794
 -43885074.23947 -34184969.32046  22205456.1484                   22205454.4804
 -17875756.66147 -13919057.96244  23151615.6724                   23151617.6334
  -8408019.83246  -6541608.52944  23708202.5314                   23708201.2664
 -26820129.70147 -20890358.05546  21282681.2894                   21282679.5434
  -5667581.82447  -4402033.69144  23232141.1414                   23232140.4654
 11  9 28  1  4 30.0000000  0 10G25G29G12G02G15G05G30G21G26G18
 -31940114.77147 -24876078.88345  23053999.5944                   23054002.5084
 -35526056.89548 -27670678.38047  20373771.8984                   20373770.3164
 -37633310.65947 -29312754.62043  24320376.6804                   24320379.0044
 -56682899.42247 -44157255.88544  23163840.6564                   23163837.5634
 -20081972.33248 -15638056.44446  21530820.7034                   21530819.4024
 -43873065.38047 -34175611.75745  22207741.1884                   22207739.9454
 -17895978.26147 -13934815.04844  23147768.3204                   23147769.1294
  -8537965.00647  -6642864.40544  23683474.0634                   23683473.8874
 -26920798.39247 -20968801.14945  21263524.3054                   21263523.0944
  -5809335.44947  -4512490.87144  23205165.9694                   23205165.8874
 11  9 28  1  5  0.0000000  0 10G25G29G12G02G15G05G30G21G26G18
 -31932351.22647 -24870029.40545  23055477.1414                   23055479.9024
 -35630538.74348 -27752092.77647  20353889.7114                   20353888.1564
 -37609675.96946 -29294338.03744  24324874.5084                   24324876.4694
 -56694958.89847 -44166652.89944  23161546.5704                   23161542.9224
 -20224205.43948 -15748887.36046  21503755.0164                   21503753.4844
 -43860929.28347 -34166155.03545  22210051.1094                   22210049.5984
 -17915840.09847 -13950291.80244  23143988.5394                   23143989.6484
  -8667958.01347  -6744157.53744  23658737.1484                   23658736.1334
 -27020841.36947 -21046756.65845  21244486.9384                   21244485.8134
  -5950852.28947  -4622763.53944  23178236.3984                   23178235.8484
 11  9 28  1  5 30.0000000  0 10G25G29G12G02G15G05G30G21G26G18
 -31924428.83347 -24863856.17145  23056984.7274                   23056987.5824
 -35734566.21248 -27833153.10547  20334093.7974                   20334092.2424
 -37586142.52847 -29276000.29344  24329352.8984                   24329354.7034
 -56706894.88546 -44175953.66244  23159275.1484                   23159271.6884
 -20366062.12348 -15859424.96146  21476760.2034                   21476758.9734
 -43848669.79247 -34156602.16245  22212383.6414                   22212382.5314
 -17935346.71647 -13965491.75544  23140276.7894                   23140277.5164
  -8798001.05447  -6845489.68244  23633990.7194                   23633990.0044
 -27120258.41147 -21124224.43745  21225568.7274                   21225566.7704
  -6092133.37147  -4732852.52744  23151351.0554                   23151350.5664
 11  9 28  1  6  0.0000000  0 10G25G29G12G02G15G05G30G21G26G18
 -31916350.59847 -24857561.47345  23058521.5944                   23058524.7624
 -35838136.92848 -27913857.53647  20314385.0474                   20314383.6994
 -37562712.69946 -29257743.33244  24333811.2194                   24333813.5904
 -56718706.72847 -44185157.69944  23157027.1954                   23157023.7974
 -20507539.59848 -15969667.07146  21449838.0394                   21449836.7074
 -43836288.74447 -34146954.57745  22214739.7894                   22214738.0084
 -17954500.71847 -13980416.96744  23136632.3914                   23136632.3134
  -8928093.72846  -6946860.48844  23609235.0164                   23609234.0204
 -27219047.53547 -21201202.94145  21206769.4224                   21206767.8794
  -6233177.82947  -4842757.12744  23124511.3054                   23124511.0234
 11  9 28  1  6 30.0000000  0 10G25G29G12G02G15G05G30G21G26G18
 -31908120.82247 -24851148.70145  23060087.6024                   23060091.2344
 -35941250.24048 -27994205.53547  20294762.9694                   20294761.2734
 -37539390.41146 -29239570.14444  24338249.3284                   24338250.8524
 -56730394.98547 -44194265.40944  23154803.0164                   23154799.5314
 -20648636.54148 -16079612.65746  21422988.1804                   21422986.7734
 -43823789.60947 -34137214.98545  22217118.1724                   22217116.7034
 -17973306.13246 -13995070.50244  23133053.5394                   23133054.4844
  -9058237.05347  -7048270.70744  23584469.4454                   23584468.2584
 -27317207.91947 -21277691.51745  21188090.1884                   21188088.4694
  -6373986.49247  -4952477.94644  23097716.1954                   23097716.1764
 11  9 28  1  7  0.0000000  0 10G25G29G12G02G15G05G30G21G26G18
 -31899743.62447 -24844621.07044  23061682.4454                   23061685.2854
 -36043905.25748 -28074196.43147  20275228.6254                   20275227.1374
 -37516179.35046 -29221483.64243  24342666.1414                   24342667.7814
 -56741960.51546 -44203277.50244  23152602.2424                   23152599.2274
 -20789351.27048 -16189260.44946  21396210.9144                   21396209.6334
 -43811175.51647 -34127385.78745  22219518.6724                   22219516.9184
 -17991766.88247 -14009455.53944  23129540.3204                   23129541.6644
  -9188432.24047  -7149721.43444  23559694.0704                   23559692.9344
 -27414738.93148 -21353689.66745  21169530.5004                   21169529.1764
  -6514559.80247  -5062015.44544  23070965.6094                   23070966.4454
 11  9 28  1  7 30.0000000  0 10G25G29G12G02G15G05G30G21G26G18
 -30315800.45747 -23610379.69645  23363096.2034                   23363099.4104
 -34570674.71348 -26926224.54647  20555575.2584                   20555573.3164
 -35917660.22346 -27975884.35544  24646854.6484                   24646856.3324
 -55177980.41446 -42984591.73344  23450217.7584                   23450214.9024
 -19354253.70948 -15071002.51846  21669300.5864                   21669299.3324
 -42223027.17447 -32889867.60245  22521733.8914                   22521731.6644
 -16434463.16147 -12795972.09244  23425885.4454                   23425886.4104
  -7743253.30046  -6023607.86844  23834702.1954                   23834701.2504
 -25936213.43847 -20201591.83646  21450884.6024                   21450883.0904
  -5079470.66347  -3943764.02044  23344054.4144                   23344053.9494
 11  9 28  1  8  0.0000000  0 10G25G29G12G02G15G05G30G21G26G18
 -30307133.65847 -23603626.36544  23364745.3134                   23364748.8754
 -34672403.80648 -27005493.93247  20536216.5234                   20536214.8594
 -35894674.58346 -27957973.49544  24651228.9924                   24651230.2424
 -55189294.89446 -42993408.23644  23448064.1484                   23448061.2854
 -19494190.77748 -15180044.33646  21642672.1024                   21642670.3134
 -42210185.37347 -32879860.98545  22524176.8524                   22524175.1844
 -16452238.89247 -12809823.33244  23422502.5234                   23422503.7034
  -7873548.26546  -6125136.31044  23809908.1644                   23809906.8484
 -26032475.91748 -20276601.52445  21432566.5004                   21432565.6414
  -5219567.59147  -4052930.30144  23317394.2584                   23317394.2774
 11  9 28  1  8 30.0000000  0 10G25G29G12G02G15G05G30G21G26G18
 -30298326.34147 -23596763.58044  23366422.1414                   23366424.3754
 -34773666.59948 -27084399.97147  20516946.5864                   20516945.0314
 -35871805.40746 -27940153.40244  24655580.6484                   24655581.9804
 -55200482.60346 -43002125.92444  23445935.9384                   23445932.4104
 -19633734.37248 -15288779.53646  21616117.4844                   21616116.3524
 -42197232.26447 -32869767.65445  22526641.9144                   22526639.7894
 -16469676.07947 -12823410.77344  23419184.4454                   23419186.4804
  -8003892.76847  -6226703.30844  23785103.7424                   23785103.0824
 -26128101.06948 -20351114.59445  21414369.2894                   21414368.3594
  -5359425.27447  -4161910.16244  23290779.8914                   23290780.4064
 11  9 28  1  9  0.0000000  0 10G25G29G12G02G15G05G30G21G26G18
 -30289383.97747 -23589795.55644  23368123.5164                   23368126.8244
 -34874463.86848 -27162943.27347  20497765.9534                   20497764.1054
 -35849057.66847 -27922427.89943  24659909.1724                   24659910.9774
 -55211545.62446 -43010746.48844  23443830.6644                   23443826.4844
 -19772884.47148 -15397208.10946  21589638.1254                   21589636.2814
 -42184172.36247 -32859591.09145  22529126.8054                   22529125.3954
 -16486779.81847 -12836738.37044  23415929.5864                   23415931.0634
  -8134288.96146  -6328310.64144  23760291.0164                   23760289.4924
 -26223089.63448 -20425131.63645  21396293.8204                   21396292.3794
  -5499045.35547  -4270704.88544  23264211.2114                   23264211.4184
 11  9 28  1  9 30.0000000  0 10G25G29G12G02G15G05G30G21G26G18
 -30280310.26047 -23582725.18644  23369849.7734                   23369852.9384
 -34974794.43048 -27241122.91347  20478673.3914                   20478671.9414
 -35826434.53246 -27904799.51543  24664213.6564                   24664216.4304
 -55222484.39546 -43019270.20844  23441748.7034                   23441746.0004
 -19911638.80948 -15505328.31146  21563233.9614                   21563232.4924
 -42171008.28547 -32849333.36345  22531632.1954                   22531630.8674
 -16503553.66547 -12849808.94044  23412737.5864                   23412738.9774
  -8264737.11746  -6429958.41544  23735467.1724                   23735465.6764
 -26317440.52448 -20498651.75746  21378339.6804                   21378337.8674
  -5638428.09647  -4379314.68644  23237687.8594                   23237687.1254
 11  9 28  1 10  0.0000000  0 10G25G29G12G02G15G05G30G21G26G18
 -30271106.64447 -23575553.58245  23371601.8754                   23371604.4414
 -35074654.73948 -27318936.09047  20459670.5164                   20459668.7544
 -35803936.70046 -27887268.81943  24668496.1254                   24668497.2814
 -55233296.77446 -43027695.46344  23439691.2504                   23439688.3524
 -20049992.82347 -15613136.57546  21536906.0634                   21536904.4414
 -42157740.40847 -32838994.74945  22534157.2114                   22534155.7704
 -16519998.85146 -12862623.39944  23409608.3524                   23409609.2584
  -8395235.77046  -6531645.55144  23710633.7974                   23710632.1454
 -26411150.27548 -20571672.30345  21360507.0394                   21360505.7384
  -5777571.55147  -4487738.02744  23211209.1414                   23211208.6764
 11  9 28  1 10 30.0000000  0 10G25G29G12G02G15G05G30G21G26G18
 -30261775.45947 -23568282.59045  23373377.3204                   23373380.5124
 -35174042.43048 -27396381.02047  20440757.7344                   20440755.9264
 -35781565.92546 -27869837.02143  24672752.6484                   24672753.6294
 -55243981.47846 -43036021.23644  23437658.2194                   23437655.9384
 -20187943.31447 -15720630.40746  21510654.6484                   21510653.3014
 -42144370.07847 -32828576.31345  22536701.2114                   22536700.2814
 -16536117.50147 -12875183.39344  23406541.2974                   23406542.7304
  -8525784.33246  -6633371.59244  23685791.1254                   23685789.6804
 -26504216.54648 -20644191.44345  21342796.7814                   21342794.8244
  -5916474.10247  -4595973.65444  23184776.7734                   23184776.2584
 11  9 28  1 11  0.0000000  0 10G25G29G12G02G15G05G30G21G26G18
 -30252322.01047 -23560916.33545  23375176.2664                   23375179.2974
 -35272958.04248 -27473458.08447  20421934.6884                   20421933.2734
 -35759326.80645 -27852507.94142  24676983.6174                   24676985.3324
 -55254540.30546 -43044248.88244  23435649.3054                   23435646.2814
 -20325489.81248 -15827809.44046  21484480.5784                   21484479.5984
 -42130901.37747 -32818081.22145  22539264.2344                   22539263.1914
 -16551914.68147 -12887492.89844  23403534.9614                   23403537.0314
  -8656384.94047  -6735138.17144  23660938.6094                   23660937.1484
 -26596639.80448 -20716209.52746  21325209.5474                   21325208.0664
  -6055137.76347  -4704023.14544  23158389.9924                   23158389.4774
 11  9 28  1 11 30.0000000  0 10G25G29G12G02G15G05G30G21G26G18
 -30242748.58947 -23553456.56745  23376998.2664                   23377000.8014
 -35371398.98148 -27550165.27147  20403201.8914                   20403200.0004
 -35737221.37546 -27835283.02342  24681191.3284                   24681192.9454
 -55264971.90546 -43052377.43144  23433663.7894                   23433660.7584
 -20462628.53148 -15934670.70946  21458383.6724                   21458382.1294
 -42117335.73547 -32807510.60645  22541845.5394                   22541844.7234
 -16567392.53746 -12899553.60844  23400589.6884                   23400590.8914
  -8787036.63247  -6836944.57944  23636076.0864                   23636075.4614
 -26688418.01248 -20787724.98546  21307745.0164                   21307743.5594
  -6193561.14747  -4811885.40244  23132048.7424                   23132048.7774
 11  9 28  1 12  0.0000000  0 10G25G29G12G02G15G05G30G21G26G18
 -30233057.73347 -23545905.31244  23378842.6564                   23378845.7154
 -35469362.91548 -27626500.78247  20384559.7974                   20384558.5594
 -35715251.42345 -27818163.66442  24685370.9844                   24685372.4184
 -55275275.47646 -43060406.22144  23431703.4614                   23431700.0704
 -20599356.49647 -16041211.92446  21432365.5394                   21432364.0434
 -42103674.40947 -32796865.42445  22544445.5474                   22544443.7274
 -16582553.44746 -12911367.31744  23397704.5944                   23397705.4344
  -8917738.64747  -6938790.18344  23611204.6644                   23611203.3324
 -26779548.74148 -20858735.89046  21290402.9064                   21290401.4654
  -6331743.19746  -4919559.63044  23105752.8754                   23105752.3984
 11  9 28  1 12 30.0000000  0 10G25G29G12G02G15G05G30G21G26G18
 -30223251.82147 -23538264.39045  23380707.8054                   23380711.6994
 -35566847.30848 -27702462.59447  20366009.1334                   20366007.3754
 -35693419.09346 -27801151.34442  24689526.1954                   24689527.0744
 -55285449.88246 -43068334.33044  23429767.4614                   23429764.1954
 -20735670.28148 -16147430.40046  21406425.8674                   21406423.7194
 -42089918.76047 -32786146.73845  22547063.0474                   22547061.5704
 -16597399.58646 -12922935.75844  23394879.4534                   23394880.9614
  -9048490.33447  -7040674.51344  23586322.7504                   23586321.5514
 -26870029.80748 -20929240.57546  21273184.9924                   21273183.9494
  -6469682.88447  -5027044.98844  23079504.6174                   23079503.1174
 11  9 28  1 13  0.0000000  0 10G25G29G12G02G15G05G30G21G26G18
 -30213334.65447 -23530536.76444  23382595.3204                   23382598.9694
 -35663851.21348 -27778050.01547  20347550.1724                   20347548.7114
 -35671727.28346 -27784248.64843  24693654.6024                   24693655.2664
 -55295495.55346 -43076162.15144  23427855.1644                   23427852.7074
 -20871567.81448 -16253324.52146  21380565.0634                   21380563.9884
 -42076071.39647 -32775356.59845  22549697.9454                   22549696.7584
 -16611934.64046 -12934261.81644  23392114.0394                   23392115.1914
  -9179292.39947  -7142598.04944  23561431.8054                   23561431.0744
 -26959860.55048 -20999238.51746  21256090.6884                   21256089.3714
  -6607380.53247  -5134341.77744  23053301.5554                   23053300.3134
 11  9 28  1 13 30.0000000  0 10G25G29G12G02G15G05G30G21G26G18
 -30203312.95347 -23522727.70944  23384502.1484                   23384505.8834
 -35760376.99048 -27853264.87047  20329182.0164                   20329179.7664
 -35650182.18546 -27767460.24243  24697754.1414                   24697755.9064
 -55305415.46247 -43083891.95844  23425967.6174                   23425965.0784
 -21007050.19048 -16358895.13846  21354784.1334                   21354781.7734
 -42062138.01047 -32764499.42745  22552349.2504                   22552348.2154
 -16626165.17546 -12945350.54744  23389405.3984                   23389406.8164
  -9310147.93147  -7244563.26144  23536530.9224                   23536529.2774
 -27049042.98348 -21068731.28246  21239119.9924                   21239117.9734
  -6744839.47247  -5241452.53844  23027144.0164                   23027143.2814
 11  9 28  1 14  0.0000000  0 10G25G29G12G02G15G05G30G21G26G18
 -30193187.41147 -23514837.74844  23386428.8204                   23386432.4454
 -35856420.40948 -27928103.86547  20310904.9844                   20310903.7664
 -35628783.83847 -27750786.24644  24701826.0474                   24701827.8754
 -55315207.06946 -43091521.79044  23424104.8914                   23424101.8984
 -21142112.32848 -16464138.31146  21329081.9534                   21329080.9694
 -42048118.07247 -32753574.81045  22555017.0864                   22555015.7624
 -16640091.76746 -12956202.49044  23386755.2424                   23386757.2304
  -9441054.77646  -7346568.45144  23511619.7894                   23511619.3754
 -27137573.45548 -21137716.03746  21222273.0164                   21222271.8914
  -6882056.69147  -5348374.96544  23001032.8834                   23001031.3714
 11  9 28  1 14 30.0000000  0  9G25G29G02G15G05G30G21G26G18
 -30182959.32147 -23506867.85044  23388375.6174                   23388379.9494
 -35951977.97248 -28002564.26747  20292721.4384                   20292719.6764
 -55324868.04447 -43099049.82644  23422266.6644                   23422263.3244
 -21276749.60948 -16569050.42046  21303461.1484                   21303459.6844
 -42034011.89947 -32742582.97845  22557701.4694                   22557699.9774
 -16653715.57846 -12966818.44544  23384163.3674                   23384164.5864
  -9572010.83047  -7448611.99144  23486699.6724                   23486698.7894
 -27225448.74548 -21206190.24046  21205551.1724                   21205549.3204
  -7019029.93547  -5455107.23944  22974966.8204                   22974966.5044
 11  9 28  1 15  0.0000000  0  9G25G29G02G15G05G30G21G26G18
 -30172631.70547 -23498820.42144  23390341.3754                   23390344.4844
 -36047048.15248 -28076644.89247  20274630.2274                   20274628.3674
 -55334398.28847 -43106476.01644  23420452.9694                   23420449.7154
 -21410959.89647 -16673629.81546  21277922.1024                   21277920.4494
 -42019821.25047 -32731525.34245  22560401.9224                   22560400.5514
 -16667039.44846 -12977200.70944  23381627.6024                   23381628.9414
  -9703016.13847  -7550693.96644  23461770.2504                   23461768.9144
 -27312667.49348 -21274152.85546  21188953.7424                   21188952.4494
  -7155758.96447  -5561649.23444  22948947.9454                   22948946.9344
 11  9 28  1 15 30.0000000  0  9G25G29G02G15G05G30G21G26G18
 -30162201.07047 -23490692.70244  23392325.9614                   23392329.3244
 -36141622.86748 -28150339.44747  20256633.1484                   20256631.3794
 -55343790.29946 -43113794.49744  23418665.9774                   23418662.2544
 -21544733.80848 -16777869.15546  21252465.5704                   21252463.8204
 -42005541.64847 -32720398.38545  22563119.0554                   22563117.4694
 -16680059.93047 -12987346.55144  23379149.9384                   23379150.7114
  -9834064.14847  -7652809.13044  23436832.3204                   23436831.3244
 -27399221.64848 -21341597.61346  21172483.1094                   21172481.3404
  -7292236.79147  -5667995.53244  22922977.1414                   22922976.0354
 11  9 28  1 16  0.0000000  0  9G25G29G02G15G05G30G21G26G18
 -30151668.05947 -23482485.21944  23394330.2894                   23394334.2344
 -36235697.93548 -28223644.65847  20238730.8524                   20238729.5084
 -55353041.62746 -43121003.34344  23416904.6174                   23416901.7704
 -21678066.38247 -16881764.59746  21227093.0784                   21227091.2114
 -41991172.50347 -32709201.63945  22565853.9844                   22565852.2074
 -16692777.43746 -12997256.28644  23376729.9614                   23376731.2154
  -9965151.88146  -7754955.28944  23411887.2424                   23411886.4884
 -27485107.58848 -21408521.67046  21156139.2894                   21156137.5784
  -7428460.84547  -5774144.02244  22897054.7814                   22897054.0004
 11  9 28  1 16 30.0000000  0  9G25G29G02G15G05G30G21G26G18
 -30141042.19147 -23474205.37344  23396352.5944                   23396355.8204
 -36329278.27148 -28296564.38047  20220923.3984                   20220921.4614
 -55362158.04346 -43128107.02244  23415169.7664                   23415167.2234
 -21810961.49748 -16985319.17246  21201803.8444                   21201802.6054
 -41976722.41047 -32697941.84545  22568603.5234                   22568601.9844
 -16705201.43846 -13006937.35944  23374366.3054                   23374366.3714
 -10096285.75947  -7857137.43244  23386933.4924                   23386932.1844
 -27570330.49048 -21474929.08846  21139922.0314                   21139919.9414
  -7564437.07047  -5880099.42044  22871179.3054                   22871178.2504
 11  9 28  1 17  0.0000000  0  9G25G29G02G15G05G30G21G26G18
 -30130325.77347 -23465854.96745  23398391.9454                   23398394.6954
 -36422361.47548 -28369096.72147  20203209.9144                   20203208.6804
 -55371138.53146 -43135104.83444  23413460.9534                   23413458.4264
 -21943415.95648 -17088530.38246  21176598.6254                   21176597.3714
 -41962192.24847 -32686619.62345  22571368.0864                   22571366.5704
 -16717334.20146 -13016391.48544  23372057.0314                   23372058.9574
 -10227464.92047  -7959354.82444  23361970.6484                   23361969.5044
 -27654888.40448 -21540818.32046  21123831.1254                   21123829.0434
  -7700164.13647  -5985860.70144  22845351.4454                   22845350.1374
 11  9 28  1 17 30.0000000  0  9G25G29G02G15G05G30G21G26G18
 -30119528.98347 -23457441.95244  23400446.3134                   23400450.0664
 -36514953.38948 -28441246.25047  20185590.6484                   20185588.7774
 -55379989.74046 -43142001.93644  23411776.8984                   23411773.9454
 -22075434.09647 -17191401.59046  21151476.6954                   21151474.8914
 -41947591.12247 -32675242.12845  22574146.8834                   22574145.7154
 -16729185.81247 -13025626.53744  23369801.9384                   23369802.9654
 -10358696.24747  -8061612.87944  23336998.2424                   23336997.2344
 -27738787.21848 -21606193.98146  21107865.3524                   21107863.9264
  -7835649.00647  -6091433.19844  22819568.4304                   22819567.2384
 11  9 28  1 18  0.0000000  0  9G25G29G02G15G05G30G21G26G18
 -30108654.36647 -23448968.27144  23402516.1094                   23402519.1094
 -36607051.79548 -28513011.21447  20168064.8444                   20168063.4694
 -55388710.83946 -43148797.61344  23410117.0314                   23410114.9774
 -22207012.87947 -17293930.44546  21126437.8914                   21126436.0314
 -41932920.20047 -32663810.22045  22576938.6484                   22576936.6564
 -16740758.71146 -13034644.37044  23367599.7274                   23367600.6844
 -10489979.18447  -8163911.14544  23312016.2194                   23312014.8984
 -27822025.32048 -21671054.78546  21092025.7814                   21092024.3094
  -7970890.93147  -6196816.42344  22793833.2734                   22793832.3364
 11  9 28  1 18 30.0000000  0  9G25G29G02G15G05G30G21G26G18
 -28522286.74747 -22212837.70944  23704391.7974                   23704395.2934
 -35123233.62848 -27356789.24347  20450425.9454                   20450424.3324
 -53821882.67146 -41927892.51744  23708274.3134                   23708272.0434
 -20762727.21747 -16168513.00046  21401276.1334                   21401274.8984
 -40342763.54547 -31424727.09045  22879535.1414                   22879533.7624
 -15176637.03046 -11815848.28444  23665242.2664                   23665243.1374
  -9045890.51947  -7038647.13844  23586816.7974                   23586814.9344
 -26329180.07648 -20507798.71046  21376104.7734                   21376103.3244
  -6530466.42647  -5074407.59744  23067936.7584                   23067936.1094
 11  9 28  1 19  0.0000000  0  9G25G29G02G15G05G30G21G26G18
 -28511270.53447 -22204253.69244  23706488.3134                   23706491.1954
 -35214345.56748 -27427785.54047  20433087.7194                   20433086.1644
 -53830347.68046 -41934488.68344  23706663.4384                   23706661.1564
 -20893425.38047 -16270355.65446  21376405.0554                   21376403.3324
 -40327964.10447 -31413195.04045  22882351.0704                   22882349.5984
 -15187666.64146 -11824442.77844  23663143.7974                   23663144.7384
  -9177280.72247  -7141029.00744  23561814.1334                   23561812.5554
 -26411098.01248 -20571630.82546  21360516.3594                   21360514.5664
  -6665226.28247  -5179415.18244  23042292.7974                   23042292.4344
 11  9 28  1 19 30.0000000  0  9G25G29G02G15G05G30G21G26G18
 -28500185.16647 -22195615.79144  23708597.7664                   23708601.3594
 -35304959.28848 -27498393.61447  20415844.6484                   20415843.0204
 -53838680.82046 -41940982.07544  23705078.1414                   23705075.6604
 -21023676.23747 -16371849.77546  21351619.0554                   21351617.4184
 -40313100.00547 -31401612.63145  22885180.4064                   22885178.9024
 -15198426.14846 -11832826.83944  23661095.6644                   23661096.9384
  -9308721.24247  -7243450.06744  23536800.8444                   23536800.0744
 -26492351.45748 -20634945.15146  21345053.9384                   21345052.9844
  -6799741.73747  -5284232.30544  23016695.2034                   23016694.3204
 11  9 28  1 20  0.0000000  0  9G25G29G02G15G05G30G21G26G18
 -28489035.00547 -22186927.38444  23710719.0394                   23710723.2814
 -35395074.27448 -27568613.06847  20398696.4614                   20398694.7304
 -53846883.05446 -41947373.46444  23703517.4224                   23703514.5984
 -21153478.93447 -16472994.67746  21326918.6954                   21326917.4144
 -40298174.76047 -31389982.54545  22888019.9534                   22888018.2934
 -15208919.87946 -11841003.74944  23659098.6954                   23659099.9694
  -9440213.42247  -7345911.42644  23511779.5004                   23511777.7234
 -26572940.69248 -20697741.92446  21329718.3284                   21329717.5084
  -6934013.84047  -5388859.82144  22991143.6724                   22991142.8914
 11  9 28  1 20 30.0000000  0  9G25G29G02G15G05G30G21G26G18
 -28477825.34847 -22178192.63844  23712852.2734                   23712856.3284
 -35484691.69648 -27638444.80147  20381642.9304                   20381641.2774
 -53854956.79846 -41953664.72944  23701981.1254                   23701978.2974
 -21282833.29247 -16573790.22146  21302303.1954                   21302301.2814
 -40283192.35147 -31378307.93045  22890871.6254                   22890869.1804
 -15219153.20246 -11848977.77544  23657151.7194                   23657152.7464
  -9571759.49947  -7448414.77044  23486747.0004                   23486745.3094
 -26652866.84048 -20760022.00746  21314509.5314                   21314507.2814
  -7068044.63747  -5493299.26244  22965638.8834                   22965637.8984
 11  9 28  1 21  0.0000000  0  9G25G29G02G15G05G30G21G26G18
 -28466559.95947 -22169414.43744  23714996.3754                   23714999.0784
 -35573810.96348 -27707888.35947  20364684.0554                   20364682.3954
 -53862902.08846 -41959855.89844  23700469.1804                   23700466.3014
 -21411737.36847 -16674234.90346  21277773.5784                   21277771.8634
 -40268155.33047 -31366590.76445  22893732.6174                   22893730.9024
 -15229129.95946 -11856751.89744  23655253.1644                   23655254.3914
  -9703359.73047  -7550960.30544  23461703.7734                   23461702.0434
 -26732129.86448 -20821785.38146  21299425.9924                   21299424.1994
  -7201834.45647  -5597550.96044  22940178.9384                   22940178.7464
 11  9 28  1 21 30.0000000  0  9G25G29G02G15G05G30G21G26G18
 -28455239.11647 -22160593.08644  23717150.2274                   23717154.5354
 -35662427.65748 -27776940.30647  20347820.7344                   20347819.2344
 -53870715.73646 -41965944.46644  23698981.7894                   23698979.3554
 -21540186.28047 -16774324.91646  21253330.2894                   21253329.3634
 -40253062.75247 -31354830.30345  22896605.0314                   22896603.2584
 -15238850.26746 -11864326.17644  23653403.4224                   23653404.5744
  -9835010.61447  -7653545.32844  23436651.6804                   23436649.7774
 -26810725.88948 -20883028.99846  21284469.5394                   21284468.0044
  -7335380.42547  -5701612.64544  22914765.9534                   22914765.5044
 11  9 28  1 22  0.0000000  0  9G25G29G02G15G05G30G21G26G18
 -28443863.57747 -22151728.99844  23719314.5004                   23719318.4264
 -35750538.63948 -27845598.18647  20331054.0394                   20331052.1054
 -53878395.25446 -41971928.53344  23697521.2034                   23697518.4804
 -21668175.35547 -16874056.61046  21228974.8524                   21228973.5234
 -40237914.30447 -31343026.31645  22899487.3914                   22899485.6374
 -15248314.97846 -11871701.29544  23651602.2114                   23651603.5664
  -9966710.11847  -7756168.25644  23411589.6644                   23411588.2034
 -26888651.90448 -20943750.53546  21269640.8914                   21269638.7664
  -7468680.19346  -5805482.49944  22889399.6564                   22889399.3874
 11  9 28  1 22 30.0000000  0  9G25G29G02G15G05G30G21G26G18
 -28432437.05347 -22142825.26844  23721490.2424                   23721493.5124
 -35838142.84248 -27913861.17547  20314383.0084                   20314381.2624
 -53885941.14546 -41977808.48444  23696085.1804                   23696082.1374
 -21795702.89948 -16973428.67646  21204707.0634                   21204705.5744
 -40222712.22447 -31331180.54145  22902380.2424                   22902378.8594
 -15257527.86147 -11878880.19044  23649849.6564                   23649850.3834
 -10098459.03946  -7858829.67544  23386519.1254                   23386516.5354
 -26965907.60548 -21003949.75646  21254939.7034                   21254938.1094
  -7601733.86446  -5909160.59344  22864080.6024                   22864079.5554
 11  9 28  1 23  0.0000000  0  9G25G29G02G15G05G30G21G26G18
 -28420963.64547 -22133885.01144  23723673.4144                   23723676.5164
 -35925240.02948 -27981729.09247  20297808.8914                   20297807.3284
 -53893353.67746 -41983584.51644  23694674.0314                   23694671.7854
 -21922767.61848 -17072440.09146  21180527.5004                   21180525.9654
 -40207459.42447 -31319295.23445  22905282.5234                   22905281.1764
 -15266493.02147 -11885866.07244  23648143.2274                   23648143.6454
 -10230257.94147  -7961530.05144  23361438.2424                   23361436.3634
 -27042493.15248 -21063626.77946  21240365.8594                   21240363.6374
  -7734542.07247  -6012647.42244  22838807.9454                   22838807.2734
 11  9 28  1 23 30.0000000  0  9G25G29G02G15G05G30G21G26G18
 -28409446.25747 -22124910.45244  23725864.8834                   23725867.7974
 -36011828.82348 -28049200.84947  20281331.5314                   20281329.6564
 -53900632.72547 -41989256.51844  23693290.2344                   23693286.8054
 -22049367.09348 -17171088.98846  21156436.5704                   21156435.1414
 -40192157.69647 -31307371.81245  22908194.7274                   22908192.7584
 -15275213.42147 -11892661.20444  23646484.1024                   23646485.1414
 -10362106.64347  -8064269.21044  23336348.3594                   23336346.5944
 -27118407.77948 -21122781.00646  21225919.5474                   21225917.6254
  -7867105.00247  -6115943.10544  22813582.1334                   22813580.2544
 11  9 28  1 24  0.0000000  0  9G25G29G02G15G05G30G21G26G18
 -28397887.09247 -22115903.32944  23728064.0554                   23728067.3484
 -36097907.37948 -28116275.02247  20264951.6644                   20264949.4924
 -53907777.00746 -41994823.50444  23691929.6884                   23691927.1094
 -22175498.17348 -17269372.89646  21132434.3834                   21132432.8634
 -40176808.31247 -31295411.25245  22911115.7114                   22911113.3794
 -15283691.42546 -11899267.44244  23644870.2814                   23644871.6724
 -10494003.26647  -8167045.72444  23311249.6024                   23311248.0354
 -27193650.12448 -21181411.37246  21211601.4694                   21211600.0514
  -7999421.78847  -6219047.01144  22788402.6254                   22788401.7664
 11  9 28  1 24 30.0000000  0  9G25G29G02G15G05G30G21G26G18
 -28386289.33347 -22106866.19544  23730271.0864                   23730274.9344
 -36183474.50748 -28182950.67447  20248668.7034                   20248666.6844
 -53914786.39447 -42000285.39344  23690595.9614                   23690593.3364
 -22301158.58648 -17367290.05146  21108522.1024                   21108520.0204
 -40161412.79747 -31283414.75845  22914045.5474                   22914043.4104
 -15291930.13847 -11905687.32743  23643302.5704                   23643303.3874
 -10625948.30147  -8269859.93945  23286141.0084                   23286139.4064
 -27268219.42248 -21239517.28446  21197411.2114                   21197409.4064
  -8131492.26347  -6321958.96844  22763270.6644                   22763269.4144
 11  9 28  1 25  0.0000000  0  9G25G29G02G15G05G30G21G26G18
 -28374653.13847 -22097799.08644  23732485.8284                   23732488.8914
 -36268525.88348 -28249224.45047  20232483.8524                   20232481.8524
 -53921657.74046 -42005639.70643  23689288.3284                   23689285.2424
 -22426343.76548 -17464836.89946  21084700.2194                   21084698.3054
 -40145970.16747 -31271381.54945  22916983.9844                   22916981.5394
 -15299929.90146 -11911920.97143  23641780.0314                   23641781.1334
 -10757938.61847  -8372709.46244  23261023.5704                   23261021.7544
 -27342112.18747 -21297096.02846  21183350.2814                   21183348.1134
  -8263313.14547  -6424676.45244  22738186.0084                   22738184.3244
 11  9 28  1 25 30.0000000  0  9G25G29G02G15G05G30G21G26G18
 -28362982.68947 -22088705.30644  23734706.3984                   23734710.3244
 -36353061.67348 -28315096.46847  20216397.3524                   20216395.5084
 -53928391.95047 -42010887.12344  23688007.1094                   23688004.2664
 -22551052.35148 -17562012.36546  21060969.1334                   21060967.2624
 -40130483.27647 -31259313.83245  22919930.8284                   22919929.3714
 -15307694.82246 -11917971.60743  23640302.7194                   23640304.3094
 -10889975.07847  -8475594.90944  23235898.3984                   23235896.4184
 -27415329.00447 -21354148.07346  21169417.0314                   21169415.0204
  -8394885.68547  -6527200.41944  22713148.9924                   22713147.8874
 11  9 28  1 26  0.0000000  0  9G25G29G02G15G05G30G21G26G18
 -28351282.86747 -22079588.63644  23736932.9304                   23736936.6484
 -36437082.23048 -28380567.00647  20200408.8054                   20200406.6954
 -53934990.75846 -42016029.09143  23686751.2194                   23686748.5824
 -22675283.70148 -17658815.97546  21037328.3984                   21037326.7194
 -40114955.92147 -31247214.59345  22922885.1724                   22922883.6414
 -15315229.93446 -11923843.16943  23638868.1804                   23638870.2114
 -11022058.81447  -8578517.21444  23210763.6174                   23210761.4184
 -27487870.91247 -21410674.22045  21155613.1024                   21155611.1334
  -8526211.55147  -6629532.18344  22688158.0314                   22688156.9064
 11  9 28  1 26 30.0000000  0  9G25G29G02G15G05G30G21G26G18
 -28339555.28347 -22070450.30144  23739164.6564                   23739168.8914
 -36520585.44448 -28445634.42147  20184518.5084                   20184516.8324
 -53941452.34846 -42021064.12343  23685521.3914                   23685518.4844
 -22799034.30448 -17755244.96146  21013779.3524                   21013777.2584
 -40099388.32847 -31235083.99745  22925847.7584                   22925847.2114
 -15322537.04746 -11929537.13143  23637478.0474                   23637480.2704
 -11154188.32047  -8681475.19645  23185620.1644                   23185618.5984
 -27559736.25347 -21466673.16446  21141937.3134                   21141935.9694
  -8657289.37246  -6731670.64344  22663214.6094                   22663213.5434
 11  9 28  1 27  0.0000000  0  9G25G29G02G15G05G30G21G26G18
 -28327803.17047 -22061292.90944  23741401.1414                   23741405.3984
 -36603570.15448 -28510297.80547  20168727.0394                   20168725.0514
 -53947776.75846 -42025992.24043  23684317.5864                   23684315.3244
 -22922302.56748 -17851298.10346  20990322.3984                   20990320.4924
 -40083782.57347 -31222923.68245  22928818.0004                   22928816.3554
 -15329619.44246 -11935055.89543  23636130.8054                   23636131.5784
 -11286363.87646  -8784469.02345  23160467.6804                   23160465.8754
 -27630924.51347 -21522144.51146  21128390.5164                   21128388.9774
  -8788118.85147  -6833615.64444  22638319.3204                   22638317.7384
 11  9 28  1 27 30.0000000  0  9G25G29G02G15G05G30G21G26G18
 -28316027.99747 -22052117.51444  23743641.8444                   23743645.5044
 -36686033.81548 -28574555.18647  20153034.7664                   20153032.7034
 -53953961.85246 -42030811.83943  23683140.9064                   23683138.5554
 -23045084.51548 -17946972.30646  20966957.5084                   20966955.3914
 -40068138.77847 -31210733.71145  22931795.1954                   22931794.0084
 -15336478.49246 -11940400.68644  23634825.6254                   23634827.6374
 -11418583.35547  -8887497.09945  23135307.2344                   23135304.4264
 -27701433.67047 -21577086.68546  21114973.1094                   21114971.1954
  -8918698.60247  -6935366.00844  22613469.9924                   22613468.9574
 11  9 28  1 28  0.0000000  0  9G25G29G02G15G05G30G21G26G18
 -28304234.86247 -22042928.11744  23745885.7424                   23745889.5944
 -36767977.62948 -28638407.49047  20137441.1564                   20137439.0314
 -53960009.41446 -42035524.27643  23681990.9224                   23681987.8054
 -23167380.10648 -18042267.53046  20943685.4304                   20943683.7664
 -40052460.85447 -31198517.14845  22934778.5554                   22934777.1094
 -15343119.83546 -11945575.77344  23633562.0634                   23633562.9184
 -11550848.71247  -8990560.92445  23110137.4694                   23110136.2074
 -27771265.55447 -21631501.12245  21101684.7034                   21101682.3244
  -9049030.80147  -7036923.50244  22588668.4844                   22588667.0314
 11  9 28  1 28 30.0000000  0  9G25G29G02G15G05G30G21G26G18
 -28292425.23747 -22033725.87444  23748133.5554                   23748137.0784
 -36849398.56348 -28701852.35047  20121947.1024                   20121945.3324
 -53965917.82746 -42040128.24643  23680866.3754                   23680863.0164
 -23289185.85248 -18137181.04546  20920506.6174                   20920504.7384
 -40036748.94647 -31186274.10245  22937768.1334                   22937766.7344
 -15349544.82446 -11950582.31944  23632339.5784                   23632341.2504
 -11683158.13347  -9093659.07744  23084960.2894                   23084958.1024
 -27840418.05147 -21685386.16446  21088524.9614                   21088523.5744
  -9179113.45147  -7138286.52244  22563914.4844                   22563913.6174
 11  9 28  1 29  0.0000000  0  9G25G29G02G15G05G30G21G26G18
 -28280601.82047 -22024512.89444  23750383.5864                   23750387.6214
 -36930295.67348 -28764889.04647  20106552.8204                   20106550.8164
 -53971686.57846 -42044623.38943  23679768.0944                   23679765.7034
 -23410499.26248 -18231710.92646  20897421.4534                   20897419.3484
 -40021004.38947 -31174005.63245  22940764.2344                   22940762.6024
 -15355756.26746 -11955422.43744  23631157.4614                   23631158.4804
 -11815511.23947  -9196791.25845  23059774.2344                   23059771.8834
 -27908890.52248 -21738741.30346  21075495.2894                   21075493.4924
  -9308946.43847  -7239455.00344  22539208.1954                   22539206.6254
 11  9 28  1 29 30.0000000  0  9G25G29G02G15G05G30G21G26G18
 -28268766.18047 -22015290.40544  23752636.0004                   23752639.4884
 -37010666.37448 -28827515.55347  20091259.1024                   20091257.2274
 -53977314.12446 -42049008.53843  23678697.5164                   23678695.1254
 -23531317.08248 -18325854.64346  20874430.4304                   20874428.5084
 -40005227.67047 -31161712.08545  22943766.3524                   22943765.0394
 -15361756.14846 -11960097.71044  23630015.2734                   23630017.1054
 -11947905.49747  -9299955.55644  23034580.3834                   23034577.4884
 -27976681.38948 -21791565.33446  21062595.3834                   21062592.9224
  -9438528.48447  -7340427.95145  22514549.4694                   22514548.5164
 11  9 28  1 30  0.0000000  0  9G25G29G02G15G05G30G21G26G18
 -26681502.81747 -20778461.84044  24054682.6564                   24054685.5124
 -35515088.05348 -27662129.83647  20375858.0704                   20375856.2034
 -52407380.99446 -40825683.98944  23977445.8834                   23977442.7114
 -22076214.16748 -17192008.16746  21151327.2034                   21151325.0164
 -38414001.83747 -29921795.85545  23246566.6954                   23246564.0274
 -13792128.25846 -10737011.09444  23928706.4064                   23928707.3834
 -10504918.11347  -8175549.72045  23309170.5944                   23309169.3324
 -26468368.98147 -20616256.94546  21349617.4384                   21349615.7974
  -7992435.99347  -6213602.56545  22789731.5474                   22789730.3754
 11  9 28  1 30 30.0000000  0  9G25G29G02G15G05G30G21G26G18
 -26669655.05347 -20769229.90744  24056936.6484                   24056940.0204
 -35594405.98048 -27723935.99047  20360764.6884                   20360762.0784
 -52412728.57546 -40829851.01844  23976427.7894                   23976425.6564
 -22196037.69548 -17285377.09046  21128525.5084                   21128523.4844
 -38398169.01447 -29909458.59345  23249579.3594                   23249578.1914
 -13797717.34646 -10741366.23444  23927642.4694                   23927644.8364
 -10637398.08547  -8278780.79544  23283960.7894                   23283958.9694
 -26534798.66848 -20668020.30946  21336976.4064                   21336974.6054
  -8121518.48347  -6314186.22544  22765168.0234                   22765166.6684
 11  9 28  1 31  0.0000000  0  9G25G29G02G15G05G30G21G26G18
 -26657806.38247 -20759997.21144  24059191.6724                   24059194.7734
 -35673197.16148 -27785331.69647  20345770.9064                   20345769.4534
 -52417936.49446 -40833909.12844  23975437.4844                   23975434.6484
 -22315361.86848 -17378356.91746  21105818.6254                   21105817.1134
 -38382311.50447 -29897102.10345  23252597.5164                   23252595.4494
 -13803106.56146 -10745565.63644  23926616.9454                   23926617.8714
 -10769921.18947  -8382045.45944  23258743.1724                   23258740.4144
 -26600548.00948 -20719253.53245  21324464.9304                   21324462.7504
  -8250352.52347  -6414576.32245  22740651.4224                   22740650.3914
 11  9 28  1 31 30.0000000  0  9G25G29G02G15G05G30G21G26G18
 -26645958.47447 -20750765.12044  24061446.5314                   24061449.5824
 -35751458.95748 -27846314.90047  20330878.3134                   20330876.4614
 -52423003.04146 -40837857.14244  23974473.2814                   23974470.4694
 -22434183.24348 -17470944.95446  21083208.0704                   21083205.3204
 -38366429.61347 -29884726.58845  23255619.0164                   23255617.9144
 -13808297.84247 -10749610.80844  23925628.7664                   23925630.5124
 -10902485.59947  -8485342.34444  23233516.5704                   23233514.6644
 -26665615.92948 -20769955.78845  21312082.7274                   21312080.4804
  -8378936.47747  -6514771.53045  22716182.9844                   22716181.6524
 11  9 28  1 32  0.0000000  0  9G25G29G02G15G05G30G21G26G18
 -26634115.17746 -20741536.65544  24063699.2664                   24063703.0944
 -35829191.59348 -27906885.76447  20316086.4924                   20316084.1454
 -52427929.19046 -40841695.71744  23973535.6564                   23973532.5354
 -22552500.84148 -17563140.43446  21060692.7194                   21060690.4734
 -38350525.80147 -29872334.02045  23258645.6174                   23258644.1994
 -13813295.26946 -10753504.89644  23924677.7664                   23924680.1764
 -11035091.50347  -8588671.54444  23208282.3524                   23208279.9224
 -26730002.79148 -20820127.34246  21299830.2194                   21299828.2734
  -8507271.26847  -6614772.57245  22691761.9694                   22691760.1024
 11  9 28  1 32 30.0000000  0  9G25G29G02G15G05G30G21G26G18
 -26622276.06846 -20732311.42943  24065952.7894                   24065956.3014
 -35906390.53948 -27967040.77347  20301395.9304                   20301393.5274
 -52432711.03646 -40845421.83444  23972625.7664                   23972623.7234
 -22670309.11948 -17654939.04446  21038274.3204                   21038272.5904
 -38334598.60047 -29859923.20845  23261676.4304                   23261674.6564
 -13818098.26647 -10757247.51044  23923763.7974                   23923764.9534
 -11167735.43747  -8692030.38845  23183040.9454                   23183039.1524
 -26793705.01248 -20869765.41145  21287708.3524                   21287705.7624
  -8635353.15647  -6714576.55545  22667388.3364                   22667387.4384
 11  9 28  1 33  0.0000000  0  9G25G29G02G15G05G30G21G26G18
 -26610444.35246 -20723091.95243  24068204.3364                   24068208.1094
 -35983055.43148 -28026779.63347  20286806.6644                   20286805.1134
 -52437348.75946 -40849035.66844  23971743.6954                   23971740.9224
 -22787606.82048 -17746339.79946  21015953.3914                   21015951.5554
 -38318649.43547 -29847495.30245  23264710.8754                   23264710.0864
 -13822710.46447 -10760841.46444  23922886.4304                   23922887.7274
 -11300417.29847  -8795418.77744  23157792.5474                   23157790.3014
 -26856723.10448 -20918870.38846  21275715.8594                   21275714.1724
  -8763182.56647  -6814183.77845  22643063.0474                   22643061.1524
 11  9 28  1 33 30.0000000  0  9G25G29G02G15G05G30G21G26G18
 -26598623.57246 -20713880.99443  24070453.8134                   24070457.1024
 -36059186.01948 -28086102.14347  20272319.7344                   20272318.0904
 -52441842.87847 -40852537.63844  23970888.1254                   23970885.5044
 -22904392.47848 -17837341.55546  20993730.1254                   20993727.8444
 -38302680.65547 -29835052.10245  23267750.3284                   23267748.6214
 -13827135.57147 -10764289.62744  23922044.9224                   23922045.7974
 -11433137.50447  -8898837.05444  23132536.3754                   23132533.6604
 -26919057.25948 -20967442.42446  21263854.3674                   21263852.3524
  -8890760.32147  -6913594.93145  22618785.4144                   22618784.0044
 11  9 28  1 34  0.0000000  0  9G25G29G02G15G05G30G21G26G18
 -26586817.77746 -20704681.68143  24072700.7274                   24072703.7774
 -36134782.44248 -28145008.42147  20257933.9534                   20257932.6684
 -52446194.14647 -40855928.26444  23970060.4694                   23970057.3284
 -23020665.10848 -17927943.56746  20971604.0394                   20971601.5164
 -38286695.22147 -29822595.91345  23270792.1174                   23270790.8634
 -13831377.95647 -10767595.40544  23921236.1644                   23921238.9694
 -11565895.92147  -9002285.08444  23107273.6094                   23107270.8634
 -26980708.78748 -21015482.55545  21252122.3444                   21252120.0594
  -9018087.77947  -7012811.06544  22594555.9064                   22594554.3984
 11  9 28  1 34 30.0000000  0  9G25G29G02G15G05G30G21G26G18
 -26575031.05146 -20695497.26243  24074943.2664                   24074946.6914
 -36209845.11448 -28203498.78547  20243649.8054                   20243647.9344
 -52450403.45346 -40859208.24044  23969259.2424                   23969256.5274
 -23136424.27148 -18018145.46746  20949575.6954                   20949573.9224
 -38270695.76246 -29810128.78945  23273836.7504                   23273835.2974
 -13835441.93047 -10770762.15944  23920464.0634                   23920465.4734
 -11698694.31447  -9105764.29244  23082002.6334                   23081999.7384
 -27041678.74448 -21062991.58245  21240520.1334                   21240518.4184
  -9145165.87847  -7111832.85845  22570374.2894                   22570372.3014
 11  9 28  1 35  0.0000000  0  9G25G29G02G15G05G30G21G26G18
 -26563266.41646 -20686330.06943  24077181.8834                   24077186.1254
 -36284373.41948 -28261572.77247  20229468.1414                   20229466.2034
 -52454470.59946 -40862377.46843  23968485.0164                   23968482.7814
 -23251668.26048 -18107945.92546  20927645.5314                   20927643.1604
 -38254684.05647 -29797652.14345  23276883.7664                   23276881.9614
 -13839330.58247 -10773792.35243  23919722.9614                   23919724.3244
 -11831531.83047  -9209273.94644  23056724.9454                   23056721.4774
 -27101967.12948 -21109969.51545  21229048.1484                   21229046.0164
  -9271994.68547  -7210660.44044  22546239.1724                   22546237.4224
 11  9 28  1 35 30.0000000  0  9G25G29G02G15G05G30G21G26G18
 -26551525.00046 -20677180.97843  24079416.3054                   24079420.2384
 -36358364.58748 -28319228.20547  20215388.0944                   20215386.4024
 -52458393.74546 -40865434.53143  23967739.0554                   23967736.3954
 -23366393.30048 -18197342.01046  20905813.8134                   20905811.5124
 -38238659.88247 -29785165.75745  23279933.6804                   23279931.7624
 -13843045.40447 -10776687.00343  23919016.7974                   23919018.0944
 -11964406.21847  -9312812.37044  23031439.1564                   23031436.5554
 -27161572.51248 -21156415.24545  21217705.3524                   21217703.3984
  -9398572.48147  -7309292.39145  22522152.1484                   22522150.2544
 11  9 28  1 36  0.0000000  0  9G25G29G02G15G05G30G21G26G18
 -26539809.98447 -20668052.38844  24081645.8914                   24081649.8674
 -36431818.50748 -28376465.00047  20201409.6884                   20201408.2274
 -52462173.23646 -40868379.63143  23967019.5474                   23967016.3954
 -23480597.77048 -18286332.46346  20884081.6174                   20884079.4264
 -38222625.30646 -29772671.26845  23282984.5394                   23282982.8874
 -13846589.86346 -10779448.99043  23918342.0234                   23918344.2194
 -12097317.32947  -9416379.38044  23006147.1174                   23006144.7934
 -27220495.38448 -21202329.15246  21206492.1254                   21206490.7584
  -9524899.75647  -7407729.15345  22498112.7274                   22498111.0554
 11  9 28  1 36 30.0000000  0  9G25G29G02G15G05G30G21G26G18
 -26528122.62547 -20658945.42344  24083869.7894                   24083873.6334
 -36504732.35647 -28433280.97347  20187534.8364                   20187532.5864
 -52465806.92746 -40871211.04643  23966327.9384                   23966325.3984
 -23594278.33248 -18374914.67146  20862448.4774                   20862446.4774
 -38206579.89347 -29760168.32444  23286038.0864                   23286036.0744
 -13849965.42046 -10782079.31543  23917699.9924                   23917701.1214
 -12230263.10346  -9519973.40944  22980848.1644                   22980846.0594
 -27278733.90848 -21247709.79346  21195409.7664                   21195407.9064
  -9650974.87647  -7505969.40545  22474121.6094                   22474119.9734
 11  9 28  1 37  0.0000000  0  9G25G29G02G15G05G30G21G26G18
 -26516467.57847 -20649863.61744  24086087.5944                   24086091.7734
 -36577107.52248 -28489677.18247  20173762.6804                   20173760.3364
 -52469296.48146 -40873930.19243  23965664.3134                   23965661.4024
 -23707435.09648 -18463088.73546  20840915.8754                   20840913.3444
 -38190527.14847 -29747659.68344  23289092.4694                   23289090.2624
 -13853176.92346 -10784581.87443  23917088.7664                   23917089.8954
 -12363244.58247  -9623595.25644  22955542.6564                   22955540.0314
 -27336290.03148 -21292558.69346  21184457.2584                   21184455.6994
  -9776799.61847  -7604014.59745  22450177.7814                   22450176.1524
 11  9 28  1 37 30.0000000  0  9G25G29G02G15G05G30G21G26G18
 -26504848.62647 -20640809.91744  24088298.7504                   24088302.5234
 -36648944.23448 -28545653.82347  20160092.2344                   20160089.9574
 -52472642.29046 -40876537.35443  23965027.4614                   23965025.0314
 -23820067.20348 -18550853.95546  20819482.4844                   20819480.4144
 -38174469.48947 -29735147.19344  23292147.8364                   23292146.5554
 -13856228.60046 -10786959.88743  23916507.2814                   23916509.8014
 -12496262.47347  -9727245.45345  22930230.5474                   22930228.0554
 -27393164.98348 -21336876.82046  21173634.0944                   21173632.2704
  -9902374.87847  -7701865.35645  22426281.3284                   22426279.1294
 11  9 28  1 38  0.0000000  0  9G25G29G02G15G05G30G21G26G18
 -26493266.56647 -20631784.94944  24090502.5394                   24090506.7704
 -36720239.55148 -28601208.60547  20146525.0474                   20146522.8794
 -52475842.41346 -40879030.95943  23964418.1024                   23964414.7974
 -23932170.93048 -18638207.47346  20798149.3834                   20798147.3054
 -38158406.17347 -29722630.33744  23295204.3754                   23295202.7074
 -13859121.44946 -10789214.08843  23915957.7424                   23915959.0274
 -12629314.34747  -9830922.16144  22904911.4454                   22904908.9144
 -27449356.72448 -21380662.57845  21162941.6884                   21162939.7114
 -10027698.80047  -7799520.28545  22402433.0394                   22402431.0234
 11  9 28  1 38 30.0000000  0  9G25G29G02G15G05G30G21G26G18
 -26481726.53147 -20622792.78644  24092699.3444                   24092702.9184
 -36790995.09448 -28656342.77747  20133060.7814                   20133058.7774
 -52478899.16246 -40881412.90643  23963836.4774                   23963833.4534
 -24043746.84548 -18725149.70646  20776917.5234                   20776915.7624
 -38142340.98147 -29710112.00244  23298262.3524                   23298260.2814
 -13861860.86046 -10791348.79043  23915436.4224                   23915437.9414
 -12762401.54847  -9934626.37445  22879585.1094                   22879583.4654
 -27504868.05148 -21423918.13646  21152378.3444                   21152376.0314
 -10152773.68047  -7896981.12245  22378632.4454                   22378630.3284
 11  9 28  1 39  0.0000000  0  9G25G29G02G15G05G30G21G26G18
 -26470228.18447 -20613833.08944  24094887.1334                   24094891.4384
 -36861207.33548 -28711053.59647  20119699.7814                   20119698.2154
 -52481808.90646 -40883680.20743  23963283.2504                   23963280.1414
 -24154789.86448 -18811676.69246  20755786.9844                   20755784.4304
 -38126272.42147 -29697591.06444  23301319.9534                   23301317.9574
 -13864446.80546 -10793363.87743  23914943.0704                   23914946.4654
 -12895520.61847 -10038355.39545  22854253.3134                   22854251.3954
 -27559696.12748 -21466641.29846  21141944.2734                   21141943.2424
 -10277596.73947  -7994245.76645  22354878.9844                   22354877.0744
 11  9 28  1 39 30.0000000  0  9G25G29G02G15G05G30G21G26G18
 -26458777.04947 -20604910.15444  24097066.2584                   24097069.9574
 -36930878.13448 -28765342.52147  20106441.9454                   20106440.1174
 -52484574.09846 -40885834.93343  23962756.9454                   23962753.6524
 -24265301.23948 -18897789.40046  20734757.1024                   20734754.7424
 -38110204.68047 -29685070.73144  23304376.4924                   23304375.6724
 -13866885.13346 -10795263.91143  23914480.0474                   23914482.4694
 -13028673.81547 -10142111.03645  22828915.5944                   22828912.7664
 -27613843.81648 -21508834.28745  21131640.4064                   21131638.8834
 -10402170.57447  -8091316.17945  22331173.1174                   22331171.2464
 11  9 28  1 40  0.0000000  0  9G25G29G02G15G05G30G21G26G18
 -26447375.27547 -20596025.70644  24099236.1644                   24099239.8554
 -37000006.37848 -28819208.66247  20093287.1564                   20093285.2274
 -52487194.08546 -40887876.48343  23962258.3204                   23962254.5704
 -24375278.54848 -18983485.95846  20713828.8284                   20713827.2854
 -38094138.57147 -29672551.69344  23307434.5864                   23307433.1254
 -13869178.22946 -10797050.85943  23914044.9224                   23914045.5904
 -13161859.53847 -10245892.00544  22803570.7194                   22803568.1644
 -27667310.84148 -21550496.87945  21121466.2034                   21121463.8244
 -10526494.76847  -8188192.08145  22307514.6804                   22307513.0944
 11  9 28  1 40 30.0000000  0  9G25G29G02G15G05G30G21G26G18
 -26436029.87046 -20587185.17944  24101394.5394                   24101399.0514
 -37068595.50248 -28872654.72147  20080235.1334                   20080233.5044
 -52489672.66546 -40889807.83243  23961786.4454                   23961782.8094
 -24484724.27548 -19068768.29746  20693001.9384                   20693000.1914
 -38078079.69247 -29660038.26944  23310489.9614                   23310487.7854
 -13871333.62046 -10798730.43143  23913634.0784                   23913636.6564
 -13295081.66947 -10349701.38145  22778219.8754                   22778217.7194
 -27720101.86748 -21591632.72045  21111420.4224                   21111418.2854
 -10650573.42247  -8284876.63945  22283903.6414                   22283901.7154
 11  9 28  1 41  0.0000000  0  9G25G29G02G15G05G30G21G26G18
 -24849320.75647 -19350788.51844  24403335.2584                   24403339.2934
 -35561219.52148 -27698076.03147  20367079.3134                   20367077.3714
 -50916586.57846 -39664026.33543  24261135.2194                   24261131.3484
 -23018210.00348 -17926029.86646  20972070.1954                   20972068.2194
 -36486606.85547 -28419929.58944  23613337.3364                   23613336.1564
 -12297930.95846  -9572702.47044  24213043.2584                   24213044.1054
 -11852911.99747  -9225932.71045  23052654.9064                   23052652.5664
 -26196792.04848 -20404638.04645  21401295.9774                   21401294.4844
  -9198979.61647  -7153764.48645  22560132.2424                   22560130.6454
 11  9 28  1 41 30.0000000  0  9G25G29G02G15G05G30G21G26G18
 -24838090.61846 -19342037.79244  24405471.9064                   24405476.8444
 -35628723.17948 -27750676.26647  20354233.8134                   20354231.8204
 -50918776.20146 -39665732.67243  24260718.5634                   24260715.1684
 -23126582.01948 -18010475.54146  20951448.0704                   20951445.6644
 -36470560.98447 -28407426.30044  23616391.3594                   23616389.3984
 -12299814.16746  -9574169.96344  24212684.8754                   24212686.0084
 -11986199.38947  -9329792.92845  23027291.5394                   23027288.9414
 -26248226.34948 -20444716.70345  21391508.8834                   21391506.3714
  -9322562.04347  -7250062.39045  22536615.1484                   22536613.6764
 11  9 28  1 42  0.0000000  0  9G25G29G02G15G05G30G21G26G18
 -24826924.62146 -19333337.06244  24407597.6094                   24407601.6374
 -35695685.52048 -27802854.70247  20341491.5314                   20341489.3404
 -50920823.57246 -39667328.04043  24260328.8364                   24260325.3014
 -23234417.18048 -18094502.90446  20930927.4064                   20930925.4024
 -36454525.99447 -28394931.51144  23619441.9614                   23619441.2814
 -12301568.08247  -9575536.71144  24212351.2664                   24212352.9454
 -12119520.92647  -9433679.75345  23001920.9774                   23001918.2074
 -26298985.03748 -20484268.90445  21381849.9224                   21381848.1294
  -9445898.78047  -7346168.81045  22513145.4694                   22513143.1644
 11  9 28  1 42 30.0000000  0  9G25G29G02G15G05G30G21G26G18
 -24815826.37646 -19324689.14244  24409708.9454                   24409712.9734
 -35762107.08448 -27854611.74747  20328851.3204                   20328849.3524
 -50922729.04646 -39668812.80043  24259966.1024                   24259963.1914
 -23341714.94848 -18178111.51046  20910509.0554                   20910506.7464
 -36438503.81147 -28382446.68844  23622491.7424                   23622489.5704
 -12303196.84847  -9576805.93144  24212040.9844                   24212042.7424
 -12252876.85347  -9537593.35945  22976544.3984                   22976541.3134
 -26349069.77148 -20523295.95745  21372319.3914                   21372317.2774
  -9568990.88647  -7442084.65945  22489721.3054                   22489719.6334
 11  9 28  1 43  0.0000000  0  9G25G29G02G15G05G30G21G26G18
 -24804795.81046 -19316093.91144  24411808.8054                   24411812.5554
 -35827984.47848 -27905944.76947  20316315.8054                   20316313.6454
 -50924489.79546 -39670184.87143  24259631.4384                   24259627.3524
 -23448470.80648 -18261297.83546  20890194.2034                   20890192.0084
 -36422493.52346 -28369971.13844  23625538.2664                   23625536.0664
 -12304700.80546  -9577977.90344  24211755.3754                   24211756.8484
 -12386263.69747  -9641531.10445  22951161.8594                   22951159.3244
 -26398478.27148 -20561796.06245  21362917.0234                   21362914.7464
  -9691835.64347  -7537807.72345  22466344.4144                   22466342.9804
 11  9 28  1 43 30.0000000  0  9G25G29G02G15G05G30G21G26G18
 -24793838.67946 -19307555.89443  24413893.3444                   24413897.4964
 -35893320.28748 -27956855.77947  20303882.4454                   20303880.3484
 -50926108.70947 -39671446.31844  24259323.3444                   24259319.6724
 -23554686.35348 -18344063.15546  20869982.2504                   20869980.2274
 -36406499.10147 -28357507.94944  23628581.7274                   23628580.0944
 -12306085.89446  -9579057.23044  24211491.5864                   24211492.6374
 -12519683.39147  -9745494.41745  22925772.5164                   22925770.0474
 -26447214.12347 -20599772.03745  21353642.2664                   21353641.0514
  -9814436.31847  -7633340.62145  22443014.5314                   22443012.9694
 11  9 28  1 44  0.0000000  0  9G25G29G02G15G05G30G21G26G18
 -24782959.80346 -19299078.89243  24415963.6804                   24415967.8284
 -35958116.25848 -28007346.13547  20291552.5234                   20291550.4454
 -50927587.68546 -39672598.82244  24259042.2664                   24259037.9844
 -23660362.13948 -18426407.88546  20849872.9224                   20849871.1564
 -36390524.33047 -28345060.07544  23631622.4064                   23631620.4804
 -12307357.37746  -9580048.04344  24211249.0394                   24211251.2814
 -12653137.66147  -9849484.67845  22900376.9224                   22900374.8754
 -26495279.90447 -20637225.87446  21344496.0784                   21344494.6054
  -9936795.13047  -7728685.04645  22419730.2114                   22419728.1914
 11  9 28  1 44 30.0000000  0  9G25G29G02G15G05G30G21G26G18
 -24772158.49946 -19290662.28743  24418018.5004                   24418022.2154
 -36022368.36348 -28057412.68547  20279325.7114                   20279323.3014
 -50928923.18946 -39673639.53843  24258787.3054                   24258783.5124
 -23765493.32348 -18508328.24646  20829866.9694                   20829864.2814
 -36374567.03647 -28332625.82845  23634657.9534                   23634657.3244
 -12308514.98446  -9580950.07143  24211029.6334                   24211031.7274
 -12786622.62447  -9953498.85745  22874975.9534                   22874973.9694
 -26542672.86848 -20674155.42445  21335477.7584                   21335475.7154
 -10058908.68547  -7823838.35745  22396492.9224                   22396491.1294
 11  9 28  1 45  0.0000000  0  9G25G29G02G15G05G30G21G26G18
 -24761439.00446 -19282309.48143  24420058.9924                   24420062.6884
 -36086077.85948 -28107056.44347  20267201.7274                   20267200.2854
 -50930116.75746 -39674569.57443  24258560.3984                   24258557.1454
 -23870079.89247 -18589824.22746  20809964.2814                   20809962.8204
 -36358630.12346 -28320207.42044  23637691.1954                   23637689.6374
 -12309563.34546  -9581767.03543  24210829.5314                   24210831.6564
 -12920139.04347 -10057537.54945  22849568.3754                   22849565.3834
 -26589395.19447 -20710562.41046  21326586.4924                   21326584.9734
 -10180778.96047  -7918802.09545  22373301.7034                   22373299.4734
 11  9 28  1 45 30.0000000  0  9G25G29G02G15G05G30G21G26G18
 -24750805.23646 -19274023.40743  24422082.4144                   24422086.9184
 -36149245.67048 -28156278.09347  20255181.7664                   20255179.1454
 -50931169.13546 -39675389.63943  24258359.9454                   24258356.5044
 -23974121.61247 -18670895.65546  20790166.4384                   20790164.7154
 -36342716.00446 -28307806.83244  23640719.2584                   23640717.5354
 -12310506.57146  -9582502.05644  24210649.5784                   24210651.1564
 -13053686.99347 -10161600.80845  22824154.4144                   22824152.2234
 -26635448.81647 -20746448.33445  21317823.0784                   21317821.5204
 -10302407.33347  -8013577.34645  22350156.0704                   22350154.4024
 11  9 28  1 46  0.0000000  0  9G25G29G02G15G05G30G21G26G18
 -24740259.97946 -19265806.33643  24424089.2504                   24424092.0704
 -36211871.54148 -28205077.45547  20243263.8914                   20243261.9344
 -50932080.23646 -39676099.59143  24258187.0394                   24258183.3714
 -24077617.20547 -18751541.53946  20770471.4534                   20770469.2624
 -36326826.04446 -28295425.04344  23643742.6334                   23643740.5474
 -12311348.09046  -9583157.83944  24210490.2814                   24210491.6294
 -13187265.86247 -10265688.16845  22798735.6724                   22798733.1214
 -26680834.72147 -20781813.96945  21309185.9844                   21309184.1484
 -10423793.91947  -8108164.20545  22327057.2584                   22327054.7304
 11  9 28  1 46 30.0000000  0  9G25G29G02G15G05G30G21G26G18
 -24729806.31846 -19257660.59943  24426079.0634                   24426082.1804
 -36273955.38948 -28253454.45747  20231450.1024                   20231448.1174
 -50932850.58446 -39676699.86743  24258040.2034                   24258037.1724
 -24180565.93048 -18831761.28646  20750881.1024                   20750878.9654
 -36310962.04946 -28283063.47644  23646761.7894                   23646759.8284
 -12312091.24646  -9583736.98243  24210348.4454                   24210350.9844
 -13320876.14147 -10369800.01045  22773310.7424                   22773307.3984
 -26725553.85247 -20816660.01645  21300676.3594                   21300674.4384
 -10544939.30647  -8202563.11645  22304004.2584                   22304002.0594
 11  9 28  1 47  0.0000000  0  9G25G29G02G15G05G30G21G26G18
 -24719448.33046 -19249589.55143  24428049.8364                   24428052.9924
 -36335498.58748 -28301410.19147  20219738.6094                   20219736.7154
 -50933481.28446 -39677191.23343  24257919.6414                   24257916.3324
 -24282967.63347 -18911554.79146  20731394.6254                   20731392.5204
 -36295126.73346 -28270724.25844  23649774.5864                   23649773.5084
 -12312740.45746  -9584242.87543  24210224.9774                   24210227.0354
 -13454517.78647 -10473936.28045  22747878.9534                   22747876.5314
 -26769608.50447 -20850988.29045  21292293.0784                   21292291.2384
 -10665845.22147  -8296775.41345  22280996.0704                   22280994.4344
 11  9 28  1 47 30.0000000  0  9G25G29G02G15G05G30G21G26G18
 -24709189.73647 -19241595.79943  24430001.6644                   24430004.7194
 -36396501.66448 -28348945.04247  20208130.3444                   20208128.1644
 -50933973.11046 -39677574.58943  24257826.7194                   24257823.3134
 -24384821.98347 -18990921.76546  20712012.5314                   20712010.0784
 -36279322.17446 -28258409.04544  23652782.7424                   23652781.0474
 -12313299.94046  -9584678.87343  24210118.4694                   24210120.6174
 -13588191.22547 -10578097.32345  22722442.4304                   22722439.1884
 -26813000.46447 -20884800.19945  21284035.8284                   21284033.9614
 -10786512.85947  -8390802.06245  22258033.9844                   22258031.8674
 11  9 28  1 48  0.0000000  0  9G25G29G02G15G05G30G21G26G18
 -24699034.22347 -19233682.42843  24431934.3524                   24431937.7114
 -36456965.38648 -28396059.61847  20196624.0634                   20196622.3284
 -50934326.97045 -39677850.35143  24257758.8134                   24257755.6684
 -24486128.84447 -19069862.14746  20692734.1254                   20692731.7704
 -36263550.81846 -28246119.65144  23655783.2274                   23655781.9964
 -12313773.66346  -9585048.08243  24210028.3834                   24210030.8874
 -13721896.68247 -10682283.30745  22696998.0704                   22696995.3134
 -26855731.59947 -20918097.17345  21275904.4534                   21275902.5044
 -10906943.43247  -8484643.95345  22235116.6724                   22235115.0594
 11  9 28  1 48 30.0000000  0  9G25G29G02G15G05G30G21G26G18
 -24688984.64847 -19225851.64543  24433846.8524                   24433849.9964
 -36516889.65848 -28442753.84047  20185220.8834                   20185219.0394
 -50934543.13546 -39678018.76443  24257718.3444                   24257715.5234
 -24586886.98748 -19148374.94446  20673560.6174                   20673558.3204
 -36247813.99846 -28233857.18444  23658778.0944                   23658776.9384
 -12314164.94346  -9585352.98943  24209954.1484                   24209956.7584
 -13855634.40347 -10786494.44645  22671548.4454                   22671546.3164
 -26897802.82847 -20950879.93345  21267898.6174                   21267896.4384
 -11027137.54447  -8578301.62045  22212244.2424                   22212242.0664
 11  9 28  1 49  0.0000000  0  8G25G29G15G05G30G21G26G18
 -24679043.43947 -19218105.22943  24435738.1414                   24435742.2424
 -36576274.28348 -28489027.55547  20173920.4844                   20173918.8554
 -24687095.06747 -19226459.12246  20654491.4774                   20654488.8444
 -36232113.23647 -28221622.83344  23661766.3674                   23661764.4804
 -12314476.69446  -9585595.92443  24209895.1644                   24209896.5204
 -13989402.43747 -10890729.20045  22646093.7504                   22646090.6134
 -26939215.45147 -20983149.49545  21260017.5634                   21260016.1214
 -11147094.96747  -8671774.82445  22189417.3984                   22189414.7894
 11  9 28  1 49 30.0000000  0  8G25G29G15G05G30G21G26G18
 -24669216.16347 -19210447.68143  24437608.6414                   24437611.8914
 -36635122.05548 -28534882.94947  20162722.4614                   20162720.3554
 -24786754.71047 -19304115.96046  20635527.0784                   20635524.6524
 -36216452.14546 -28209419.38344  23664746.5474                   23664744.8914
 -12314715.06946  -9585781.76543  24209849.7424                   24209850.9654
 -14123203.60547 -10994989.76445  22620632.0234                   22620628.8794
 -26979972.92347 -21014908.56245  21252261.9454                   21252260.0124
 -11266819.16347  -8765066.30445  22166634.5004                   22166631.8954
 11  9 28  1 50  0.0000000  0  8G25G29G15G05G30G21G26G18
 -24659500.10247 -19202876.73143  24439457.4224                   24439462.0704
 -36693427.44548 -28580315.70447  20151627.1414                   20151625.0904
 -24885859.32647 -19381340.28946  20616668.2584                   20616666.0784
 -36200826.74647 -28197243.74744  23667719.8594                   23667717.6684
 -12314877.39546  -9585908.31843  24209818.2034                   24209820.1334
 -14257031.68547 -11099271.29145  22595165.2734                   22595162.5944
 -27020070.66147 -21046153.53845  21244631.8134                   21244629.6134
 -11386304.49947  -8858171.66045  22143897.2814                   22143895.2464
 11  9 28  1 50 30.0000000  0  8G25G29G15G05G30G21G26G18
 -24649898.27447 -19195394.84243  24441284.1724                   24441289.2154
 -36751190.71248 -28625326.03047  20140634.8594                   20140633.1524
 -24984408.44748 -19458131.77946  20597914.8524                   20597912.0744
 -36185238.85047 -28185097.35544  23670686.1644                   23670685.1134
 -12314967.44446  -9585978.52343  24209801.4384                   24209803.3164
 -14390885.37847 -11203572.78045  22569693.7114                   22569691.4614
 -27059510.42547 -21076885.82245  21237126.3674                   21237124.7704
 -11505552.18547  -8951091.83645  22121204.6414                   22121203.1254
 11  9 28  1 51  0.0000000  0  8G25G29G15G05G30G21G26G18
 -24640416.96947 -19188006.85244  24443088.9694                   24443092.2034
 -36808415.40748 -28669916.67847  20129745.6414                   20129743.5704
 -25082404.36248 -19534492.18946  20579266.7814                   20579263.8714
 -36169693.19147 -28172983.83544  23673644.4064                   23673643.3524
 -12314991.66546  -9585997.38043  24209797.4614                   24209798.5314
 -14524768.35247 -11307897.08545  22544216.9144                   22544213.6684
 -27098296.86747 -21107109.00945  21229745.3594                   21229743.1804
 -11624565.93247  -9043829.71545  22098557.4454                   22098555.5904
 11  9 28  1 51 30.0000000  0  8G25G29G15G05G30G21G26G18
 -24631061.92947 -19180717.26844  24444869.3754                   24444872.8364
 -36865104.41248 -28714089.91047  20118958.1724                   20118956.0234
 -25179849.19448 -19610423.19546  20560723.6254                   20560721.1454
 -36154194.31047 -28160906.79544  23676593.0164                   23676593.3364
 -12314956.40146  -9585969.96143  24209803.4304                   24209805.2344
 -14658682.73647 -11412245.86445  22518733.1484                   22518730.0704
 -27136434.52347 -21136826.65946  21222488.1094                   21222486.3324
 -11743349.56347  -9136388.30645  22075953.5864                   22075951.4384
 11  9 28  1 52  0.0000000  0  8G25G29G15G05G30G21G26G18
 -23046420.58347 -17945931.84644  24746417.1024                   24746420.9024
 -35345840.50248 -27530247.88447  20408064.3754                   20408062.3484
 -23701322.98948 -18458324.80946  20842077.6024                   20842074.8634
 -34563327.82947 -26921270.58444  23979325.4774                   23979324.0634
 -10739449.17846  -8358302.06543  24509613.1564                   24509614.3874
 -13217208.22647 -10289018.90245  22793037.2424                   22793033.8954
 -25598507.34047 -19938441.81945  21515146.3674                   21515144.4184
 -10286483.98447  -8001168.26645  22353185.2344                   22353183.6374
 11  9 28  1 52 30.0000000  0  8G25G29G15G05G30G21G26G18
 -23037337.61047 -17938854.21644  24748145.3364                   24748149.4104
 -35401470.31048 -27573595.76847  20397478.4614                   20397476.2854
 -23797674.10948 -18533403.56046  20823742.2584                   20823740.3404
 -34547937.21246 -26909277.91444  23982253.9304                   23982252.6414
 -10739315.89646  -8358198.19343  24509638.3204                   24509640.1294
 -13351195.49047 -10393424.47045  22767540.2034                   22767537.5824
 -25635361.86948 -19967159.62545  21508132.6954                   21508130.9494
 -10404819.39747  -8093377.58545  22330667.3914                   22330664.6764
 11  9 28  1 53  0.0000000  0  8G25G29G15G05G30G21G26G18
 -23028397.25746 -17931887.78643  24749846.4844                   24749849.9774
 -35456573.20748 -27616533.07347  20386992.6334                   20386990.7234
 -23893479.76848 -18608057.28246  20805511.4844                   20805508.9064
 -34532605.49646 -26897331.13944  23985171.9694                   23985170.0204
 -10739140.83046  -8358061.80843  24509671.4384                   24509673.7894
 -13485220.41047 -10497859.38045  22742035.6564                   22742033.3094
 -25671579.40048 -19995381.06545  21501240.6644                   21501239.0164
 -10522933.96748  -8185414.80645  22308190.5004                   22308188.2734
 11  9 28  1 53 30.0000000  0  8G25G29G15G05G30G21G26G18
 -23019599.34146 -17925032.30444  24751521.2034                   24751524.7424
 -35511146.23148 -27659057.50347  20376607.8204                   20376605.7194
 -23988735.89348 -18682282.80046  20787384.4614                   20787382.1054
 -34517330.90046 -26885428.86044  23988078.8594                   23988077.1254
 -10738924.40246  -8357893.24743  24509713.5474                   24509714.4184
 -13619279.52347 -10602320.96445  22716524.5784                   22716522.2344
 -25707158.50848 -20023105.02746  21494470.6724                   21494468.2584
 -10640825.34347  -8277278.12045  22285756.5004                   22285753.8594
 11  9 28  1 54  0.0000000  0  8G25G29G15G05G30G21G26G18
 -23010949.08746 -17918291.87444  24753166.7814                   24753171.1174
 -35565192.27248 -27701171.27947  20366323.0164                   20366321.3324
 -24083444.18648 -18756081.42246  20769362.4924                   20769359.8634
 -34502117.07746 -26873573.93644  23990972.9144                   23990972.8404
 -10738672.20546  -8357696.77243  24509760.8284                   24509762.9804
 -13753374.42547 -10706810.41145  22691008.1414                   22691004.4184
 -25742102.87748 -20050334.37545  21487820.6954                   21487818.9414
 -10758496.45748  -8368969.80645  22263364.5004                   22263362.0704
 11  9 28  1 54 30.0000000  0  8G25G29G15G05G30G21G26G18
 -23002449.88246 -17911669.15843  24754784.3444                   24754787.6604
 -35618712.32048 -27742875.18847  20356138.4064                   20356136.2274
 -24177604.57948 -18829453.11846  20751444.2344                   20751442.1644
 -34486966.38146 -26861768.20844  23993856.0394                   23993856.2504
 -10738388.08146  -8357475.41343  24509814.7664                   24509816.9574
 -13887505.15047 -10811327.79045  22665483.5474                   22665480.7304
 -25776414.83347 -20077070.93645  21481291.3834                   21481289.2424
 -10875948.44447  -8460490.74845  22241014.1254                   22241011.6684
 11  9 28  1 55  0.0000000  0  8G25G29G15G05G30G21G26G18
 -22994103.05146 -17905165.16343  24756371.6564                   24756376.8364
 -35671705.23148 -27784168.35547  20346054.3054                   20346052.1524
 -24271214.81048 -18902396.11246  20733630.6334                   20733627.9654
 -34471878.45746 -26850011.45144  23996727.7974                   23996725.6054
 -10738073.77346  -8357230.53143  24509874.1414                   24509877.0004
 -14021669.77047 -10915871.58845  22639953.0634                   22639949.8914
 -25810094.28648 -20103314.65645  21474881.6954                   21474880.3834
 -10993180.14948  -8551840.02245  22218705.5704                   22218703.3484
 11  9 28  1 55 30.0000000  0  8G25G29G15G05G30G21G26G18
 -22985912.31546 -17898782.83543  24757930.2114                   24757935.4964
 -35724172.25748 -27825051.73647  20336070.2274                   20336067.8014
 -24364275.36948 -18974910.79346  20715922.0864                   20715919.1054
 -34456855.71946 -26838305.39343  23999586.1954                   23999583.3244
 -10737733.47746  -8356965.39943  24509939.7114                   24509942.1054
 -14155868.30547 -11020441.81545  22614415.3674                   22614412.2504
 -25843144.00448 -20129067.65145  21468593.2274                   21468591.5944
 -11110193.40048  -8643019.08945  22196438.3984                   22196435.9184
 11  9 28  1 56  0.0000000  0  7G29G15G05G30G21G26G18
 -35776115.99548 -27865527.36547  20326185.8594                   20326183.7774
 -24456787.81348 -19046998.37846  20698317.4844                   20698314.6954
 -34441901.62846 -26826652.86144  24002432.0474                   24002430.1724
 -10737372.77546  -8356684.34643  24510008.0944                   24510009.4384
 -14290102.49847 -11125039.81945  22588871.4614                   22588868.7854
 -25875567.54548 -20154332.73645  21462423.0474                   21462421.2234
 -11226990.87547  -8734030.02645  22174212.6564                   22174210.0274
 11  9 28  1 56 30.0000000  0  7G29G15G05G30G21G26G18
 -35827534.98348 -27905594.09847  20316400.7274                   20316398.9224
 -24548749.79048 -19118657.01746  20680817.8594                   20680815.0984
 -34427015.65146 -26815053.34944  24005264.8914                   24005263.4264
 -10736993.09046  -8356388.56443  24510079.5944                   24510082.6414
 -14424369.62247 -11229663.50745  22563321.4384                   22563318.1724
 -25907364.93647 -20179109.89545  21456372.3834                   21456370.7704
 -11343571.43048  -8824871.92045  22152028.3674                   22152025.4344
 11  9 28  1 57  0.0000000  0  7G29G15G05G30G21G26G18
 -35878422.78048 -27945246.91147  20306717.0164                   20306714.9454
 -24640153.52748 -19189880.67446  20663424.0554                   20663421.6644
 -34412192.47947 -26803502.82044  24008085.3754                   24008084.0864
 -10736590.84446  -8356075.10943  24510157.3054                   24510158.9264
 -14558662.09148 -11334306.93545  22537766.1174                   22537763.1644
 -25938530.90047 -20203395.04445  21450441.4694                   21450439.6564
 -11459929.25347  -8915540.27045  22129885.6564                   22129883.2934
 11  9 28  1 57 30.0000000  0  7G29G15G05G30G21G26G18
 -35928781.61448 -27984487.53847  20297134.2194                   20297132.2544
 -24731000.35048 -19260670.36846  20646136.6414                   20646133.5784
 -34397434.87647 -26792003.41244  24010894.0314                   24010891.7154
 -10736170.93746  -8355747.97543  24510236.8054                   24510239.2344
 -14692981.36347 -11438971.23745  22512206.1414                   22512202.8364
 -25969068.86047 -20227190.83945  21444630.2504                   21444628.8714
 -11576066.03647  -9006036.39145  22107785.9774                   22107783.0594
 11  9 28  1 58  0.0000000  0  7G29G15G05G30G21G26G18
 -35978613.98348 -28023317.94547  20287651.4924                   20287649.3794
 -24821291.48348 -19331027.05746  20628954.5784                   20628951.3484
 -34382746.12746 -26780557.59244  24013689.4224                   24013687.4224
 -10735738.39646  -8355410.85943  24510319.7584                   24510321.3794
 -14827328.55047 -11543657.32245  22486639.7664                   22486637.0554
 -25998982.36947 -20250500.04145  21438938.0864                   21438936.2274
 -11691984.65548  -9096362.49945  22085727.0474                   22085724.7704
 11  9 28  1 58 30.0000000  0  7G29G15G05G30G21G26G18
 -36027925.77248 -28061742.70547  20278267.4844                   20278265.3594
 -24911032.33348 -19400954.94746  20611877.4534                   20611874.9384
 -34368133.39746 -26769171.05244  24016469.4924                   24016467.9964
 -10735302.22046  -8355071.09543  24510401.5784                   24510403.7584
 -14961708.82247 -11648369.14745  22461068.6484                   22461065.8754
 -26028278.92147 -20273328.50545  21433363.1884                   21433361.8244
 -11807691.32547  -9186523.45745  22063708.8284                   22063706.3594
 11  9 28  1 59  0.0000000  0  7G29G15G05G30G21G26G18
 -36076720.03748 -28099764.19247  20268982.6644                   20268980.6174
 -25000224.22548 -19470455.08946  20594904.3754                   20594902.3914
 -34353600.26746 -26757846.56344  24019235.3594                   24019234.0824
 -10734867.82546  -8354732.62643  24510484.6564                   24510487.0474
 -15096123.24147 -11753107.60045  22435490.7814                   22435487.8674
 -26056962.32447 -20295679.17745  21427905.1334                   21427902.9884
 -11923188.71548  -9276521.33845  22041730.2504                   22041727.7114
 11  9 28  1 59 30.0000000  0  7G29G15G05G30G21G26G18
 -36124997.51048 -28137382.97747  20259795.2734                   20259793.3054
 -25088867.37248 -19539527.63546  20578036.5004                   20578033.6524
 -34339147.71646 -26746584.86744  24021985.7664                   24021983.2344
 -10734438.61946  -8354398.19243  24510566.6174                   24510569.8524
 -15230571.66047 -11857872.53345  22409905.2344                   22409903.1804
 -26085034.77247 -20317553.80145  21422562.5784                   21422560.7074
 -12038477.86847  -9366356.97445  22019791.1644                   22019788.7384
 11  9 28  2  0  0.0000000  0  7G29G15G05G30G21G26G18
 -36172760.77148 -28174601.09147  20250706.3834                   20250704.1174
 -25176963.73648 -19608174.10746  20561272.6094                   20561269.8444
 -34324779.63546 -26735389.00244  24024719.7274                   24024718.8554
 -10734020.25546  -8354072.23043  24510646.2814                   24510648.0744
 -15365055.28947 -11962664.89145  22384314.1804                   22384311.6884
 -26112500.47647 -20338955.62645  21417336.3284                   21417333.8674
 -12153561.87947  -9456032.73945  21997891.6484                   21997888.8594
 11  9 28  2  0 30.0000000  0  7G29G15G05G30G21G26G18
 -36220009.49448 -28211418.25747  20241715.2194                   20241713.3134
 -25264511.25648 -19676392.91546  20544612.7344                   20544609.9494
 -34310495.69046 -26724258.66344  24027438.1024                   24027436.8954
 -10733614.43746  -8353756.04443  24510723.6564                   24510726.1524
 -15499572.06247 -12067483.11045  22358716.5314                   22358713.6484
 -26139359.78347 -20359884.95445  21412224.7814                   21412222.8204
 -12268440.04147  -9545548.11145  21976030.4614                   21976027.9384
 11  9 28  2  1  0.0000000  0  7G29G15G05G30G21G26G18
 -36266743.25048 -28247834.16147  20232822.1174                   20232819.7194
 -25351508.84147 -19744183.21246  20528057.3984                   20528054.9384
 -34296296.54946 -26713194.43644  24030140.3594                   24030139.6294
 -10733223.71346  -8353451.67243  24510797.3364                   24510800.1454
 -15634120.67447 -12172326.09845  22333112.7664                   22333109.8634
 -26165613.91447 -20380342.69445  21407229.3134                   21407226.9104
 -12383112.09447  -9634902.88145  21954209.3524                   21954206.3794
 11  9 28  2  1 30.0000000  0  7G29G15G05G30G21G26G18
 -36312963.60248 -28283849.99947  20224026.8364                   20224024.6214
 -25437956.92948 -19811545.31046  20511606.8594                   20511604.3984
 -34282184.20946 -26702197.82544  24032825.1724                   24032824.6374
 -10732852.00246  -8353162.06843  24510868.7344                   24510871.0744
 -15768701.12847 -12277193.92445  22307502.8054                   22307500.0084
 -26191265.80147 -20400331.16345  21402348.1334                   21402346.1524
 -12497579.63947  -9724098.30045  21932426.7114                   21932424.1524
 11  9 28  2  2  0.0000000  0  7G29G15G05G30G21G26G18
 -36358671.54048 -28319466.56247  20215328.8284                   20215327.2974
 -25523855.50448 -19878479.23447  20495261.1024                   20495258.2854
 -34268160.23346 -26691270.12444  24035493.1484                   24035492.3244
 -10732502.82946  -8352889.97443  24510935.0944                   24510937.0394
 -15903312.81647 -12382086.06745  22281887.2344                   22281884.0984
 -26216317.41747 -20419851.88445  21397580.2504                   21397578.7894
 -12611843.51947  -9813135.02845  21910683.1954                   21910680.6804
 11  9 28  2  2 30.0000000  0  7G29G15G05G30G21G26G18
 -36403867.46148 -28354684.13647  20206728.4064                   20206725.9804
 -25609203.88348 -19944984.41546  20479019.5554                   20479017.1524
 -34254225.69646 -26680412.02344  24038145.5944                   24038144.5824
 -10732179.03346  -8352637.71143  24510997.2814                   24510997.5664
 -16037954.64047 -12487001.71745  22256265.4614                   22256262.4494
 -26240770.86847 -20438906.50145  21392927.3674                   21392924.9304
 -12725904.20147  -9902013.38945  21888978.2974                   21888975.8364
 11  9 28  2  3  0.0000000  0  7G29G15G05G30G21G26G18
 -34873131.24048 -27161902.65447  20498017.7424                   20498015.2934
 -24118579.73047 -18783459.07347  20762675.7424                   20762673.2894
 -32664962.48146 -25442025.11744  24340572.0784                   24340570.6374
  -9156464.40446  -7124808.18443  24810845.3204                   24810846.7154
 -14597202.19347 -11364337.40545  22530431.9064                   22530428.8524
 -24689207.40747 -19229896.00545  21688180.0004                   21688177.3984
 -11264339.35847  -8763131.62545  22167104.5314                   22167101.7114
 11  9 28  2  3 30.0000000  0  7G29G15G05G30G21G26G18
 -34917304.43048 -27196323.29847  20489612.0314                   20489609.9144
 -24202826.36748 -18849105.76446  20746644.5234                   20746641.6254
 -32651208.97646 -25431308.12544  24343189.8914                   24343187.0864
  -9156200.06746  -7124602.22342  24810894.9144                   24810898.0234
 -14731901.23747 -11469297.62245  22504798.9614                   22504796.0084
 -24712468.95947 -19248021.87245  21683753.1804                   21683751.6564
 -11377995.07247  -8851694.42545  22145476.4454                   22145473.8014
 11  9 28  2  4  0.0000000  0  7G29G15G05G30G21G26G18
 -34960968.06748 -27230346.89147  20481302.7734                   20481300.8364
 -24286522.38948 -18914323.41246  20730717.4774                   20730714.3404
 -32637548.48046 -25420663.57643  24345789.3134                   24345787.9344
  -9155970.73946  -7124423.57643  24810938.8754                   24810942.1764
 -14866627.94347 -11574279.41145  22479161.8364                   22479158.3674
 -24735138.22847 -19265686.21945  21679439.2274                   21679437.3244
 -11491449.76247  -8940100.60545  22123886.8984                   22123884.1134
 11  9 28  2  4 30.0000000  0  7G29G15G05G30G21G26G18
 -35004123.65648 -27263974.60647  20473090.7344                   20473088.3204
 -24369668.15448 -18979112.27646  20714895.4304                   20714892.4774
 -32623982.72046 -25410092.88743  24348370.7114                   24348367.7384
  -9155780.36046  -7124275.21643  24810975.0004                   24810977.7074
 -15001382.50047 -11679282.90145  22453518.2664                   22453515.1844
 -24757217.93347 -19282891.15945  21675237.8914                   21675235.7034
 -11604704.77247  -9028351.18745  22102335.1094                   22102332.3554
 11  9 28  2  5  0.0000000  0  7G29G15G05G30G21G26G18
 -35046769.43848 -27297205.07747  20464975.2114                   20464972.8204
 -24452260.98647 -19043470.30147  20699178.3594                   20699175.4384
 -32610510.57446 -25399595.06143  24350934.2424                   24350930.9224
  -9155629.67346  -7124157.78542  24811003.6254                   24811006.7074
 -15136161.90047 -11784305.75145  22427870.6564                   22427867.7274
 -24778708.17847 -19299636.79745  21671148.4614                   21671147.1374
 -11717758.58947  -9116444.98245  22080821.4774                   22080818.6804
 11  9 28  2  5 30.0000000  0  7G29G15G05G30G21G26G18
 -35088906.90348 -27330039.44647  20456956.5784                   20456954.5944
 -24534302.07347 -19107398.38046  20683566.4144                   20683563.6134
 -32597134.06746 -25389171.84443  24353479.7034                   24353476.9064
  -9155522.74746  -7124074.48143  24811023.5634                   24811025.8484
 -15270965.81747 -11889347.70545  22402218.1954                   22402215.3754
 -24799611.59047 -19315925.16245  21667170.4924                   21667168.2504
 -11830612.87447  -9204383.30345  22059345.9384                   22059343.2504
 11  9 28  2  6  0.0000000  0  7G29G15G05G30G21G26G18
 -35130536.30748 -27362477.93047  20449035.0864                   20449032.9614
 -24615789.79748 -19170895.27647  20668059.5634                   20668056.8594
 -32583853.10746 -25378823.04543  24356006.7344                   24356005.2664
  -9155461.31246  -7124026.54243  24811036.0314                   24811037.9694
 -15405792.35248 -11994407.29245  22376562.3444                   22376558.4344
 -24819929.36647 -19331757.16445  21663304.2114                   21663301.9184
 -11943267.22247  -9292165.83645  22037908.7814                   22037906.2274
 11  9 28  2  6 30.0000000  0  7G29G15G05G30G21G26G18
 -35171656.22148 -27394519.40347  20441210.3754                   20441207.9104
 -24696722.09048 -19233959.36347  20652658.7424                   20652656.2424
 -32570666.73646 -25368548.05443  24358516.1334                   24358513.7464
  -9155446.50646  -7124014.98343  24811039.3444                   24811040.8404
 -15540638.52148 -12099482.18345  22350901.5234                   22350898.7584
 -24839661.65047 -19347132.96145  21659549.4844                   21659547.1684
 -12055720.28047  -9379791.51945  22016509.4144                   22016506.3164
 11  9 28  2  7  0.0000000  0  7G29G15G05G30G21G26G18
 -35212269.83648 -27426166.36447  20433481.5944                   20433479.0594
 -24777101.40948 -19296592.57046  20637363.2664                   20637360.2974
 -32557578.65746 -25358349.51543  24361007.2734                   24361005.0904
  -9155484.11546  -7124044.31343  24811031.7974                   24811033.1454
 -15675505.96648 -12204573.63545  22325236.5004                   22325233.7854
 -24858813.09747 -19362056.16045  21655904.6884                   21655902.2934
 -12167974.72347  -9467262.43745  21995147.8444                   21995144.9734
 11  9 28  2  7 30.0000000  0  7G29G15G05G30G21G26G18
 -35252378.06448 -27457419.51347  20425849.4534                   20425847.0474
 -24856927.71648 -19358794.85246  20622172.7974                   20622170.4774
 -32544589.66846 -25348228.28744  24363478.9844                   24363476.6684
  -9155577.12146  -7124116.75143  24811014.4924                   24811017.0554
 -15810393.67147 -12309680.89345  22299568.3984                   22299565.2854
 -24877385.68047 -19376528.28745  21652370.0704                   21652368.5864
 -12280032.13248  -9554579.83345  21973824.0944                   21973820.9104
 11  9 28  2  8  0.0000000  0  6G29G15G05G21G26G18
 -35291982.14348 -27488279.83147  20418312.9384                   20418310.4924
 -24936200.80948 -19420566.06746  20607087.6484                   20607084.9024
 -32531700.65246 -25338184.88543  24365932.2584                   24365929.5274
 -15945300.37847 -12414802.96545  22273897.0084                   22273893.5004
 -24895381.53447 -19390551.02245  21648946.1564                   21648943.5984
 -12391892.29648  -9641743.52845  21952537.8444                   21952534.9844
 11  9 28  2  8 30.0000000  0  6G29G15G05G21G26G18
 -35331082.86348 -27518747.90947  20410872.3054                   20410870.0594
 -25014920.88448 -19481906.35147  20592107.8284                   20592104.8014
 -32518913.35246 -25328220.83244  24368364.6724                   24368362.8404
 -16080225.53447 -12519939.39345  22248221.2734                   22248218.4104
 -24912803.49747 -19404126.56645  21645630.7894                   21645629.3594
 -12503556.77048  -9728754.72645  21931288.7584                   21931285.9654
 11  9 28  2  9  0.0000000  0  6G29G15G05G21G26G18
 -35369674.41748 -27548819.23347  20403528.3054                   20403525.7464
 -25093081.07448 -19542810.36847  20577234.0474                   20577231.5434
 -32506221.82546 -25318331.37544  24370780.2504                   24370777.9304
 -16215161.04747 -12625083.89445  22222543.8834                   22222541.0744
 -24929646.76047 -19417251.18545  21642425.3134                   21642423.7384
 -12615019.33648  -9815608.62445  21910078.3364                   21910075.5164
 11  9 28  2  9 30.0000000  0  6G29G15G05G21G26G18
 -35407758.08348 -27578494.80547  20396281.6334                   20396279.2854
 -25170681.74948 -19603278.40646  20562466.9924                   20562464.4804
 -32493626.79446 -25308517.13144  24373177.3054                   24373174.7624
 -16350106.87147 -12730236.43445  22196864.6884                   22196860.9654
 -24945914.16847 -19429927.07545  21639329.9454                   21639327.9804
 -12726281.02548  -9902305.96945  21888906.0164                   21888902.5394
 11  9 28  2 10  0.0000000  0  6G29G15G05G21G26G18
 -35445337.67148 -27607777.58747  20389130.3674                   20389127.6724
 -25247725.64548 -19663312.58146  20547805.9224                   20547803.5124
 -32481132.98746 -25298781.65644  24375554.4844                   24375552.1994
 -16485064.47747 -12835398.14945  22171183.0164                   22171180.4454
 -24961610.43047 -19442157.93245  21636342.7734                   21636340.6094
 -12837345.22548  -9988849.43845  21867771.2344                   21867768.4494
 11  9 28  2 10 30.0000000  0  6G29G15G05G21G26G18
 -35482419.15948 -27636672.24747  20382073.7974                   20382072.1294
 -25324217.79348 -19722916.82246  20533250.3834                   20533247.6174
 -32468745.53046 -25289129.10344  24377911.6024                   24377910.3524
 -16620037.99447 -12940572.26345  22145497.7974                   22145494.8914
 -24976743.05747 -19453949.56345  21633463.7424                   21633461.6524
 -12948217.65348 -10075243.47745  21846672.6484                   21846669.5164
 11  9 28  2 11  0.0000000  0  6G29G15G05G21G26G18
 -35519005.38648 -27665180.98447  20375111.6644                   20375109.4694
 -25400160.10048 -19782092.61646  20518798.9384                   20518796.3554
 -32456467.11746 -25279561.56043  24380248.0004                   24380245.5474
 -16755027.58847 -13045758.90945  22119810.1884                   22119807.4414
 -24991316.00547 -19465305.11345  21630690.1254                   21630688.7934
 -13058900.63548 -10161489.89445  21825610.1644                   21825606.5904
 11  9 28  2 11 30.0000000  0  6G29G15G05G21G26G18
 -35555097.11248 -27693304.39647  20368243.7424                   20368241.1804
 -25475552.67548 -19840840.04446  20504452.3204                   20504449.2274
 -32444299.20146 -25270080.04343  24382563.5084                   24382562.5394
 -16890032.33347 -13150957.37245  22094119.8984                   22094116.5824
 -25005331.71047 -19476226.44545  21628023.0864                   21628021.2114
 -13169394.95348 -10247589.30845  21804583.5944                   21804580.6484
 11  9 28  2 12  0.0000000  0  6G29G15G05G21G26G18
 -35590695.16148 -27721043.12647  20361469.5084                   20361467.5824
 -25550395.38047 -19899159.01446  20490210.0474                   20490207.0394
 -32432242.06946 -25260684.96643  24384857.7034                   24384856.8054
 -17025051.24547 -13256166.84445  22068427.0234                   22068423.4804
 -25018792.07347 -19486715.02145  21625461.7504                   21625460.2544
 -13279700.78148 -10333541.83345  21783593.2584                   21783590.0704
 11  9 28  2 12 30.0000000  0  6G29G15G05G21G26G18
 -35625799.91948 -27748397.47047  20354788.9924                   20354787.2584
 -25624687.16547 -19957048.68446  20476072.7344                   20476070.2034
 -32420296.30346 -25251376.61343  24387130.7974                   24387129.1524
 -17160082.15347 -13361385.70045  22042731.2114                   22042727.2934
 -25031698.76847 -19496772.17945  21623005.5234                   21623003.9804
 -13389818.27748 -10419347.61745  21762638.2894                   21762635.3014
 11  9 28  2 13  0.0000000  0  6G29G15G05G21G26G18
 -35660411.87248 -27775367.81247  20348202.9774                   20348200.8484
 -25698427.90548 -20014508.96146  20462040.1564                   20462037.3794
 -32408461.64346 -25242154.83343  24389383.8984                   24389381.6454
 -17295123.57647 -13466612.73545  22017033.9304                   22017030.5004
 -25044053.66347 -19506399.36345  21620654.8134                   21620652.4414
 -13499747.78248 -10505006.91245  21741719.3984                   21741716.7504
 11  9 28  2 13 30.0000000  0  7G22G29G15G05G21G26G18
  17121184.02256  13353421.43053  24525630.2584                   24525628.0044
 -35694533.95648 -27801956.43347  20341709.7734                   20341707.8714
 -25771619.68547 -20071541.49646  20448112.0864                   20448109.7584
 -32396740.95946 -25233021.84143  24391613.8444                   24391611.1134
 -17430176.28647 -13571848.55645  21991334.2034                   21991330.3524
 -25055861.17547 -19515600.01945  21618408.0784                   21618405.6484
 -13609491.80648 -10590521.68845  21720835.8364                   21720832.8554
 11  9 28  2 14  0.0000000  0  7G22G29G15G05G21G26G18
  18550644.59346  14467287.04243  24797647.0164                   24797645.2304
 -34152749.96248 -26600566.30547  20635101.6644                   20635099.5004
 -24268844.24148 -18900547.62346  20734080.9534                   20734078.4654
 -30809719.25046 -23996381.56043  24693613.7034                   24693612.8484
 -15989818.04247 -12449491.43145  22265424.7344                   22265421.4344
 -23491707.16047 -18296778.71445  21916056.4924                   21916054.8634
 -12143630.79148  -9448292.26645  21999779.9454                   21999776.4884
 11  9 28  2 14 30.0000000  0  7G22G29G15G05G21G26G18
  18404788.75346  14353633.38543  24769891.3054                   24769889.0634
 -34185900.98948 -26626398.25246  20628793.0704                   20628790.7894
 -24340943.83348 -18956729.07846  20720360.5314                   20720357.9454
 -30798234.40846 -23987432.34744  24695800.0234                   24695797.2774
 -16124894.58447 -12554745.82645  22239720.7584                   22239716.8754
 -23502432.27947 -18305135.93345  21914015.5314                   21914013.1724
 -12253010.43447  -9533523.12045  21978965.4224                   21978962.1024
 11  9 28  2 15  0.0000000  0  7G22G29G15G05G21G26G18
  18259044.95446  14240067.06843  24742157.5314                   24742154.7154
 -34218563.98648 -26651849.93847  20622577.3594                   20622575.3794
 -24412493.22948 -19012481.83046  20706745.0634                   20706742.4344
 -30786864.12046 -23978572.41144  24697962.7974                   24697962.3954
 -16259977.17947 -12660004.95345  22214015.0234                   22214011.8674
 -23512615.45847 -18313070.87845  21912077.4304                   21912075.5864
 -12362204.98448  -9618609.72845  21958186.4694                   21958183.3484
 11  9 28  2 15 30.0000000  0  7G22G29G15G05G21G26G18
  18113416.89846  14126590.96743  24714445.1334                   24714443.2154
 -34250735.91148 -26676918.95246  20616455.2814                   20616452.7504
 -24483489.12347 -19067803.27846  20693235.0164                   20693231.8714
 -30775605.70346 -23969799.65544  24700105.4454                   24700105.0514
 -16395060.49247 -12765264.63845  22188309.9064                   22188306.3674
 -23522255.48347 -18320582.58345  21910243.0634                   21910240.7344
 -12471211.47348  -9703549.78645  21937443.4144                   21937440.0824
 11  9 28  2 16  0.0000000  0  7G22G29G15G05G21G26G18
  17967906.00146  14013206.05043  24686754.8364                   24686753.0554
 -34282417.04448 -26701605.54347  20610426.2034                   20610424.3594
 -24553930.76148 -19122692.83946  20679830.7114                   20679827.9614
 -30764458.67646 -23961113.67144  24702227.3054                   24702225.5864
 -16530141.98748 -12870522.88045  22162604.4384                   22162600.8284
 -23531353.24647 -18327671.74245  21908511.9304                   21908509.5664
 -12580028.92448  -9788342.56146  21916735.9534                   21916733.3674
 11  9 28  2 16 30.0000000  0  7G22G29G15G05G21G26G18
  17822515.22646  13899914.85243  24659088.6414                   24659085.8714
 -34313605.24748 -26725908.02247  20604491.5084                   20604489.1134
 -24623814.95948 -19177148.03546  20666532.2734                   20666528.9304
 -30753420.55946 -23952512.53844  24704327.0394                   24704327.1844
 -16665217.70648 -12975776.63846  22136900.4384                   22136897.1524
 -23539908.52947 -18334338.20745  21906883.3444                   21906881.3324
 -12688655.11748  -9872986.28946  21896065.3914                   21896062.2344
 11  9 28  2 17  0.0000000  0  7G22G29G15G05G21G26G18
  17677246.52946  13786718.78643  24631443.1334                   24631442.3164
 -34344300.16748 -26749826.13747  20598650.7034                   20598648.1604
 -24693140.31047 -19231167.77146  20653340.0784                   20653337.6804
 -30742490.72346 -23943995.82144  24706407.3834                   24706406.1724
 -16800284.56247 -13081023.47745  22111197.9304                   22111194.5204
 -23547922.20347 -18340582.60945  21905358.4224                   21905356.7774
 -12797088.88448  -9957480.08945  21875430.3674                   21875427.3134
 11  9 28  2 17 30.0000000  0  7G22G29G15G05G21G26G18
  17532099.54046  13673617.49743  24603822.5944                   24603820.6884
 -34374503.41248 -26773361.12146  20592902.8914                   20592900.7034
 -24761907.61448 -19284752.64947  20640254.4614                   20640251.2584
 -30731669.89146 -23935564.00944  24708466.2664                   24708464.8324
 -16935341.67948 -13186262.75046  22085497.3444                   22085493.8554
 -23555396.98047 -18346407.10945  21903936.4614                   21903934.1844
 -12905331.63148 -10041825.03845  21854832.2584                   21854829.4184
 11  9 28  2 18  0.0000000  0  7G22G29G15G05G21G26G18
  17387075.52246  13560611.99744  24576225.8674                   24576223.6564
 -34404215.07148 -26796513.06247  20587249.1174                   20587247.3244
 -24830116.01848 -19337902.03646  20627274.4844                   20627271.4304
 -30720957.87146 -23927217.01143  24710504.9454                   24710503.8484
 -17070386.68148 -13291492.59046  22059799.3754                   22059795.5124
 -23562334.20347 -18351812.75845  21902616.4924                   21902614.2774
 -13013382.57448 -10126020.50646  21834270.9224                   21834268.0084
 11  9 28  2 18 30.0000000  0  7G22G29G15G05G21G26G18
  17242171.88746  13447700.33543  24548651.6564                   24548649.8444
 -34433439.23348 -26819285.12947  20581687.8134                   20581685.8094
 -24897768.56848 -19390618.27646  20614400.5394                   20614398.1454
 -30710358.24746 -23918957.58143  24712522.1414                   24712521.6174
 -17205421.12848 -13396714.18445  22034102.7504                   22034099.5274
 -23568739.42047 -18356803.82345  21901397.5314                   21901394.9844
 -13121244.99148 -10210069.09545  21813745.5784                   21813742.2304
 11  9 28  2 19  0.0000000  0  7G22G29G15G05G21G26G18
  17097389.97846  13334883.53444  24521099.3674                   24521098.2974
 -34462175.49348 -26841677.00946  20576219.7344                   20576217.5664
 -24964864.27948 -19442900.63047  20601632.6884                   20601629.4384
 -30699869.53146 -23910784.57043  24714517.9614                   24714516.8364
 -17340441.98148 -13501925.18646  22008409.4614                   22008405.9064
 -23574613.44647 -18361380.98445  21900279.5314                   21900277.8754
 -13228918.37648 -10293970.37945  21793256.2424                   21793253.1054
 11  9 28  2 19 30.0000000  0  7G22G29G15G05G21G26G18
  16952731.99646  13222163.26144  24493572.3834                   24493570.2934
 -34490423.56348 -26863688.48946  20570844.2034                   20570841.8094
 -25031402.24948 -19494748.37046  20588970.8524                   20588967.8914
 -30689491.42345 -23902697.78942  24716491.9694                   24716491.2464
 -17475446.34948 -13607123.35046  21982718.5554                   21982715.1454
 -23579957.71247 -18365545.35245  21899262.2584                   21899260.5044
 -13336402.14248 -10377723.89246  21772802.6254                   21772799.5664
 11  9 28  2 20  0.0000000  0  7G22G29G15G05G21G26G18
  16808195.05046  13109537.37444  24466067.8284                   24466066.1094
 -34518187.25048 -26885322.52447  20565561.0394                   20565558.5434
 -25097385.06348 -19546163.51846  20576414.5704                   20576411.6454
 -30679226.76546 -23894699.36643  24718445.5084                   24718445.8634
 -17610435.09347 -13712309.34445  21957031.2504                   21957027.7384
 -23584776.82547 -18369300.51445  21898345.7274                   21898343.9384
 -13443699.06948 -10461331.85246  21752384.4064                   21752381.4414
 11  9 28  2 20 30.0000000  0  7G22G29G15G05G21G26G18
  16663781.94047  12997007.93843  24438586.4304                   24438583.5784
 -34545465.80448 -26906578.53646  20560369.8594                   20560367.9184
 -25162811.08448 -19597144.81746  20563964.4614                   20563961.5984
 -30669074.16446 -23886788.25743  24720377.4224                   24720376.9264
 -17745405.29247 -13817480.89045  21931347.0704                   21931344.1174
 -23589071.33947 -18372646.88645  21897528.4454                   21897526.3714
 -13550807.45347 -10544792.86146  21732002.7424                   21731999.7424
 11  9 28  2 21  0.0000000  0  7G22G29G15G05G21G26G18
  16519490.75646  12884573.46744  24411127.8134                   24411126.2424
 -34572261.99648 -26927458.69046  20555271.0784                   20555268.6994
 -25227682.33948 -19647693.82047  20551619.8204                   20551616.6564
 -30659035.56246 -23878965.93343  24722288.8204                   24722286.0474
 -17880356.96047 -13922637.98646  21905666.6484                   21905663.0164
 -23592845.48947 -18375587.78945  21896810.2974                   21896808.0634
 -13657729.88247 -10628108.97046  21711655.8364                   21711651.8794
 11  9 28  2 21 30.0000000  0  7G22G29G15G05G21G26G18
  16375324.11846  12772236.09944  24383693.9844                   24383691.9964
 -34598574.96948 -26947962.30646  20550263.6564                   20550261.3014
 -25291996.83248 -19697808.98446  20539380.9384                   20539378.1374
 -30649109.57046 -23871231.42643  24724176.9614                   24724175.8794
 -18015286.15847 -14027777.58746  21879990.6484                   21879987.3164
 -23596099.33347 -18378123.25045  21896191.3134                   21896189.3204
 -13764463.77347 -10711278.18746  21691345.0704                   21691341.5664
 11  9 28  2 22  0.0000000  0  7G22G29G15G05G21G26G18
  16231282.50446  12659996.14644  24356284.6254                   24356280.7034
 -34624405.77548 -26968090.19746  20545348.4064                   20545345.8754
 -25355754.87548 -19747490.55946  20527248.5084                   20527245.7154
 -30639296.39346 -23863584.75543  24726044.6414                   24726043.8874
 -18150191.56547 -14132898.65446  21854319.0164                   21854315.1884
 -23598835.65247 -18380255.45345  21895670.5864                   21895668.3984
 -13871010.86447 -10794301.85246  21671069.8364                   21671066.0944
 11  9 28  2 22 30.0000000  0  6G22G29G15G21G26G18
  16087363.60346  12547851.84944  24328896.6564                   24328894.2234
 -34649757.73348 -26987844.96446  20540523.6334                   20540521.5204
 -25418959.28848 -19796740.72746  20515221.2034                   20515218.3554
 -18285072.67947 -14238000.78845  21828652.3984                   21828647.7934
 -23601058.91447 -18381987.86245  21895247.2814                   21895245.1134
 -13977373.32847 -10877181.63246  21650829.6804                   21650826.3054
 11  9 28  2 23  0.0000000  0  6G22G29G15G21G26G18
  15943570.04546  12435805.16443  24301534.3054                   24301531.6174
 -34674630.27148 -27007226.16346  20535791.0314                   20535788.7624
 -25481608.27448 -19845558.09946  20503299.4144                   20503296.8094
 -18419927.16647 -14343082.17746  21802989.8834                   21802985.8054
 -23602769.94947 -18383321.15845  21894921.8674                   21894919.8754
 -14083549.87147 -10959916.55146  21630624.8914                   21630621.4104
 11  9 28  2 23 30.0000000  0  6G22G29G15G21G26G18
  15799906.39646  12323859.74043  24274195.8134                   24274191.9384
 -34699019.76848 -27026230.96446  20531149.7504                   20531147.6254
 -25543698.03648 -19893939.71247  20491484.0474                   20491481.2034
 -18554748.96947 -14448138.09846  21777334.3134                   21777331.1454
 -23603966.46847 -18384253.50445  21894694.0784                   21894692.2934
 -14189536.40447 -11042503.41146  21610455.8834                   21610453.1214
 11  9 28  2 24  0.0000000  0  6G22G29G15G21G26G18
  15656374.12246  12212016.65643  24246881.6804                   24246879.1724
 -34722926.77748 -27044859.79346  20526600.2344                   20526598.1804
 -25605227.79748 -19941884.97147  20479775.1804                   20479772.6054
 -18689534.60047 -14553165.84146  21751685.4774                   21751681.5664
 -23604650.09947 -18384786.23945  21894564.5474                   21894562.0704
 -14295332.50448 -11124941.90246  21590323.9694                   21590320.8524
 11  9 28  2 24 30.0000000  0  6G22G29G15G21G26G18
  17088392.79246  13327875.64443  24519386.5084                   24519383.2544
 -33170936.67948 -25835516.85646  20821934.0634                   20821931.9884
 -24090780.85948 -18761796.43046  20767964.6804                   20767962.3674
 -17248863.43447 -13430564.88646  22025835.9224                   22025832.1054
 -22029408.44947 -17157325.20845  22194322.4454                   22194320.9184
 -12825519.73947  -9979633.21646  21870020.0944                   21870015.9614
 11  9 28  2 25  0.0000000  0  6G22G29G15G21G26G18
  16945108.57946  13216225.89943  24492119.8594                   24492116.1094
 -33193897.26848 -25853408.23547  20817565.0234                   20817562.7934
 -24151206.47648 -18808881.31146  20756466.0164                   20756463.1374
 -17383587.15647 -13535544.39346  22000198.4534                   22000194.9224
 -22029088.46547 -17157075.86945  22194383.0084                   22194381.9574
 -12930950.49947 -10061787.01246  21849957.3134                   21849953.8634
 11  9 28  2 25 30.0000000  0  6G22G29G15G21G26G18
  16801945.29546  13104670.32943  24464875.8134                   24464873.6254
 -33216390.02848 -25870935.07046  20813284.9384                   20813282.7274
 -24211084.68848 -18855539.64746  20745071.8284                   20745068.7154
 -17518281.06747 -13640500.65746  21974567.3134                   21974563.5744
 -22028274.43347 -17156441.56745  22194538.5784                   22194536.5044
 -13036202.94148 -10143801.87445  21829928.0554                   21829925.3134
 11  9 28  2 26  0.0000000  0  6G22G29G15G21G26G18
  16658903.06546  12993209.07743  24437655.9774                   24437652.1844
 -33238416.37948 -25888098.45446  20809093.2344                   20809091.0044
 -24270415.56348 -18901771.49446  20733781.3674                   20733778.2774
 -17652943.60447 -13745432.47746  21948942.0234                   21948938.0474
 -22026968.45447 -17155423.95345  22194786.7584                   22194785.3794
 -13141277.95847 -10225678.46045  21809933.2974                   21809930.0084
 11  9 28  2 26 30.0000000  0  6G22G29G15G21G26G18
  16515983.19746  12881843.24743  24410458.9454                   24410454.7194
 -33259976.71548 -25904898.72546  20804990.5944                   20804988.7624
 -24329199.00148 -18947576.76146  20722595.5164                   20722593.0514
 -17787571.89248 -13850337.60646  21923322.9924                   21923319.3874
 -22025172.45247 -17154024.47545  22195128.8444                   22195126.7464
 -13246174.92948 -10307416.32846  21789971.7504                   21789968.4304
 11  9 28  2 27  0.0000000  0  6G22G29G15G21G26G18
  16373182.29346  12770569.97943  24383284.0634                   24383281.5314
 -33281076.19348 -25921339.86746  20800975.7274                   20800972.9304
 -24387439.06048 -18992958.61146  20711512.7894                   20711509.8364
 -17922168.14048 -13955217.77746  21897710.2664                   21897706.7814
 -22022892.80647 -17152248.16644  22195562.5164                   22195560.5904
 -13350898.06048 -10389018.74046  21770043.6564                   21770040.1764
 11  9 28  2 27 30.0000000  0  6G22G29G15G21G26G18
  16230503.07446  12659391.61444  24356134.3674                   24356130.3164
 -33301713.44248 -25937420.84446  20797048.1484                   20797045.8714
 -24445133.89948 -19037915.62046  20700533.6954                   20700530.8094
 -18056727.39848 -14060069.10446  21872104.5314                   21872100.4734
 -22020129.25047 -17150094.74345  22196088.5784                   22196086.2854
 -13455445.16547 -10470483.99246  21750149.2424                   21750145.6094
 11  9 28  2 28  0.0000000  0  6G22G29G15G21G26G18
  16087944.33346  12548307.05444  24329004.8754                   24329002.0864
 -33321891.29248 -25953143.84446  20793208.6954                   20793206.2584
 -24502285.64548 -19082449.44446  20689658.1174                   20689655.3914
 -18191249.93047 -14164891.83546  21846505.5554                   21846501.5904
 -22016886.07547 -17147567.59344  22196705.7194                   22196703.0164
 -13559817.86948 -10551813.33846  21730287.7034                   21730284.0664
 11  9 28  2 28 30.0000000  0  6G22G29G15G21G26G18
  15945507.60846  12437317.62144  24301900.8674                   24301896.8524
 -33341609.88148 -25968508.98446  20789456.1564                   20789453.8444
 -24558893.10448 -19126559.14346  20678885.8364                   20678882.8204
 -18325732.78947 -14269683.64446  21820914.1414                   21820910.5314
 -22013164.29447 -17144667.49645  22197413.4614                   22197412.0824
 -13664015.66147 -10633006.38946  21710459.2584                   21710455.6294
 11  9 28  2 29  0.0000000  0  7G22G29G09G15G21G26G18
  15803191.71947  12326422.29744  24274819.1804                   24274816.0984
 -33360872.10648 -25983518.49846  20785790.6564                   20785788.5354
  20250899.24756  15794040.29653  24895272.5234                   24895270.9024
 -24614958.80048 -19170246.69046  20668217.2894                   20668214.0434
 -18460175.45747 -14374444.13346  21795330.7814                   21795327.0554
 -22008968.48547 -17141398.07245  22198211.9844                   22198209.6174
 -13768041.00647 -10714065.08346  21690663.6484                   21690660.9884
 11  9 28  2 29 30.0000000  0  7G22G29G09G15G21G26G18
  15660994.25647  12215619.28444  24247759.0084                   24247756.3674
 -33379682.12048 -25998175.66246  20782211.1254                   20782208.9964
  20091937.51746  15670174.19543  24865022.3444                   24865020.9494
 -24670485.97248 -19213514.61246  20657650.2664                   20657647.3524
 -18594578.72347 -14479173.91846  21769754.3594                   21769750.9144
 -22004303.72147 -17137763.17945  22199099.7034                   22199098.4454
 -13871896.48047 -10794991.39546  21670900.4924                   21670897.2344
 11  9 28  2 30  0.0000000  0  7G22G29G09G15G21G26G18
  15518915.82646  12104908.96344  24220722.3284                   24220720.0514
 -33398040.91948 -26012481.22946  20778717.7194                   20778715.2664
  19932831.53246  15546195.58343  24834745.7424                   24834744.2894
 -24725474.87948 -19256363.10346  20647186.6414                   20647183.9144
 -18728940.19347 -14583871.13646  21744186.5314                   21744183.1094
 -21999172.20647 -17133764.63845  22200075.7974                   22200074.1374
 -13975582.05547 -10875785.34046  21651170.3524                   21651166.3244
 11  9 28  2 30 30.0000000  0  7G22G29G09G15G21G26G18
  15376960.23447  11994294.45744  24193709.0704                   24193705.3244
 -33415946.10348 -26026433.31646  20775310.7664                   20775308.1134
  19773587.62246  15422109.55843  24804443.1484                   24804442.1374
 -24779922.56748 -19298789.86146  20636825.0864                   20636822.3714
 -18863254.79947 -14688531.83546  21718627.2504                   21718623.9494
 -21993573.15847 -17129401.74345  22201142.3284                   22201140.2734
 -14079095.10147 -10956444.81345  21631472.3284                   21631468.7304
 11  9 28  2 31  0.0000000  0  7G22G29G09G15G21G26G18
  15235130.21846  11883777.68244  24166719.3984                   24166716.5274
 -33433397.04348 -26040031.46846  20771989.7814                   20771987.1414
  19614212.12446  15297921.03043  24774113.9924                   24774111.7974
 -24833827.09248 -19340793.38746  20626567.8754                   20626565.0634
 -18997517.75447 -14793152.28846  21693077.6414                   21693073.7544
 -21987506.42747 -17124674.42244  22202296.5864                   22202294.4964
 -14182432.83847 -11036967.71546  21611807.2974                   21611804.1914
 11  9 28  2 31 30.0000000  0  7G22G29G09G15G21G26G18
  15093430.27046  11773362.28944  24139754.9694                   24139751.7154
 -33450390.92748 -26053273.46746  20768756.1174                   20768753.6294
  19454711.95146  15173635.27943  24743762.1954                   24743759.9884
 -24887185.54548 -19382371.38646  20616414.1884                   20616411.2384
 -19131723.43447 -14897728.11946  21667539.0634                   21667535.5634
 -21980970.86147 -17119581.78545  22203540.2974                   22203537.8874
 -14285592.12047 -11117351.53946  21592176.9614                   21592174.1174
 11  9 28  2 32  0.0000000  0  7G22G29G09G15G21G26G18
  14951862.38446  11663049.78244  24112815.5394                   24112811.8874
 -33466927.19848 -26066158.87646  20765609.1254                   20765607.0314
  19295091.75646  15049256.13443  24713387.9924                   24713385.7344
 -24939996.45048 -19423522.74346  20606364.3134                   20606361.3984
 -19265868.10247 -15002256.41346  21642012.4144                   21642007.9064
 -21973967.16647 -17114124.38544  22204872.9924                   22204870.5864
 -14388571.91047 -11197595.50646  21572580.6644                   21572577.1954
 11  9 28  2 32 30.0000000  0  7G22G29G09G15G21G26G18
  14810426.23746  11552839.94944  24085900.0944                   24085897.2074
 -33483007.88147 -26078689.28146  20762548.9534                   20762546.3054
  19135355.12446  14924786.14743  24682990.4534                   24682989.1334
 -24992260.98248 -19464248.33546  20596418.8834                   20596416.3204
 -19399950.37147 -15106736.07546  21616497.3444                   21616493.1844
 -21966498.40047 -17108304.57045  22206294.2194                   22206292.0394
 -14491372.54147 -11277699.87846  21553018.3134                   21553014.7114
 11  9 28  2 33  0.0000000  0  7G22G29G09G15G21G26G18
  14669121.92446  11442732.85044  24059011.1564                   24059007.4734
 -33498634.83747 -26090866.13546  20759575.3204                   20759573.0164
  18975504.58646  14800227.41643  24652572.0554                   24652572.0124
 -25043980.34448 -19504549.13346  20586576.8204                   20586574.0434
 -19533968.29647 -15211165.58446  21590994.4384                   21590990.6524
 -21958567.81647 -17102124.88644  22207803.9454                   22207801.3134
 -14593994.83647 -11357665.26646  21533489.7504                   21533486.6684
 11  9 28  2 33 30.0000000  0  7G22G29G09G15G21G26G18
  14527948.81646  11332727.96244  24032146.2424                   24032143.4734
 -33513810.65347 -26102691.44846  20756687.5784                   20756685.1024
  18815542.23746  14675581.50143  24622131.6254                   24622130.9184
 -25095156.35648 -19544426.53946  20576838.6414                   20576835.6414
 -19667921.31647 -15315544.53546  21565503.9384                   21565500.4224
 -21950178.68247 -17095587.90744  22209400.0634                   22209397.0944
 -14696440.11547 -11437492.74246  21513995.1884                   21513992.7704
 11  9 28  2 34  0.0000000  0  7G22G29G09G15G21G26G18
  14386906.84346  11222825.23944  24005307.3134                   24005304.3164
 -33528536.91248 -26114166.47346  20753885.3054                   20753882.8524
  18655471.17846  14550851.00244  24591671.2584                   24591670.5084
 -25145789.56848 -19583880.98246  20567203.3524                   20567200.3324
 -19801807.67047 -15419871.54346  21540026.2424                   21540022.5164
 -21941334.18947 -17088696.09344  22211081.9844                   22211079.8834
 -14798709.20847 -11517182.91746  21494534.1174                   21494530.4104
 11  9 28  2 34 30.0000000  0  7G22G29G09G15G21G26G18
  14245994.92146  11113023.86344  23978492.2034                   23978489.3484
 -33542816.50748 -26125293.42446  20751167.6484                   20751165.3834
  18495293.21146  14426037.12543  24561190.9614                   24561189.3914
 -25195882.24348 -19622914.22646  20557671.2194                   20557668.3794
 -19935626.52748 -15524145.95446  21514561.3914                   21514558.1764
 -21932038.23547 -17081452.49244  22212851.6954                   22212849.4104
 -14900803.85448 -11596737.15246  21475105.7664                   21475102.7934
 11  9 28  2 35  0.0000000  0  7G22G29G09G15G21G26G18
  14105216.21246  11003326.30244  23951702.6484                   23951699.6484
 -33556648.02447 -26136071.24746  20748535.9224                   20748533.8594
  18335015.05446  14301145.14643  24530690.7734                   24530689.3594
 -25245432.40348 -19661524.73046  20548241.9534                   20548238.8244
 -20069372.70548 -15628363.72646  21489110.5164                   21489106.7704
 -21922290.56647 -17073856.92144  22214706.0704                   22214704.6954
 -15002721.44547 -11676153.42946  21455711.7424                   21455709.0554
 11  9 28  2 35 30.0000000  0  7G22G29G09G15G21G26G18
  15539996.57546  12121337.08543  24224731.6024                   24224728.9224
 -31994611.67447 -24918900.06446  21045781.6484                   21045779.5514
  19750065.86346  15403782.25044  24799965.9064                   24799964.9694
 -23719018.88448 -18472111.59146  20838708.4454                   20838705.9304
 -18627618.73247 -14504919.04546  21763466.9384                   21763463.4734
 -20336673.48047 -15838311.16844  22516439.8054                   22516437.4064
 -13529038.16748 -10527828.78146  21736144.6094                   21736141.0434
 11  9 28  2 36  0.0000000  0  7G22G29G09G15G21G26G18
  15399484.19346  12011847.00343  24197994.0634                   24197989.3834
 -32007552.57347 -24928983.89646  21043318.8594                   21043316.7544
  19589595.78646  15278740.74844  24769429.1024                   24769428.7034
 -23767487.81948 -18509879.59146  20829485.3594                   20829482.3094
 -18761214.92748 -14609019.96046  21738044.0704                   21738040.7934
 -20326031.38046 -15830018.61845  22518464.5004                   22518462.6994
 -13630603.78447 -10606970.79746  21716817.1254                   21716813.4964
 11  9 28  2 36 30.0000000  0  7G22G29G09G15G21G26G18
  15259100.73546  11902457.44243  24171279.8134                   24171275.5634
 -32020055.21047 -24938726.21946  21040939.6954                   21040937.5124
  19429030.10646  15153624.73444  24738873.7814                   24738873.0944
 -23815421.62448 -18547230.58746  20820363.9384                   20820361.1524
 -18894737.63747 -14713063.61246  21712635.7974                   21712632.1994
 -20314950.51147 -15821384.15544  22520573.7344                   22520571.0904
 -13731999.13347 -10685980.12846  21697522.2194                   21697518.3714
 11  9 28  2 37  0.0000000  0  7G22G29G09G15G21G26G18
  15118850.27646  11793171.44643  24144590.3674                   24144586.7854
 -32032117.07347 -24948125.08946  21038644.1884                   21038642.2664
  19268375.73146  15028439.57143  24708302.7974                   24708301.6294
 -23862817.55148 -18584162.48247  20811344.6484                   20811341.7114
 -19028181.24447 -14817045.62646  21687242.6174                   21687238.8134
 -20303430.13547 -15812407.23744  22522765.8204                   22522763.4184
 -13833220.04947 -10764853.53346  21678260.4614                   21678256.8284
 11  9 28  2 37 30.0000000  0  7G22G29G09G15G21G26G18
  14978732.41446  11683988.80143  24117927.4224                   24117924.0864
 -32043740.95848 -24957182.67146  21036432.5234                   21036430.3014
  19107635.08746  14903187.23243  24677714.7114                   24677713.3634
 -23909677.75648 -18620676.90746  20802427.6884                   20802424.3634
 -19161544.43248 -14920964.96446  21661864.6024                   21661860.8524
 -20291473.89847 -15803090.71144  22525040.5474                   22525038.7194
 -13934268.35247 -10843592.45546  21659031.3284                   21659028.0744
 11  9 28  2 38  0.0000000  0  7G22G29G09G15G21G26G18
  14838744.62447  11574907.47844  24091289.4304                   24091285.1684
 -32054930.90448 -24965902.12246  21034303.3134                   21034300.8634
  18946809.27146  14777868.44043  24647110.1024                   24647109.4964
 -23956005.21848 -18656776.21646  20793611.5704                   20793608.6334
 -19294827.40048 -15024821.79546  21636501.5474                   21636497.5594
 -20279086.66347 -15793438.32844  22527398.4534                   22527395.7344
 -14035146.60248 -10922198.85246  21639835.4224                   21639830.9064
 11  9 28  2 38 30.0000000  0  7G22G29G09G15G21G26G18
  14698889.05447  11465929.22744  24064674.8834                   24064671.1884
 -32065686.53248 -24974283.13746  21032256.5004                   21032254.2624
  18785903.74646  14652487.60943  24616491.5474                   24616489.7814
 -24001799.10947 -18692459.75946  20784897.2194                   20784894.3134
 -19428026.61248 -15128613.35846  21611154.1254                   21611150.3554
 -20266269.66847 -15783451.05944  22529836.8984                   22529835.0164
 -14135853.45248 -11000671.68646  21620671.3284                   21620667.5084
 11  9 28  2 39  0.0000000  0  7G22G29G09G15G21G26G18
  14559162.64047  11357051.57544  24038085.9224                   24038082.3094
 -32076012.98448 -24982329.73246  21030291.3914                   21030289.3014
  18624918.62146  14527044.71243  24585856.2664                   24585853.5944
 -24047063.89147 -18727731.01446  20776283.5084                   20776280.7424
 -19561143.06247 -15232340.44046  21585822.9774                   21585819.1914
 -20253028.54747 -15773133.29344  22532356.6484                   22532354.4804
 -14236392.67547 -11079013.93046  21601539.0634                   21601535.2664
 11  9 28  2 39 30.0000000  0  7G22G29G09G15G21G26G18
  14419566.52047  11248275.47944  24011521.5164                   24011517.8094
 -32085910.98647 -24990042.47346  21028407.6254                   21028405.6024
  18463857.89946  14401542.86943  24555208.5704                   24555204.8404
 -24091799.68147 -18762590.06146  20767770.6334                   20767767.7504
 -19694173.64247 -15336000.60746  21560508.2424                   21560504.5234
 -20239365.60246 -15762486.85544  22534956.0554                   22534954.0314
 -14336763.71347 -11157225.08146  21582439.2584                   21582435.1024
 11  9 28  2 40  0.0000000  0  7G22G29G09G15G21G26G18
  14280101.02547  11139601.13544  23984982.3834                   23984978.9104
 -32095382.23547 -24997422.69146  21026605.6414                   21026603.2814
  18302725.00446  14275984.86443  24524545.1954                   24524544.2034
 -24136007.81547 -18797037.94946  20759358.2114                   20759355.6954
 -19827116.41347 -15439592.35246  21535210.0554                   21535206.2734
 -20225283.60046 -15751513.86144  22537636.4694                   22537634.4694
 -14436967.34847 -11235305.82246  21563371.1094                   21563367.3284
 11  9 28  2 40 30.0000000  0  7G22G29G09G15G21G26G18
  14140765.41547  11031028.02144  23958467.0704                   23958462.9384
 -32104429.25347 -25004472.33546  21024884.2734                   21024881.7234
  18141522.42845  14150372.57443  24493868.3594                   24493867.6484
 -24179689.35447 -18831075.49646  20751046.1414                   20751042.9344
 -19959970.30447 -15543114.83346  21509928.8284                   21509925.0474
 -20210785.82746 -15740216.87644  22540395.2734                   22540393.9494
 -14537004.38947 -11313256.73546  21544334.5474                   21544330.9104
 11  9 28  2 41  0.0000000  0  8G22G29G09G06G15G21G26G18
  14001562.20247  10922558.07644  23931977.9924                   23931974.1844
 -32113051.38548 -25011190.88846  21023243.6094                   21023241.1804
  17980256.06646  14024710.55943  24463181.1804                   24463178.7734
  21823245.63255  17019346.68852  24810151.0784                   24810149.9614
 -24222843.44447 -18864702.04646  20742833.7664                   20742830.7424
 -20092730.60648 -15646564.39846  21484665.2734                   21484661.4304
 -20195872.89946 -15728596.45344  22543233.3524                   22543230.9344
 -14636873.06148 -11391076.45546  21525329.8914                   21525326.2664
 11  9 28  2 41 30.0000000  0  8G22G29G09G06G15G21G26G18
  13862488.48847  10814189.04144  23905512.4534                   23905509.4184
 -32121253.65447 -25017582.28046  21021682.6414                   21021680.2704
  17818926.34545  13898999.16543  24432480.9304                   24432478.8014
  21662718.29245  16894260.60242  24779604.2274                   24779602.0984
 -24265474.52248 -18897921.06246  20734720.8984                   20734718.3714
 -20225398.15348 -15749941.68846  21459419.1094                   21459415.4774
 -20180550.68446 -15716657.07944  22546149.0554                   22546146.7704
 -14736576.94047 -11468767.74646  21506356.8054                   21506353.4964
 11  9 28  2 42  0.0000000  0  8G22G29G09G06G15G21G26G18
  13723541.14347  10705918.44944  23879071.8134                   23879068.2544
 -32129040.93047 -25023650.31246  21020200.6024                   21020198.0784
  17657533.10745  13773238.25643  24401769.6414                   24401767.2154
  21502416.73445  16769350.41842  24749100.1644                   24749097.9614
 -24307586.60748 -18930735.66046  20726707.5864                   20726704.7344
 -20357974.46648 -15853247.88046  21434191.2274                   21434186.8324
 -20164825.46246 -15704403.65344  22549141.0554                   22549139.3244
 -14836120.12248 -11546333.81546  21487414.5864                   21487410.9344
 11  9 28  2 42 30.0000000  0  8G22G29G09G06G15G21G26G18
  13584724.60347  10597749.81344  23852655.6884                   23852652.6564
 -32136410.80448 -25029393.07746  21018797.9534                   21018795.5594
  17496084.02846  13647433.80743  24371046.3444                   24371044.3834
  21342347.95446  16644621.56943  24718639.6414                   24718638.1644
 -24349176.65247 -18963143.49046  20718792.9224                   20718790.3954
 -20490453.10647 -15956477.96846  21408980.6884                   21408977.5514
 -20148695.70146 -15691835.03944  22552210.3594                   22552209.0634
 -14935498.31447 -11623771.35246  21468503.5084                   21468500.1254
 11  9 28  2 43  0.0000000  0  8G22G29G09G06G15G21G26G18
  13446040.97147  10489684.76144  23826265.2274                   23826261.1374
 -32143363.14348 -25034810.49446  21017475.2894                   21017472.9224
  17334584.83646  13521590.41243  24340313.3524                   24340312.2464
  21182516.61345  16520077.79743  24688224.4924                   24688223.4454
 -24390243.92147 -18995143.95946  20710978.4774                   20710975.7034
 -20622829.98148 -16059628.76046  21383790.4064                   21383786.8594
 -20132162.15546 -15678951.75144  22555356.6724                   22555355.7624
 -15034709.73147 -11701078.91146  21449624.2664                   21449620.5664
 11  9 28  2 43 30.0000000  0  8G22G29G09G06G15G21G26G18
  13307494.54847  10381726.58244  23799900.5314                   23799897.0044
 -32149895.45948 -25039900.63746  21016232.2274                   21016229.9144
  17173043.08046  13395713.72543  24309572.8364                   24309571.9144
  21022929.55745  16395724.26643  24657857.3134                   24657854.6374
 -24430785.51347 -19026734.80046  20703263.7504                   20703261.0514
 -20755098.45248 -16162695.07746  21358620.9924                   21358616.8524
 -20115223.50447 -15665752.83144  22558580.3364                   22558578.2034
 -15133750.62247 -11778253.60346  21430777.4224                   21430773.6804
 11  9 28  2 44  0.0000000  0  8G22G29G09G06G15G21G26G18
  13169086.54647  10273876.25444  23773562.7974                   23773558.5434
 -32156008.79948 -25044664.29346  21015068.9454                   21015066.5944
  17011463.04246  13269807.28144  24278825.9924                   24278824.4734
  20863590.13845  16271563.89842  24627534.8524                   24627533.6604
 -24470801.79047 -19057916.31146  20695648.8674                   20695646.2424
 -20887255.72948 -16265674.74546  21333472.1484                   21333468.2114
 -20097881.99847 -15652239.98844  22561879.8914                   22561878.8834
 -15232621.09148 -11855295.50946  21411963.1644                   21411959.1914
 11  9 28  2 44 30.0000000  0  8G22G29G09G06G15G21G26G18
  13030818.06647  10166134.69044  23747250.1334                   23747246.0664
 -32161703.94548 -25049102.08146  21013985.9304                   21013983.1684
  16849849.29446  13143874.53344  24248071.7194                   24248070.3404
  20704502.21245  16147599.34943  24597260.2974                   24597260.8244
 -24510292.82048 -19088688.53846  20688134.1644                   20688131.0204
 -21019298.94448 -16368565.53946  21308344.9454                   21308341.2974
 -20080139.08947 -15638414.33044  22565256.6804                   22565254.5904
 -15331320.39748 -11932204.02346  21393180.9924                   21393177.6914
 11  9 28  2 45  0.0000000  0  8G22G29G09G06G15G21G26G18
  12892686.94047  10058500.12344  23720964.4454                   23720961.5434
 -32166985.12148 -25053217.29846  21012980.1174                   21012977.4264
  16688202.81446  13017916.33144  24217311.1414                   24217309.9774
  20545666.01346  16023831.00842  24567035.8914                   24567034.2664
 -24549262.09148 -19119054.20446  20680718.5314                   20680715.5124
 -21151227.97548 -16471367.35346  21283239.9844                   21283235.7304
 -20062000.03247 -15624280.03644  22568708.5474                   22568706.4024
 -15429851.19448 -12008981.24446  21374431.3284                   21374427.6374
 11  9 28  2 45 30.0000000  0  8G22G29G09G06G15G21G26G18
  12754693.68346   9950972.99344  23694705.4304                   23694701.9184
 -32171853.79148 -25057011.07846  21012053.8284                   21012051.6724
  16526527.52346  12891935.63644  24186546.3754                   24186544.4264
  20387084.55545  15900261.09443  24536859.6024                   24536856.1454
 -24587710.71748 -19149014.16546  20673402.2664                   20673399.6484
 -21283040.36348 -16574078.30346  21258156.7734                   21258152.5554
 -20043467.37947 -15609839.03344  22572234.8674                   22572233.1844
 -15528213.62348 -12085627.26146  21355713.2034                   21355710.1764
 11  9 28  2 46  0.0000000  0  8G22G29G09G06G15G21G26G18
  14192262.81047  11071156.80344  23968266.1414                   23968262.0744
 -30600891.96648 -23832884.99846  21310998.0634                   21310995.5354
  17940251.88446  13993539.00244  24455568.4454                   24455567.0824
  21804185.63545  17004495.81642  24806523.7424                   24806522.0634
 -23050218.75148 -17950968.48746  20965976.6884                   20965973.7074
 -19839309.26948 -15449093.00546  21532889.4454                   21532885.8484
 -18449124.99647 -14367494.31944  22875628.7344                   22875626.0634
 -14050985.19947 -10934540.16746  21636820.6724                   21636817.3984
 11  9 28  2 46 30.0000000  0  8G22G29G09G06G15G21G26G18
  14054542.45947  10963842.30144  23942058.1954                   23942055.0434
 -30604944.63448 -23836042.94146  21310226.2424                   21310223.8984
  17778525.85446  13867518.81944  24424792.7974                   24424791.1174
  21646118.37445  16881326.60942  24776444.5704                   24776443.4454
 -23087633.01448 -17980122.44346  20958857.3984                   20958854.0124
 -19970884.87348 -15551619.42946  21507851.3134                   21507847.7584
 -18429817.09246 -14352449.22444  22879301.8284                   22879299.3244
 -14149015.74647 -11010927.58946  21618166.0784                   21618162.3364
 11  9 28  2 47  0.0000000  0  8G22G29G09G06G15G21G26G18
  13916959.07547  10856634.57244  23915877.2344                   23915874.2384
 -30608591.82148 -23838884.91046  21309532.4304                   21309530.2894
  17616780.33346  13741483.35944  24394014.0634                   24394012.4144
  21488312.61745  16758361.20243  24746414.5394                   24746412.6294
 -23124531.62948 -18008874.60546  20951835.6954                   20951832.7894
 -20102338.57048 -15654050.85846  21482836.5164                   21482832.5704
 -18410125.71946 -14337105.31544  22883049.5164                   22883047.4104
 -14246880.28147 -11087185.63346  21599543.1414                   21599539.1484
 11  9 28  2 47 30.0000000  0  8G22G29G09G06G15G21G26G18
  13779514.39747  10749534.85544  23889722.6724                   23889717.9924
 -30611833.95048 -23841411.27746  21308915.5554                   21308913.5594
  17455020.46646  13615436.76444  24363231.1334                   24363230.0984
  21330772.48245  16635602.67843  24716435.9924                   24716433.4654
 -23160914.45048 -18037224.84546  20944912.3914                   20944909.1094
 -20233666.06548 -15756383.96546  21457846.1954                   21457842.6524
 -18390051.72346 -14321463.26644  22886869.3984                   22886866.6764
 -14344577.98647 -11163313.70446  21580951.5704                   21580948.6724
 11  9 28  2 48  0.0000000  0  8G22G29G09G06G15G21G26G18
  13642205.72947  10642541.12044  23863593.6334                   23863588.8834
 -30614675.18148 -23843625.23646  21308375.0634                   21308372.2664
  17293246.95546  13489379.53443  24332446.9614                   24332445.4024
  21173497.91345  16513051.15343  24686507.9534                   24686506.2894
 -23196785.54548 -18065176.35246  20938086.0234                   20938083.5234
 -20364868.39948 -15858619.53846  21432879.0314                   21432874.6564
 -18369600.83046 -14305527.50944  22890760.8284                   22890758.8674
 -14442112.07848 -11239314.27946  21562391.4454                   21562388.5124
 11  9 28  2 48 30.0000000  0  8G22G29G09G06G15G21G26G18
  13505034.89147  10535654.84744  23837490.7584                   23837486.0824
 -30617116.48148 -23845527.55346  21307910.4064                   21307908.1724
  17131464.60846  13363315.39543  24301660.4924                   24301659.0664
  21016493.09145  16390709.80043  24656630.2974                   24656628.5434
 -23232144.93248 -18092729.11846  20931357.5474                   20931354.5904
 -20495941.74448 -15960754.59946  21407936.7894                   21407932.3054
 -18348774.67746 -14289299.38444  22894724.3364                   22894721.9924
 -14539481.28748 -11315186.37246  21543862.8674                   21543858.9694
 11  9 28  2 49  0.0000000  0  8G22G29G09G06G15G21G26G18
  13367999.94447  10428874.39344  23811413.7274                   23811409.9694
 -30619161.70048 -23847121.25046  21307521.3914                   21307519.4304
  16969675.08446  13237245.65743  24270873.8754                   24270871.5474
  20859758.62046  16268579.22643  24626804.8054                   24626802.8914
 -23266995.66548 -18119885.53146  20924725.6954                   20924722.5704
 -20626885.82248 -16062788.92146  21383018.5474                   21383015.2384
 -18327577.90246 -14272782.46344  22898758.3134                   22898755.8014
 -14636687.86648 -11390931.74546  21525364.9844                   21525361.4384
 11  9 28  2 49 30.0000000  0  8G22G29G09G06G15G21G26G18
  13231100.10747  10322199.23944  23785362.6254                   23785358.4804
 -30620813.40748 -23848408.31646  21307206.4694                   21307204.4774
  16807881.22746  13111172.57243  24240084.8444                   24240083.7934
  20703296.52046  16146660.73243  24597031.3134                   24597029.9064
 -23301340.08348 -18146647.41046  20918190.5084                   20918187.0204
 -20757699.02748 -16164721.28246  21358125.7274                   21358121.2464
 -18306014.03947 -14255979.45944  22902860.8754                   22902859.1094
 -14733733.38148 -11466551.60246  21506897.9224                   21506894.0944
 11  9 28  2 50  0.0000000  0  8G22G29G09G06G15G21G26G18
  13094335.51447  10215629.51344  23759336.5394                   23759332.5864
 -30622073.85848 -23849390.49446  21306966.8984                   21306964.6334
  16646086.57846  12985098.89543  24209296.3444                   24209294.5474
  20547109.09246  16024956.33743  24567309.0784                   24567307.6214
 -23335179.71248 -18173015.95046  20911750.6644                   20911747.5124
 -20888379.42948 -16266550.14346  21333258.2664                   21333254.5204
 -18284086.73446 -14238893.28244  22907034.2344                   22907032.0164
 -14830618.40648 -11542046.41246  21488461.1094                   21488457.2624
 11  9 28  2 50 30.0000000  0  8G22G29G09G06G15G21G26G18
  12957707.48147  10109166.16844  23733337.3364                   23733333.0864
 -30622943.88548 -23850068.45646  21306801.3364                   21306799.4694
  16484295.63646  12859028.07843  24178508.5704                   24178507.1914
  20391200.18346  15903468.91043  24537640.7504                   24537639.1564
 -23368514.67348 -18198991.24046  20905407.4224                   20905404.2734
 -21018923.31148 -16368272.63046  21308416.3984                   21308412.2274
 -18261797.09547 -14221524.79644  22911275.5474                   22911273.4654
 -14927341.83448 -11617415.29746  21470055.4384                   21470052.0434
 11  9 28  2 51  0.0000000  0  8G22G29G09G06G15G21G26G18
  12821215.08447  10002808.51944  23707363.9694                   23707359.1884
 -30623426.38548 -23850444.44046  21306709.7734                   21306707.5084
  16322511.19746  12732962.35243  24147721.5864                   24147719.8524
  20235571.43746  15782199.85143  24508025.5864                   24508024.6094
 -23401347.32748 -18224575.13146  20899159.8204                   20899156.2114
 -21149329.74648 -16469888.03146  21283600.7894                   21283596.5514
 -18239149.11046 -14203877.03244  22915586.1484                   22915582.8634
 -15023905.05948 -11692659.34546  21451679.9304                   21451676.4534
 11  9 28  2 51 30.0000000  0  8G22G29G09G06G15G21G26G18
  12684857.40147   9896555.86944  23681416.4454                   23681411.7424
 -30623524.40048 -23850520.82546  21306691.0634                   21306689.1334
  16160735.80046  12606903.57443  24116937.1174                   24116935.2584
  20080224.36046  15661150.28644  24478464.3204                   24478462.8364
 -23433680.75848 -18249770.00246  20893006.7274                   20893003.5904
 -21279597.19648 -16571395.12046  21258812.0394                   21258808.0084
 -18216146.85347 -14185953.24544  22919962.5004                   22919960.9964
 -15120309.63548 -11767779.79246  21433334.9384                   21433331.2704
 11  9 28  2 52  0.0000000  0  8G22G29G09G06G15G21G26G18
  12548634.44646   9790408.19244  23655493.2424                   23655489.8634
 -30623240.02448 -23850299.24346  21306744.9844                   21306742.9384
  15998973.05446  12480854.72443  24086155.0314                   24086152.5664
  19925161.48446  15540322.11043  24448957.1414                   24448955.3674
 -23465516.04548 -18274576.72946  20886948.4694                   20886945.2384
 -21409723.55948 -16672792.27546  21234049.5554                   21234045.5634
 -18192793.24947 -14167755.65644  22924407.1254                   22924404.3714
 -15216556.21248 -11842777.09946  21415020.0004                   21415016.2464
 11  9 28  2 52 30.0000000  0  8G22G29G09G06G15G21G26G18
  12412546.61346   9684365.82444  23629596.1174                   23629592.5314
 -30622575.01848 -23849781.07246  21306871.4224                   21306869.5864
  15837226.93846  12354818.83443  24055375.3134                   24055373.2774
  19770385.84746  15419717.81043  24419504.4924                   24419502.0744
 -23496854.49748 -18298996.29046  20880985.2034                   20880981.9494
 -21539706.32348 -16774077.52546  21209314.6254                   21209310.2154
 -18169090.76647 -14149286.25544  22928916.6414                   22928914.6724
 -15312645.03948 -11917651.48446  21396733.8984                   21396730.8244
 11  9 28  2 53  0.0000000  0  8G22G29G09G06G15G21G26G18
  12276591.62446   9578426.94744  23603724.9224                   23603721.0664
 -30621533.86248 -23848969.79746  21307069.9844                   21307067.3714
  15675498.61146  12228796.77243  24024600.3134                   24024598.0784
  19615897.75446  15299337.55843  24390105.8594                   24390104.4614
 -23527699.78148 -18323031.57646  20875115.3594                   20875112.3984
 -21669545.43748 -16875250.85046  21184607.1884                   21184603.6374
 -18145044.78547 -14130549.18444  22933493.5944                   22933490.6954
 -15408578.67048 -11992404.95546  21378478.8134                   21378475.1884
 11  9 28  2 53 30.0000000  0  8G22G29G09G06G15G21G26G18
  12140769.49446   9472591.60944  23577878.7274                   23577874.7464
 -30620118.61547 -23847867.02446  21307339.2814                   21307337.2194
  15513791.46846  12102791.22644  23993827.9694                   23993825.9264
  19461699.52246  15179183.10043  24360762.0554                   24360761.3014
 -23558053.85648 -18346684.10646  20869339.2664                   20869336.4384
 -21799238.71248 -16976310.52546  21159927.1564                   21159922.9384
 -18120658.26547 -14111546.73544  22938133.5164                   22938131.1564
 -15504357.40448 -12067037.72246  21360252.5944                   21360249.2114
 11  9 28  2 54  0.0000000  0  8G22G29G09G06G15G21G26G18
  12005079.98146   9366859.60344  23552057.4694                   23552053.1094
 -30618331.82248 -23846474.73546  21307679.3984                   21307676.7304
  15352108.56347  11976804.57644  23963060.2274                   23963059.5434
  19307793.14146  15059256.16243  24331474.9224                   24331474.4414
 -23587918.59348 -18369955.31746  20863655.9384                   20863653.0274
 -21928784.31848 -17077255.14446  21135275.5164                   21135271.3984
 -18095934.62346 -14092281.59344  22942838.7194                   22942836.8204
 -15599982.56448 -12141550.81946  21342056.0474                   21342052.6374
 11  9 28  2 54 30.0000000  0  8G22G29G09G06G15G21G26G18
  11869525.28746   9261232.64644  23526262.8984                   23526258.2774
 -30616173.18347 -23844792.69146  21308089.9144                   21308087.9494
  15190455.95546  11850841.53044  23932299.2814                   23932297.5864
  19154183.75446  14939560.58443  24302243.8054                   24302242.1564
 -23617293.02948 -18392844.50046  20858066.3754                   20858063.0394
 -22058177.51348 -17178080.98846  21110652.9694                   21110649.3554
 -18070874.42646 -14072754.22044  22947607.7894                   22947606.3244
 -15695452.06648 -12215942.62746  21323888.8984                   21323885.1564
 11  9 28  2 55  0.0000000  0  8G22G29G09G06G15G21G26G18
  11734103.99747   9155709.64644  23500492.9064                   23500488.1524
 -30613646.24747 -23842823.66246  21308571.0394                   21308568.3954
  15028836.37247  11724904.24244  23901543.7034                   23901541.9694
  19000872.70546  14820097.48443  24273070.1174                   24273068.9804
 -23646180.10448 -18415353.89046  20852569.2664                   20852566.7704
 -22187416.74848 -17278786.87046  21086059.2504                   21086055.0984
 -18045481.60046 -14052967.66843  22952438.6644                   22952436.5824
 -15790767.50948 -12290214.38446  21305750.7274                   21305747.4414
 11  9 28  2 55 30.0000000  0  8G22G29G09G06G15G21G26G18
  11598815.00547   9050289.73044  23474748.3984                   23474744.2974
 -30610754.38847 -23840570.27846  21309121.4534                   21309119.0204
  14867251.77447  11598994.18144  23870795.2974                   23870793.3794
  18847860.97446  14700867.61243  24243952.5474                   24243950.9534
 -23674583.22548 -18437486.18746  20847164.4454                   20847161.9344
 -22316502.19148 -17379372.91946  21061495.0004                   21061490.6724
 -18019761.07846 -14032925.74043  22957333.9614                   22957331.1914
 -15885930.71748 -12364367.49646  21287641.6484                   21287638.1174
 11  9 28  2 56  0.0000000  0  8G22G29G09G06G15G21G26G18
  11463659.25747   8944973.59944  23449029.1174                   23449024.2664
 -30607499.15947 -23838033.74946  21309740.9774                   21309738.9534
  14705706.53247  11473114.83544  23840054.4454                   23840052.1644
  18695151.98546  14581873.64543  24214894.0004                   24214891.4224
 -23702502.89447 -18459241.77746  20841851.4844                   20841848.3674
 -22445430.46948 -17479836.49546  21036960.7274                   21036956.3794
 -17993714.35446 -14012629.60143  22962290.5704                   22962288.0084
 -15980941.47648 -12438401.85146  21269561.8594                   21269557.6884
 11  9 28  2 56 30.0000000  0  8G22G29G09G06G15G21G26G18
  12904060.64347  10067364.36544  23723128.1174                   23723124.6454
 -29028463.22148 -22607616.15246  21610221.1724                   21610218.7854
  16119629.24446  12574872.82944  24109115.3524                   24109112.9454
  20118172.90446  15690721.17343  24485685.1804                   24485683.3014
 -22154520.49148 -17253021.71746  21136422.1884                   21136419.3364
 -20998775.08248 -16352572.53946  21312250.2114                   21312246.5084
 -16391926.24246 -12764483.06243  23267100.4224                   23267098.4224
 -14500377.54148 -11284715.64146  21551304.0864                   21551300.5474
 11  9 28  2 57  0.0000000  0  8G22G29G09G06G15G21G26G18
  12769170.51547   9962255.20644  23697459.3754                   23697455.3284
 -29024488.18948 -22604518.71446  21610977.6414                   21610975.0744
  15958173.03447  12449062.84744  24078390.4224                   24078388.7854
  19966076.17146  15572204.31043  24456741.4224                   24456740.6094
 -22181479.24148 -17274028.52746  21131292.8834                   21131289.6294
 -21127382.04848 -16452785.73346  21287776.9844                   21287772.5704
 -16365237.45846 -12743686.65143  23272178.2894                   23272176.8984
 -14595085.36148 -11358513.92746  21533281.6884                   21533277.8484
 11  9 28  2 57 30.0000000  0  8G22G29G09G06G15G21G26G18
  12634413.49547   9857249.78444  23671816.0944                   23671811.8714
 -29020156.41948 -22601143.33746  21611801.9224                   21611799.8874
  15796766.84646  12323291.84244  24047676.1804                   24047673.4734
  19814289.44046  15453929.01143  24427857.8364                   24427856.6134
 -22207959.79148 -17294662.72546  21126253.2424                   21126250.0664
 -21255824.52648 -16552870.76346  21263335.5944                   21263331.5864
 -16338231.73346 -12722643.31643  23277318.7504                   23277316.9844
 -14689642.17148 -11432194.54246  21515288.0944                   21515284.0594
 11  9 28  2 58  0.0000000  0  8G22G29G09G06G15G21G26G18
  12499789.72047   9752348.18644  23646197.9454                   23646193.7154
 -29015469.84048 -22597491.48246  21612694.0084                   21612691.7344
  15635414.49246  12197562.77743  24016971.5784                   24016968.9344
  19662815.57146  15335897.44843  24399033.2974                   24399031.4884
 -22233963.57648 -17314925.40446  21121305.0314                   21121301.8834
 -21384100.67848 -16652826.18646  21238925.2114                   21238920.9064
 -16310911.88246 -12701355.20544  23282517.6644                   23282516.7854
 -14784048.37648 -11505757.80346  21497322.8204                   21497319.1214
 11  9 28  2 58 30.0000000  0  8G22G29G09G06G15G21G26G18
  12365296.71747   9647548.51944  23620604.5234                   23620599.9964
 -29010432.95147 -22593566.64446  21613652.6334                   21613650.0314
  15474117.32946  12071876.71443  23986277.4384                   23986276.0234
  19511654.66446  15218109.83443  24370268.2664                   24370266.7114
 -22259494.74348 -17334819.82546  21116446.6334                   21116443.5354
 -21512209.77148 -16752651.44346  21214547.1174                   21214542.5824
 -16283283.29747 -12679826.47844  23287774.3364                   23287772.9844
 -14878306.42948 -11579205.61846  21479386.1564                   21479383.0704
 11  9 28  2 59  0.0000000  0  8G22G29G09G06G15G21G26G18
  12230933.82747   9542850.24344  23595036.2584                   23595030.9534
 -29005048.70148 -22589371.14046  21614677.3054                   21614674.7424
  15312878.48646  11946236.13044  23955594.4144                   23955593.3244
  19360808.35546  15100567.32343  24341562.9534                   24341561.8404
 -22284555.99048 -17354348.06446  21111677.3524                   21111674.4844
 -21640150.84848 -16852345.78546  21190200.4144                   21190196.1684
 -16255349.69547 -12658060.09244  23293090.8444                   23293088.8164
 -14972417.67948 -11652539.03646  21461477.3834                   21461474.2734
 11  9 28  2 59 30.0000000  0  8G22G29G09G06G15G21G26G18
  12096702.52747   9438254.47144  23569493.0234                   23569488.5594
 -28999318.31048 -22584905.92546  21615767.5394                   21615764.8284
  15151702.76346  11820644.68243  23924924.3914                   23924921.9494
  19210280.39446  14983272.81543  24312919.0164                   24312917.6844
 -22309147.33348 -17373510.15046  21106997.9614                   21106995.3634
 -21767920.03148 -16951906.17146  21165886.5394                   21165882.9024
 -16227112.67647 -12636057.29444  23298463.9694                   23298461.5044
 -15066381.46448 -11725757.55546  21443596.6254                   21443593.1764
 11  9 28  3  0  0.0000000  0  8G22G29G09G06G15G21G26G18
  11962602.28947   9333760.80844  23543974.0554                   23543969.7384
 -28993244.18248 -22580172.85246  21616923.3984                   21616921.6564
  14990593.43546  11695104.98443  23894265.8284                   23894263.3134
  19060072.92146  14866228.11743  24284334.8984                   24284333.5984
 -22333271.41048 -17392308.13546  21102407.5864                   21102404.2074
 -21895515.42848 -17051331.13546  21141605.8914                   21141601.4414
 -16198575.43147 -12613820.52643  23303894.5234                   23303892.8954
 -15160198.35348 -11798861.61546  21425744.2734                   21425740.5124
 11  9 28  3  0 30.0000000  0  8G22G29G09G06G15G21G26G18
  11828633.17847   9229369.33544  23518481.4064                   23518476.6524
 -28986828.55648 -22575173.67846  21618144.1884                   21618142.0984
  14829554.40447  11569620.04743  23863621.3594                   23863618.5744
  18910188.72647  14749435.32743  24255812.9224                   24255811.7934
 -22356929.77548 -17410743.22046  21097905.4844                   21097902.1884
 -22022934.40048 -17150618.64146  21117359.4304                   21117355.4454
 -16169740.89846 -12591352.15044  23309381.5944                   23309380.0594
 -15253868.60248 -11871851.39846  21407919.1884                   21407915.5394
 11  9 28  3  1  0.0000000  0  8G22G29G09G06G15G21G26G18
  11694796.03847   9125080.74244  23493012.6094                   23493008.6054
 -28980072.70748 -22569909.40546  21619429.9924                   21619427.3324
  14668590.19947  11444193.41543  23832990.4304                   23832988.1524
  18760630.79846  14632896.75043  24227353.3834                   24227351.2854
 -22380123.17248 -17428815.99246  21093491.8444                   21093488.5514
 -22150173.61648 -17249766.06546  21093146.3204                   21093142.4614
 -16140611.09646 -12568653.64743  23314924.6254                   23314923.0204
 -15347392.01248 -11944726.76746  21390122.3914                   21390118.7074
 11  9 28  3  1 30.0000000  0  8G22G29G09G06G15G21G26G18
  11561090.53347   9020894.66244  23467568.9774                   23467564.6214
 -28972979.46848 -22564382.22146  21620779.3054                   21620777.5164
  14507703.93147  11318827.52443  23802375.7194                   23802372.6564
  18611401.08246  14516613.87743  24198955.6024                   24198952.7034
 -22402854.18948 -17446528.47746  21089166.4384                   21089163.5904
 -22277231.35848 -17348772.08846  21068967.8284                   21068963.6844
 -16111189.75047 -12545728.02243  23320523.7974                   23320521.0394
 -15440769.72548 -12017488.59146  21372353.3594                   21372349.7544
 11  9 28  3  2  0.0000000  0  8G22G29G09G06G15G21G26G18
  11427514.69747   8916809.65544  23442150.0164                   23442145.9534
 -28965552.80848 -22558595.22846  21622192.6254                   21622190.2504
  14346897.72047  11193524.01444  23771775.1334                   23771772.7894
  18462500.42146  14400587.44143  24170620.5634                   24170619.2504
 -22425126.08948 -17463883.19346  21084928.1024                   21084925.5474
 -22404107.01548 -17447636.23446  21044824.3594                   21044820.1334
 -16081481.17346 -12522578.53543  23326177.0394                   23326175.5354
 -15534003.61248 -12090138.36746  21354611.2504                   21354607.6094
 11  9 28  3  2 30.0000000  0  8G22G29G09G06G15G21G26G18
  11294068.93647   8812826.00344  23416756.2194                   23416751.8914
 -28957794.52047 -22552549.82446  21623669.1954                   21623667.1524
  14186175.40447  11068285.85044  23741190.9534                   23741188.0634
  18313931.82347  14284819.79743  24142349.2664                   24142346.2034
 -22446940.78948 -17480881.67646  21080776.7664                   21080773.7704
 -22530797.87748 -17546356.36746  21020716.0864                   21020711.9264
 -16051488.18046 -12499207.41943  23331884.5704                   23331882.4964
 -15627093.56848 -12162675.97646  21336896.5474                   21336893.8594
 11  9 28  3  3  0.0000000  0  8G22G29G09G06G15G21G26G18
  11160753.45147   8708943.85644  23391387.0084                   23391382.9344
 -28949707.10548 -22546247.95346  21625208.2814                   21625206.0744
  14025540.72047  10943115.96344  23710622.9924                   23710620.6334
  18165697.45646  14169312.47743  24114140.5944                   24114138.4144
 -22468299.41248 -17497524.75446  21076712.6414                   21076709.3794
 -22657301.37048 -17644930.51446  20996643.2734                   20996638.8404
 -16021213.41646 -12475616.78343  23337645.4844                   23337644.6094
 -15720040.08848 -12235101.83046  21319209.6644                   21319205.6134
 11  9 28  3  3 30.0000000  0  8G22G29G09G06G15G21G26G18
  11027568.34147   8605163.32444  23366042.6174                   23366038.1374
 -28941292.09047 -22539690.83646  21626809.5164                   21626807.6294
  13864998.03047  10818017.80344  23680072.6334                   23680070.3754
  18017800.31646  14054068.05643  24085997.1804                   24085995.6524
 -22489203.65548 -17513813.78046  21072734.7114                   21072731.5984
 -22783614.55248 -17743356.36346  20972606.3054                   20972602.4494
 -15990659.45346 -12451808.52143  23343460.4454                   23343457.2384
 -15812843.11148 -12307415.85046  21301549.5784                   21301546.2424
 11  9 28  3  4  0.0000000  0  8G22G29G09G06G15G21G26G18
  10894514.37247   8501484.98744  23340723.0084                   23340719.3484
 -28932551.58347 -22532880.07546  21628472.6254                   21628470.8524
  13704551.52147  10692994.59644  23649540.2344                   23649538.2624
  17870243.17146  13939088.59943  24057917.6954                   24057916.4384
 -22509654.74247 -17529749.70046  21068842.7974                   21068839.7504
 -22909734.78848 -17841631.85046  20948606.8914                   20948602.2544
 -15959828.93647 -12427784.78843  23349326.8984                   23349324.6094
 -15905502.87948 -12379618.25946  21283917.1024                   21283914.0354
 11  9 28  3  4 30.0000000  0  8G22G29G09G06G15G21G26G18
  10761591.63047   8397908.91644  23315429.0394                   23315425.4224
 -28923487.69347 -22525817.31646  21630198.2034                   21630195.7504
  13544205.20247  10568049.46544  23619027.4844                   23619025.4884
  17723028.71346  13824376.01243  24029903.2814                   24029901.2424
 -22529654.50848 -17545333.93146  21065037.0554                   21065034.2304
 -23035659.27248 -17939754.82746  20924644.2114                   20924640.2034
 -15928724.67647 -12403547.78143  23355245.8984                   23355243.5164
 -15998019.24248 -12451708.90946  21266312.1414                   21266308.1844
 11  9 28  3  5  0.0000000  0  8G22G29G09G06G15G21G26G18
  10628797.12147   8294432.73644  23290159.0164                   23290154.6954
 -28914105.85447 -22518506.81346  21631982.9534                   21631980.5634
  13383959.34147  10443182.58244  23588533.5004                   23588531.5274
  17576156.18746  13709929.91243  24001955.0394                   24001952.8284
 -22549208.21348 -17560570.59346  21061316.2034                   21061312.9924
 -23161388.64248 -18037725.74146  20900718.4614                   20900714.3634
 -15897352.53847 -12379101.98743  23361215.6254                   23361213.9184
 -16090395.63748 -12523690.51646  21248733.1804                   21248729.6804
 11  9 28  3  5 30.0000000  0  8G22G29G09G06G15G21G26G18
  10496133.61247   8191058.63844  23264913.8444                   23264909.2074
 -28904405.14747 -22510947.84846  21633828.8204                   21633826.2154
  13223820.65947  10318399.22844  23558060.8754                   23558058.4414
  17429630.99946  13595754.50743  23974071.3284                   23974070.9774
 -22568314.73648 -17575458.78946  21057680.1024                   21057677.4144
 -23286917.73948 -18135540.61546  20876830.9924                   20876826.6254
 -15865712.22546 -12354447.25043  23367236.6954                   23367235.4694
 -16182630.13548 -12595561.53646  21231181.5394                   21231178.1884
 11  9 28  3  6  0.0000000  0  8G22G29G09G06G15G21G26G18
  10363602.54247   8087787.71244  23239694.2344                   23239690.0594
 -28894386.56747 -22503141.18546  21635735.6724                   21635733.5394
  13063794.55747  10193703.65144  23527608.3594                   23527606.6564
  17283456.95046  13481852.70543  23946255.6644                   23946254.2664
 -22586974.12147 -17589998.57646  21054129.2664                   21054126.9654
 -23412242.65848 -18233196.38846  20852982.5234                   20852978.0984
 -15833805.50447 -12329584.93543  23373308.6024                   23373306.1644
 -16274721.02448 -12667320.63946  21213657.5084                   21213653.4614
 11  9 28  3  6 30.0000000  0  8G22G29G09G06G15G21G26G18
  10231200.58447   7984617.43844  23214499.0314                   23214494.4184
 -28884055.75347 -22495091.21046  21637701.5864                   21637698.7624
  12903881.67246  10069096.22844  23497177.5944                   23497176.4534
  17137633.14246  13368223.81743  23918506.1334                   23918504.8874
 -22605191.88747 -17604194.25046  21050663.1094                   21050660.1174
 -23537364.05648 -18330693.57046  20829172.8134                   20829168.3164
 -15801638.47147 -12304519.79943  23379430.0944                   23379429.1374
 -16366672.04948 -12738970.77046  21196159.5634                   21196155.7854
 11  9 28  3  7  0.0000000  0  8G22G29G09G06G15G21G26G18
  11674352.57747   9109151.50545  23489121.3364                   23489117.7274
 -27297995.30547 -21259199.97646  21939518.7114                   21939516.8554
  14319511.10447  11172184.18944  23766562.8914                   23766560.9614
  18567586.97546  14482473.61443  24190617.0164                   24190615.6954
 -21047549.00748 -16390446.55046  21347072.6484                   21347069.1374
 -22086855.25648 -17200426.96746  21105195.0704                   21105191.1454
 -14193794.69547 -11051654.52043  23685391.7584                   23685391.1954
 -14883060.81348 -11582910.04646  21478481.4534                   21478477.6604
 11  9 28  3  7 30.0000000  0  8G22G29G09G06G15G21G26G18
  11542209.31147   9006182.77645  23463975.2974                   23463971.6524
 -27287046.61747 -21250668.56246  21941602.0474                   21941599.9384
  14159836.07947  11047762.09544  23736178.2034                   23736176.3554
  18422471.38346  14369396.58643  24163002.9924                   24163000.4024
 -21064888.53847 -16403957.87646  21343772.5084                   21343769.9614
 -22211561.98848 -17297601.02146  21081464.6254                   21081460.6294
 -14161115.09046 -11026189.89143  23691611.1414                   23691609.3874
 -14974733.07048 -11654342.95746  21461036.8444                   21461033.4344
 11  9 28  3  8  0.0000000  0  8G22G29G09G06G15G21G26G18
  11410196.58047   8903315.75045  23438854.5784                   23438850.3324
 -27275791.46847 -21241898.32946  21943744.3914                   21943742.1134
  14000286.47647  10923437.76844  23705816.8754                   23705814.9304
  18277714.63646  14256599.20644  24135456.8054                   24135455.5004
 -21081790.75348 -16417128.44746  21340556.3754                   21340552.9264
 -22336056.83148 -17394609.98646  21057773.4844                   21057769.3754
 -14128182.52146 -11000528.22343  23697877.4924                   23697876.4614
 -15066265.64748 -11725667.03146  21443618.7344                   21443614.8284
 11  9 28  3  8 30.0000000  0  8G22G29G09G06G15G21G26G18
  11278313.66847   8800549.92545  23413757.5634                   23413753.4574
 -27264232.59247 -21232891.43946  21945943.5084                   21945941.4924
  13840865.88347  10799213.96744  23675479.1644                   23675477.3284
  18133318.29747  14144082.59444  24107978.6954                   24107977.5744
 -21098258.13248 -16429960.16346  21337422.5554                   21337419.9614
 -22460337.51548 -17491452.07046  21034124.2344                   21034119.8834
 -14095000.38546 -10974672.10143  23704192.2584                   23704190.8984
 -15157659.17748 -11796882.74546  21426226.8594                   21426222.8404
 11  9 28  3  9  0.0000000  0  8G22G29G09G06G15G21G26G18
  11146560.67247   8697885.27944  23388685.7584                   23388681.1054
 -27252372.31947 -21223649.68446  21948200.8524                   21948198.1414
  13681578.25547  10675093.78244  23645168.4924                   23645165.9734
  17989285.14046  14031849.04644  24080570.2274                   24080568.6954
 -21114292.80148 -16442454.72146  21334371.6414                   21334368.6684
 -22584401.47448 -17588125.25946  21010515.0944                   21010510.9844
 -14061571.34246 -10948623.57143  23710553.6804                   23710551.7854
 -15248913.78848 -11867990.20546  21408861.9064                   21408858.0944
 11  9 28  3  9 30.0000000  0  8G22G29G09G06G15G21G26G18
  11014939.47547   8595323.37944  23363639.1564                   23363633.7974
 -27240210.97147 -21214173.33546  21950514.9614                   21950512.4574
  13522428.98047  10551081.37944  23614883.8364                   23614881.3364
  17845618.99846  13919901.46443  24053230.5704                   24053229.6254
 -21129894.45848 -16454611.86446  21331402.4844                   21331399.7034
 -22708244.64548 -17684626.42346  20986948.7344                   20986944.5944
 -14027896.62646 -10922383.55843  23716961.2974                   23716960.5394
 -15340028.15348 -11938988.38646  21391523.2424                   21391519.4304
 11  9 28  3 10  0.0000000  0  9G22G29G09G06G15G14G21G26G18
  10883447.29547   8492861.95744  23338617.3284                   23338612.2854
 -27227753.74447 -21204466.43246  21952885.0634                   21952883.5164
  13363419.25947  10427177.69544  23584624.5864                   23584622.9774
  17702319.63446  13808239.65343  24025962.0314                   24025960.9184
 -21145067.76048 -16466435.22146  21328515.5164                   21328512.6644
  26520697.35555  20678901.19952  24613933.6334                   24613931.0354
 -22831867.05048 -17780955.56046  20963424.1414                   20963419.9454
 -13993981.68946 -10895956.44543  23723415.1954                   23723414.5554
 -15431005.34448 -12009879.70046  21374211.2664                   21374207.7114
 11  9 28  3 10 30.0000000  0  9G22G29G09G06G15G14G21G26G18
  10752081.04747   8390498.68244  23313618.8674                   23313614.0554
 -27215006.40147 -21194533.45145  21955311.0084                   21955308.3204
  13204549.60547  10303383.20744  23554392.7344                   23554390.0354
  17559386.00446  13696862.84044  23998762.7894                   23998761.8014
 -21159818.27747 -16477929.13446  21325708.0554                   21325705.5084
  26337538.64846  20536180.21143  24579079.9144                   24579076.6884
 -22955269.43948 -17877113.25846  20939941.4224                   20939937.2504
 -13959832.77746 -10869346.91943  23729914.1254                   23729912.5594
 -15521848.88048 -12080666.86346  21356923.7894                   21356919.8204
 11  9 28  3 11  0.0000000  0  9G22G29G09G06G15G14G21G26G18
  10620840.28047   8288233.18644  23288643.9454                   23288640.0084
 -27201971.37547 -21184376.31445  21957791.5474                   21957789.6054
  13045823.73647  10179700.68144  23524188.0084                   23524186.1094
  17416820.53246  13585772.96243  23971633.3284                   23971631.3714
 -21174147.99648 -16489095.15646  21322981.1644                   21322978.5044
  26154466.96545  20393527.01243  24544242.4844                   24544240.0314
 -23078449.46648 -17973097.68446  20916501.1414                   20916497.3244
 -13925452.69146 -10842557.31443  23736456.3284                   23736454.0004
 -15612559.35748 -12151350.34246  21339662.1564                   21339658.0984
 11  9 28  3 11 30.0000000  0  9G22G29G09G06G15G14G21G26G18
  10489729.32247   8186068.81444  23263694.8524                   23263690.1174
 -27188646.83947 -21173993.58446  21960327.5474                   21960324.8954
  12887249.62447  10056136.45844  23494013.0634                   23494010.3794
  17274629.70546  13474974.98643  23944574.9384                   23944573.2854
 -21188054.54848 -16499931.43446  21320334.7584                   21320332.0164
  25971489.15946  20250946.96743  24509422.7344                   24509420.1764
 -23201400.52248 -18068903.69046  20893104.2424                   20893100.4224
 -13890840.19646 -10815586.60143  23743042.9614                   23743040.7814
 -15703132.76248 -12221926.99546  21322426.9924                   21322422.5664
 11  9 28  3 12  0.0000000  0  9G22G29G09G06G15G14G21G26G18
  10358750.56147   8084007.50744  23238770.7894                   23238765.6914
 -27175032.75047 -21163385.22045  21962918.3284                   21962915.6884
  12728833.69547   9932695.47744  23463866.9844                   23463864.7854
  17132818.12647  13364472.46443  23917588.9924                   23917588.0394
 -21201537.72148 -16510437.81146  21317769.0944                   21317766.4964
  25788610.20946  20108443.95343  24474621.7894                   24474619.7424
 -23324117.64048 -18164527.39846  20869752.0474                   20869747.8324
 -13855995.60546 -10788434.99743  23749674.0704                   23749672.0944
 -15793567.11648 -12292395.30146  21305218.0704                   21305213.2704
 11  9 28  3 12 30.0000000  0  9G22G29G09G06G15G14G21G26G18
  10227904.52447   7982049.61544  23213870.9694                   23213866.6214
 -27161130.77347 -21152552.53545  21965563.5084                   21965561.5004
  12570580.34747   9809381.20444  23433752.4844                   23433750.2464
  16991388.56846  13254267.64844  23890676.7274                   23890674.5664
 -21214598.84848 -16520615.31546  21315283.7894                   21315281.5004
  25605833.51046  19966020.52443  24439841.3674                   24439838.9694
 -23446597.14148 -18259965.96846  20846445.2974                   20846440.7274
 -13820921.21447 -10761104.35443  23756348.7504                   23756347.0864
 -15883861.84448 -12362754.81346  21288035.2194                   21288031.5164
 11  9 28  3 13  0.0000000  0  9G22G29G09G06G15G14G21G26G18
  10097193.66047   7880197.02344  23188997.7114                   23188993.0274
 -27146940.84947 -21141495.47745  21968263.7034                   21968261.6414
  12412495.71847   9686198.37744  23403670.1094                   23403668.6884
  16850345.79447  13144364.22744  23863837.0554                   23863835.6024
 -21227237.53648 -16530463.65646  21312878.6334                   21312875.4654
  25423163.89346  19823680.61243  24405079.4304                   24405078.0394
 -23568834.96248 -18355216.20946  20823184.0944                   20823179.5474
 -13785617.32747 -10733594.80343  23763066.2274                   23763064.4654
 -15974015.07448 -12433004.08346  21270879.0784                   21270875.4024
 11  9 28  3 13 30.0000000  0  9G22G29G09G06G15G14G21G26G18
   9966617.95847   7778449.75244  23164149.8204                   23164145.1644
 -27132465.29747 -21130215.84146  21971018.5784                   21971016.5824
  12254583.63847   9563150.02244  23373620.0554                   23373618.5204
  16709692.26047  13034764.11044  23837070.9064                   23837069.7234
 -21239455.87548 -16539984.43746  21310553.8984                   21310550.7894
  25240604.38146  19681426.39343  24370339.6334                   24370337.8674
 -23690828.27448 -18450275.91546  20799969.4224                   20799965.3404
 -13750086.80846 -10705908.74943  23769826.9304                   23769824.5824
 -16064027.19548 -12503143.38646  21253750.6094                   21253746.8364
 11  9 28  3 14  0.0000000  0  9G22G29G09G06G15G14G21G26G18
   9836178.99047   7676809.04144  23139327.9144                   23139324.0004
 -27117705.26447 -21118714.54945  21973827.1564                   21973824.9534
  12096849.52847   9440240.35444  23343604.1804                   23343602.8014
  16569431.52747  12925470.05144  23810380.9144                   23810379.0514
 -21251254.19548 -16549177.95046  21308308.7344                   21308305.3444
  25058159.00446  19539261.18843  24335621.0314                   24335619.3444
 -23812573.01448 -18545141.94546  20776802.2974                   20776797.7074
 -13714331.06146 -10678047.11443  23776631.7894                   23776630.3674
 -16153897.27848 -12573172.00346  21236649.0234                   21236645.4144
 11  9 28  3 14 30.0000000  0  9G22G29G09G06G15G14G21G26G18
   9705874.20847   7575272.88745  23114531.6724                   23114527.1844
 -27102665.38047 -21106995.17646  21976688.8054                   21976686.3754
  11939294.89747   9317470.53844  23313622.6954                   23313621.0944
  16429563.45447  12816481.97843  23783765.1884                   23783763.0084
 -21262636.81748 -16558047.52446  21306142.5084                   21306140.0904
  24875827.99746  19397185.09042  24300925.5474                   24300922.9454
 -23934068.88248 -18639814.04346  20753682.2974                   20753677.9924
 -13678355.13946 -10650014.06643  23783477.6334                   23783477.2194
 -16243627.61248 -12643091.74046  21219573.7974                   21219569.9964
 11  9 28  3 15  0.0000000  0  9G22G29G09G06G15G14G21G26G18
   9575703.01647   7473840.82445  23089761.8594                   23089757.2034
 -27087348.65847 -21095060.08945  21979603.3134                   21979601.3714
  11781922.86647   9194843.01844  23283675.5314                   23283673.8914
  16290089.72947  12707801.16544  23757224.1724                   23757221.7464
 -21273606.72348 -16566595.51246  21304055.2504                   21304052.0864
  24693613.70546  19255199.91842  24266250.4614                   24266248.0664
 -24055313.95848 -18734290.71946  20730609.7194                   20730606.2234
 -13642162.49246 -10621812.01243  23790364.8754                   23790363.8404
 -16333218.81648 -12712903.06846  21202525.2814                   21202521.9224
 11  9 28  3 15 30.0000000  0  9G22G29G09G06G15G14G21G26G18
   9445663.95647   7372511.74245  23065014.8914                   23065010.8324
 -27071758.90047 -21082912.23845  21982570.7584                   21982568.2544
  11624736.19747   9072359.94044  23253764.5864                   23253762.4304
  16151011.46447  12599428.50544  23730758.0084                   23730756.4064
 -21284167.02448 -16574824.32546  21302045.5944                   21302042.3794
  24511517.25545  19113306.62942  24231599.7424                   24231596.0354
 -24176307.18447 -18828571.14246  20707585.4224                   20707582.0634
 -13605757.09446 -10593444.25543  23797292.4384                   23797291.2624
 -16422672.94347 -12782607.57046  21185502.7194                   21185498.9264
 11  9 28  3 16  0.0000000  0  9G22G29G09G06G15G14G21G26G18
   9315757.89947   7271286.29745  23040295.1094                   23040290.4774
 -27055897.38847 -21070552.63645  21985588.5784                   21985586.4414
  11467739.39847   8950024.78244  23223889.1884                   23223886.9144
  16012331.57947  12491366.28343  23704368.2664                   23704365.5944
 -21294318.90148 -16582734.89346  21300113.8364                   21300110.3674
  24329541.97645  18971507.66442  24196969.8754                   24196966.9414
 -24297045.04948 -18922652.58546  20684610.2034                   20684605.9844
 -13569141.05646 -10564912.29843  23804260.8594                   23804259.4104
 -16511989.31248 -12852204.71946  21168506.1564                   21168502.5474
 11  9 28  3 16 30.0000000  0  9G22G29G09G06G15G14G21G26G18
   9185983.97947   7170163.80545  23015599.6174                   23015595.1024
 -27039767.76147 -21057984.12745  21988658.6094                   21988656.4734
  11310935.40847   8827839.88344  23194049.7424                   23194048.5234
  15874051.27946  12383615.39044  23678053.6954                   23678051.6054
 -21304065.59948 -16590329.72646  21298258.9844                   21298255.6884
  24147689.81246  18829804.71942  24162365.2504                   24162361.3404
 -24417526.07848 -19016533.90046  20661683.6414                   20661678.9694
 -13532317.95746 -10536219.04143  23811267.6334                   23811267.0514
 -16601168.99748 -12921695.37346  21151536.1724                   21151531.6804
 11  9 28  3 17  0.0000000  0  9G22G29G09G06G15G14G21G26G18
  10631765.20647   8296746.64545  23290722.5394                   23290718.5234
 -25447954.37247 -19817610.07846  22291570.2114                   22291568.1454
  12729751.85647   9933411.18944  23464042.0784                   23464040.0044
  17311596.05746  13503780.16244  23951609.5944                   23951607.8674
 -19737989.98548 -15370011.07446  21596273.1564                   21596270.1174
  25541388.16446  19915803.48043  24427577.6564                   24427573.5594
 -22962324.90848 -17882610.89346  20938598.7734                   20938595.1604
 -11919873.33246  -9279768.72243  24118106.1564                   24118104.2624
 -15114790.69948 -11763478.51546  21434384.3364                   21434380.6254
 11  9 28  3 17 30.0000000  0  9G22G29G09G06G15G14G21G26G18
  10502253.03047   8195828.10144  23266077.4924                   23266072.7274
 -25431298.12747 -19804631.21645  22294739.9454                   22294737.5234
  12573342.47947   9811533.75644  23434277.6644                   23434276.2464
  17174119.07347  13396655.32444  23925448.9224                   23925446.0984
 -19746934.60748 -15376980.92846  21594571.1484                   21594567.7894
  25359787.85846  19774296.75343  24393019.9614                   24393016.9804
 -23082287.00847 -17976087.84446  20915771.1024                   20915766.7464
 -11882646.97546  -9250761.22943  24125189.6804                   24125188.1374
 -15203700.51347 -11832758.87346  21417465.4614                   21417461.7034
 11  9 28  3 18  0.0000000  0  9G22G29G09G06G15G14G21G26G18
  10372869.78947   8095010.05945  23241456.8444                   23241452.2344
 -25414383.68247 -19791451.14845  22297958.8524                   22297956.1174
  12417134.38247   9689813.20844  23404552.5164                   23404550.4304
  17037045.50347  13289844.74244  23899364.7194                   23899362.8164
 -19755482.95148 -15383641.98646  21592944.3914                   21592941.3794
  25178315.64346  19632889.84743  24358487.0634                   24358484.1294
 -23201987.53748 -18069360.97146  20892992.3284                   20892987.8554
 -11845224.92846  -9221601.28143  24132311.2664                   24132309.9144
 -15292477.67048 -11901935.87946  21400571.6024                   21400567.5634
 11  9 28  3 18 30.0000000  0 10G22G29G09G06G15G14G03G21G26G18
  10243615.75347   7994292.68845  23216859.7734                   23216855.8364
 -25397213.89147 -19778072.11445  22301226.0704                   22301223.9534
  12261131.45447   9568252.51644  23374866.0004                   23374865.2034
  16900377.28046  13183350.01344  23873357.6414                   23873355.4734
 -19763637.35348 -15389996.08546  21591392.9454                   21591389.7624
  24996974.31946  19491584.92543  24323978.8284                   24323976.2934
  28147798.17156  21946172.48453  24241318.4384                   24241316.2894
 -23321423.97848 -18162428.32746  20870264.5474                   20870260.3674
 -11807609.94747  -9192290.89943  24139468.9844                   24139467.5634
 -15381122.34348 -11971009.64346  21383703.1414                   21383699.2074
 11  9 28  3 19  0.0000000  0 10G22G29G09G06G15G14G03G21G26G18
  10114485.23547   7893671.53445  23192287.1414                   23192282.9064
 -25379796.18647 -19764499.89345  22304540.3914                   22304538.3404
  12105332.36347   9446850.64944  23345218.4534                   23345216.6884
  16764111.13546  13077168.69244  23847426.3754                   23847424.3524
 -19771405.37948 -15396049.11446  21589914.5704                   21589911.5474
  24815761.12746  19350379.92343  24289494.7424                   24289493.0274
  28003309.65946  21833584.05143  24213823.4924                   24213821.6094
 -23440598.95848 -18255291.93646  20847586.2344                   20847582.3404
 -11769809.98047  -9162836.44543  24146662.3914                   24146660.1954
 -15469640.20648 -12039984.57946  21366858.6884                   21366854.8364
 11  9 28  3 19 30.0000000  0 10G22G29G09G06G15G14G03G21G26G18
   9985477.75647   7793146.29145  23167738.5084                   23167733.8364
 -25362133.57047 -19750736.83945  22307900.7734                   22307899.3054
  11949740.39147   9325610.15944  23315610.2974                   23315608.3364
  16628248.69447  12971301.90544  23821572.7194                   23821570.5944
 -19778788.94648 -15401802.55746  21588509.7114                   21588506.2934
  24634678.24446  19209276.33243  24255035.9304                   24255033.5514
  27859238.43446  21721320.86342  24186407.1884                   24186405.1764
 -23559510.56448 -18347950.32946  20824958.1174                   20824953.7734
 -11731828.54046  -9133240.38443  24153889.4224                   24153887.2194
 -15558031.88648 -12108861.21646  21350038.3984                   21350034.6994
 11  9 28  3 20  0.0000000  0 10G22G29G09G06G15G14G03G21G26G18
   9856597.85747   7692720.44545  23143213.1174                   23143208.8054
 -25344224.01447 -19736781.36345  22311309.2504                   22311306.5784
  11794364.14247   9204537.79144  23286043.2424                   23286040.7774
  16492796.92446  12865755.13943  23795797.5234                   23795794.5314
 -19785786.03948 -15407254.85746  21587177.7814                   21587175.0634
  24453732.88446  19068279.97743  24220604.2034                   24220600.6134
  27715591.00046  21609387.89643  24159072.8284                   24159071.0234
 -23678151.26148 -18440397.62446  20802381.5554                   20802377.5394
 -11693663.28446  -9103501.28542  24161152.0554                   24161149.3594
 -15646292.99348 -12177636.09246  21333242.7344                   21333239.1454
